<?xml version="1.0" encoding="UTF-8" standalone="no" ?>
<gpx xmlns="http://www.topografix.com/GPX/1/1" xmlns:xsi="http://www.w3.org/2001/XMLSchema-instance" xsi:schemaLocation="http://www.topografix.com/GPX/1/1 http://www.topografix.com/GPX/1/1/gpx.xsd" version="1.1" creator="VisuGPX - https://www.visugpx.com">
  <metadata>
    <name>St Ange.gpx</name>
    <desc><![CDATA[2009-11-04_St Ange.gpx]]></desc>
  </metadata>
  <trk>
    <name><![CDATA[St Ange]]></name>
    <cmt><![CDATA[Patrick Brigitte]]></cmt>
    <trkseg>
      <trkpt lat="45.12024" lon="4.98703">
        <ele>210.43099975586</ele>
        <time>2009-11-04T12:37:09Z</time>
      </trkpt>
      <trkpt lat="45.12033" lon="4.98749">
        <ele>210.76800537109</ele>
        <time>2009-11-04T12:37:16Z</time>
      </trkpt>
      <trkpt lat="45.12047" lon="4.988">
        <ele>210.60200500488</ele>
        <time>2009-11-04T12:37:24Z</time>
      </trkpt>
      <trkpt lat="45.12062" lon="4.9884">
        <ele>211.32200622559</ele>
        <time>2009-11-04T12:37:31Z</time>
      </trkpt>
      <trkpt lat="45.12091" lon="4.98903">
        <ele>211.81300354004</ele>
        <time>2009-11-04T12:37:42Z</time>
      </trkpt>
      <trkpt lat="45.1212" lon="4.98953">
        <ele>213.24600219727</ele>
        <time>2009-11-04T12:37:51Z</time>
      </trkpt>
      <trkpt lat="45.12123" lon="4.98959">
        <ele>213.50900268555</ele>
        <time>2009-11-04T12:37:52Z</time>
      </trkpt>
      <trkpt lat="45.12147" lon="4.98993">
        <ele>213.66200256348</ele>
        <time>2009-11-04T12:37:59Z</time>
      </trkpt>
      <trkpt lat="45.12172" lon="4.99021">
        <ele>214.83200073242</ele>
        <time>2009-11-04T12:38:06Z</time>
      </trkpt>
      <trkpt lat="45.1219" lon="4.9904">
        <ele>216.11999511719</ele>
        <time>2009-11-04T12:38:11Z</time>
      </trkpt>
      <trkpt lat="45.12197" lon="4.99048">
        <ele>216.52499389648</ele>
        <time>2009-11-04T12:38:13Z</time>
      </trkpt>
      <trkpt lat="45.12211" lon="4.9908">
        <ele>216.94000244141</ele>
        <time>2009-11-04T12:38:19Z</time>
      </trkpt>
      <trkpt lat="45.1221" lon="4.99101">
        <ele>216.37600708008</ele>
        <time>2009-11-04T12:38:22Z</time>
      </trkpt>
      <trkpt lat="45.12192" lon="4.99169">
        <ele>215.63600158691</ele>
        <time>2009-11-04T12:38:32Z</time>
      </trkpt>
      <trkpt lat="45.12184" lon="4.992">
        <ele>215.49600219727</ele>
        <time>2009-11-04T12:38:37Z</time>
      </trkpt>
      <trkpt lat="45.12181" lon="4.99208">
        <ele>214.98500061035</ele>
        <time>2009-11-04T12:38:40Z</time>
      </trkpt>
      <trkpt lat="45.12181" lon="4.99208">
        <ele>214.90600585938</ele>
        <time>2009-11-04T12:38:42Z</time>
      </trkpt>
      <trkpt lat="45.1218" lon="4.99206">
        <ele>214.57400512695</ele>
        <time>2009-11-04T12:38:47Z</time>
      </trkpt>
      <trkpt lat="45.12185" lon="4.99211">
        <ele>217.42300415039</ele>
        <time>2009-11-04T12:57:05Z</time>
      </trkpt>
      <trkpt lat="45.12185" lon="4.99213">
        <ele>217.38600158691</ele>
        <time>2009-11-04T12:57:06Z</time>
      </trkpt>
      <trkpt lat="45.12181" lon="4.99227">
        <ele>217.33500671387</ele>
        <time>2009-11-04T12:57:12Z</time>
      </trkpt>
      <trkpt lat="45.12172" lon="4.99256">
        <ele>216.94900512695</ele>
        <time>2009-11-04T12:57:18Z</time>
      </trkpt>
      <trkpt lat="45.12167" lon="4.99272">
        <ele>217.20500183106</ele>
        <time>2009-11-04T12:57:21Z</time>
      </trkpt>
      <trkpt lat="45.1215" lon="4.99329">
        <ele>217.07899475098</ele>
        <time>2009-11-04T12:57:30Z</time>
      </trkpt>
      <trkpt lat="45.12138" lon="4.99369">
        <ele>217.5890045166</ele>
        <time>2009-11-04T12:57:36Z</time>
      </trkpt>
      <trkpt lat="45.12122" lon="4.99426">
        <ele>217.23500061035</ele>
        <time>2009-11-04T12:57:44Z</time>
      </trkpt>
      <trkpt lat="45.12099" lon="4.9948">
        <ele>217.84899902344</ele>
        <time>2009-11-04T12:57:52Z</time>
      </trkpt>
      <trkpt lat="45.12069" lon="4.99533">
        <ele>219.97200012207</ele>
        <time>2009-11-04T12:58:01Z</time>
      </trkpt>
      <trkpt lat="45.12037" lon="4.99593">
        <ele>219.84100341797</ele>
        <time>2009-11-04T12:58:11Z</time>
      </trkpt>
      <trkpt lat="45.12005" lon="4.99649">
        <ele>219.75</ele>
        <time>2009-11-04T12:58:20Z</time>
      </trkpt>
      <trkpt lat="45.11963" lon="4.99725">
        <ele>219.35800170898</ele>
        <time>2009-11-04T12:58:31Z</time>
      </trkpt>
      <trkpt lat="45.11927" lon="4.99783">
        <ele>219.90400695801</ele>
        <time>2009-11-04T12:58:40Z</time>
      </trkpt>
      <trkpt lat="45.11893" lon="4.99823">
        <ele>221.38200378418</ele>
        <time>2009-11-04T12:58:48Z</time>
      </trkpt>
      <trkpt lat="45.11855" lon="4.99854">
        <ele>223.69000244141</ele>
        <time>2009-11-04T12:58:57Z</time>
      </trkpt>
      <trkpt lat="45.11821" lon="4.9987">
        <ele>226.44599914551</ele>
        <time>2009-11-04T12:59:05Z</time>
      </trkpt>
      <trkpt lat="45.11789" lon="4.99883">
        <ele>228.33399963379</ele>
        <time>2009-11-04T12:59:13Z</time>
      </trkpt>
      <trkpt lat="45.1175" lon="4.99898">
        <ele>230.78199768066</ele>
        <time>2009-11-04T12:59:22Z</time>
      </trkpt>
      <trkpt lat="45.11712" lon="4.99913">
        <ele>233.51300048828</ele>
        <time>2009-11-04T12:59:31Z</time>
      </trkpt>
      <trkpt lat="45.11676" lon="4.99933">
        <ele>236.11999511719</ele>
        <time>2009-11-04T12:59:40Z</time>
      </trkpt>
      <trkpt lat="45.11645" lon="4.99961">
        <ele>238.46699523926</ele>
        <time>2009-11-04T12:59:49Z</time>
      </trkpt>
      <trkpt lat="45.11616" lon="4.99999">
        <ele>240.38200378418</ele>
        <time>2009-11-04T12:59:58Z</time>
      </trkpt>
      <trkpt lat="45.11588" lon="5.00036">
        <ele>241.28100585938</ele>
        <time>2009-11-04T13:00:06Z</time>
      </trkpt>
      <trkpt lat="45.11554" lon="5.00078">
        <ele>242.59300231934</ele>
        <time>2009-11-04T13:00:15Z</time>
      </trkpt>
      <trkpt lat="45.11523" lon="5.00109">
        <ele>243.11099243164</ele>
        <time>2009-11-04T13:00:22Z</time>
      </trkpt>
      <trkpt lat="45.1148" lon="5.0015">
        <ele>242.61599731445</ele>
        <time>2009-11-04T13:00:31Z</time>
      </trkpt>
      <trkpt lat="45.1144" lon="5.00187">
        <ele>242.82499694824</ele>
        <time>2009-11-04T13:00:39Z</time>
      </trkpt>
      <trkpt lat="45.11382" lon="5.0024">
        <ele>243.22200012207</ele>
        <time>2009-11-04T13:00:50Z</time>
      </trkpt>
      <trkpt lat="45.11322" lon="5.00292">
        <ele>243.87199401856</ele>
        <time>2009-11-04T13:01:01Z</time>
      </trkpt>
      <trkpt lat="45.11273" lon="5.00327">
        <ele>244.96000671387</ele>
        <time>2009-11-04T13:01:10Z</time>
      </trkpt>
      <trkpt lat="45.11225" lon="5.00353">
        <ele>247.09899902344</ele>
        <time>2009-11-04T13:01:19Z</time>
      </trkpt>
      <trkpt lat="45.11169" lon="5.00381">
        <ele>249.78199768066</ele>
        <time>2009-11-04T13:01:30Z</time>
      </trkpt>
      <trkpt lat="45.11112" lon="5.00411">
        <ele>253.21200561523</ele>
        <time>2009-11-04T13:01:42Z</time>
      </trkpt>
      <trkpt lat="45.11071" lon="5.00436">
        <ele>255.60800170898</ele>
        <time>2009-11-04T13:01:51Z</time>
      </trkpt>
      <trkpt lat="45.11026" lon="5.00464">
        <ele>258.11599731445</ele>
        <time>2009-11-04T13:02:01Z</time>
      </trkpt>
      <trkpt lat="45.10982" lon="5.00496">
        <ele>260.77600097656</ele>
        <time>2009-11-04T13:02:11Z</time>
      </trkpt>
      <trkpt lat="45.10942" lon="5.00527">
        <ele>262.35101318359</ele>
        <time>2009-11-04T13:02:20Z</time>
      </trkpt>
      <trkpt lat="45.10902" lon="5.0055">
        <ele>262.05700683594</ele>
        <time>2009-11-04T13:02:28Z</time>
      </trkpt>
      <trkpt lat="45.10863" lon="5.00565">
        <ele>260.75299072266</ele>
        <time>2009-11-04T13:02:34Z</time>
      </trkpt>
      <trkpt lat="45.10815" lon="5.00573">
        <ele>257.76300048828</ele>
        <time>2009-11-04T13:02:40Z</time>
      </trkpt>
      <trkpt lat="45.10806" lon="5.00574">
        <ele>257.54901123047</ele>
        <time>2009-11-04T13:02:41Z</time>
      </trkpt>
      <trkpt lat="45.10778" lon="5.00578">
        <ele>256.05999755859</ele>
        <time>2009-11-04T13:02:44Z</time>
      </trkpt>
      <trkpt lat="45.10716" lon="5.00589">
        <ele>252.36799621582</ele>
        <time>2009-11-04T13:02:50Z</time>
      </trkpt>
      <trkpt lat="45.1066" lon="5.00607">
        <ele>250.04100036621</ele>
        <time>2009-11-04T13:02:55Z</time>
      </trkpt>
      <trkpt lat="45.10606" lon="5.00639">
        <ele>246.51300048828</ele>
        <time>2009-11-04T13:03:00Z</time>
      </trkpt>
      <trkpt lat="45.10595" lon="5.00647">
        <ele>246.41400146484</ele>
        <time>2009-11-04T13:03:01Z</time>
      </trkpt>
      <trkpt lat="45.1051" lon="5.00716">
        <ele>240.9049987793</ele>
        <time>2009-11-04T13:03:09Z</time>
      </trkpt>
      <trkpt lat="45.10459" lon="5.00758">
        <ele>239.17900085449</ele>
        <time>2009-11-04T13:03:14Z</time>
      </trkpt>
      <trkpt lat="45.10449" lon="5.00766">
        <ele>238.79699707031</ele>
        <time>2009-11-04T13:03:15Z</time>
      </trkpt>
      <trkpt lat="45.10385" lon="5.00816">
        <ele>238.29800415039</ele>
        <time>2009-11-04T13:03:22Z</time>
      </trkpt>
      <trkpt lat="45.10331" lon="5.00859">
        <ele>238.76800537109</ele>
        <time>2009-11-04T13:03:29Z</time>
      </trkpt>
      <trkpt lat="45.10276" lon="5.00903">
        <ele>239.58599853516</ele>
        <time>2009-11-04T13:03:37Z</time>
      </trkpt>
      <trkpt lat="45.10215" lon="5.00956">
        <ele>240.81799316406</ele>
        <time>2009-11-04T13:03:47Z</time>
      </trkpt>
      <trkpt lat="45.10175" lon="5.0101">
        <ele>241.74699401856</ele>
        <time>2009-11-04T13:03:55Z</time>
      </trkpt>
      <trkpt lat="45.10134" lon="5.01074">
        <ele>243.0299987793</ele>
        <time>2009-11-04T13:04:04Z</time>
      </trkpt>
      <trkpt lat="45.10098" lon="5.0114">
        <ele>244.36599731445</ele>
        <time>2009-11-04T13:04:13Z</time>
      </trkpt>
      <trkpt lat="45.1008" lon="5.01202">
        <ele>244.80999755859</ele>
        <time>2009-11-04T13:04:20Z</time>
      </trkpt>
      <trkpt lat="45.10071" lon="5.01269">
        <ele>245.16400146484</ele>
        <time>2009-11-04T13:04:27Z</time>
      </trkpt>
      <trkpt lat="45.10068" lon="5.01318">
        <ele>245.30000305176</ele>
        <time>2009-11-04T13:04:32Z</time>
      </trkpt>
      <trkpt lat="45.10061" lon="5.01423">
        <ele>244.88900756836</ele>
        <time>2009-11-04T13:04:42Z</time>
      </trkpt>
      <trkpt lat="45.10052" lon="5.01538">
        <ele>243.93200683594</ele>
        <time>2009-11-04T13:04:53Z</time>
      </trkpt>
      <trkpt lat="45.1004" lon="5.0164">
        <ele>243.35099792481</ele>
        <time>2009-11-04T13:05:03Z</time>
      </trkpt>
      <trkpt lat="45.10024" lon="5.01709">
        <ele>243.0890045166</ele>
        <time>2009-11-04T13:05:10Z</time>
      </trkpt>
      <trkpt lat="45.09992" lon="5.01799">
        <ele>244.72900390625</ele>
        <time>2009-11-04T13:05:20Z</time>
      </trkpt>
      <trkpt lat="45.09967" lon="5.01871">
        <ele>246.19900512695</ele>
        <time>2009-11-04T13:05:29Z</time>
      </trkpt>
      <trkpt lat="45.09941" lon="5.01946">
        <ele>248.34599304199</ele>
        <time>2009-11-04T13:05:39Z</time>
      </trkpt>
      <trkpt lat="45.09917" lon="5.02019">
        <ele>250.49499511719</ele>
        <time>2009-11-04T13:05:49Z</time>
      </trkpt>
      <trkpt lat="45.09889" lon="5.02098">
        <ele>253.77699279785</ele>
        <time>2009-11-04T13:06:00Z</time>
      </trkpt>
      <trkpt lat="45.09869" lon="5.02154">
        <ele>255.92599487305</ele>
        <time>2009-11-04T13:06:09Z</time>
      </trkpt>
      <trkpt lat="45.09849" lon="5.02209">
        <ele>258.53100585938</ele>
        <time>2009-11-04T13:06:18Z</time>
      </trkpt>
      <trkpt lat="45.0984" lon="5.02246">
        <ele>260.2619934082</ele>
        <time>2009-11-04T13:06:24Z</time>
      </trkpt>
      <trkpt lat="45.0984" lon="5.02279">
        <ele>261.73098754883</ele>
        <time>2009-11-04T13:06:29Z</time>
      </trkpt>
      <trkpt lat="45.0985" lon="5.02316">
        <ele>263.46701049805</ele>
        <time>2009-11-04T13:06:35Z</time>
      </trkpt>
      <trkpt lat="45.09866" lon="5.02369">
        <ele>265.30899047852</ele>
        <time>2009-11-04T13:06:44Z</time>
      </trkpt>
      <trkpt lat="45.09874" lon="5.02394">
        <ele>266.16299438477</ele>
        <time>2009-11-04T13:06:48Z</time>
      </trkpt>
      <trkpt lat="45.09895" lon="5.02451">
        <ele>265.39999389648</ele>
        <time>2009-11-04T13:06:56Z</time>
      </trkpt>
      <trkpt lat="45.09898" lon="5.0246">
        <ele>264.27200317383</ele>
        <time>2009-11-04T13:06:57Z</time>
      </trkpt>
      <trkpt lat="45.09908" lon="5.02487">
        <ele>262.77801513672</ele>
        <time>2009-11-04T13:07:00Z</time>
      </trkpt>
      <trkpt lat="45.09931" lon="5.02534">
        <ele>260.04400634766</ele>
        <time>2009-11-04T13:07:05Z</time>
      </trkpt>
      <trkpt lat="45.09944" lon="5.02551">
        <ele>258.8630065918</ele>
        <time>2009-11-04T13:07:07Z</time>
      </trkpt>
      <trkpt lat="45.09967" lon="5.02579">
        <ele>257.35900878906</ele>
        <time>2009-11-04T13:07:10Z</time>
      </trkpt>
      <trkpt lat="45.09976" lon="5.02604">
        <ele>256.18798828125</ele>
        <time>2009-11-04T13:07:12Z</time>
      </trkpt>
      <trkpt lat="45.09986" lon="5.02644">
        <ele>254.83700561523</ele>
        <time>2009-11-04T13:07:15Z</time>
      </trkpt>
      <trkpt lat="45.0999" lon="5.02657">
        <ele>254.16999816894</ele>
        <time>2009-11-04T13:07:16Z</time>
      </trkpt>
      <trkpt lat="45.10021" lon="5.02697">
        <ele>251.97099304199</ele>
        <time>2009-11-04T13:07:20Z</time>
      </trkpt>
      <trkpt lat="45.1003" lon="5.02706">
        <ele>251.07600402832</ele>
        <time>2009-11-04T13:07:21Z</time>
      </trkpt>
      <trkpt lat="45.10045" lon="5.02727">
        <ele>249.60099792481</ele>
        <time>2009-11-04T13:07:23Z</time>
      </trkpt>
      <trkpt lat="45.10061" lon="5.02775">
        <ele>247.08599853516</ele>
        <time>2009-11-04T13:07:27Z</time>
      </trkpt>
      <trkpt lat="45.10055" lon="5.0281">
        <ele>244.18800354004</ele>
        <time>2009-11-04T13:07:30Z</time>
      </trkpt>
      <trkpt lat="45.10047" lon="5.02826">
        <ele>242.59399414062</ele>
        <time>2009-11-04T13:07:32Z</time>
      </trkpt>
      <trkpt lat="45.10039" lon="5.02846">
        <ele>241.30700683594</ele>
        <time>2009-11-04T13:07:35Z</time>
      </trkpt>
      <trkpt lat="45.10042" lon="5.02876">
        <ele>240.29499816894</ele>
        <time>2009-11-04T13:07:39Z</time>
      </trkpt>
      <trkpt lat="45.10035" lon="5.02914">
        <ele>238.38299560547</ele>
        <time>2009-11-04T13:07:43Z</time>
      </trkpt>
      <trkpt lat="45.10029" lon="5.02934">
        <ele>237.27400207519</ele>
        <time>2009-11-04T13:07:45Z</time>
      </trkpt>
      <trkpt lat="45.10019" lon="5.02966">
        <ele>235.74499511719</ele>
        <time>2009-11-04T13:07:48Z</time>
      </trkpt>
      <trkpt lat="45.10003" lon="5.03023">
        <ele>233.34800720215</ele>
        <time>2009-11-04T13:07:53Z</time>
      </trkpt>
      <trkpt lat="45.09974" lon="5.03123">
        <ele>230.90800476074</ele>
        <time>2009-11-04T13:08:02Z</time>
      </trkpt>
      <trkpt lat="45.09953" lon="5.03196">
        <ele>230.125</ele>
        <time>2009-11-04T13:08:09Z</time>
      </trkpt>
      <trkpt lat="45.09935" lon="5.03262">
        <ele>226.97500610352</ele>
        <time>2009-11-04T13:08:15Z</time>
      </trkpt>
      <trkpt lat="45.09911" lon="5.03346">
        <ele>223.19099426269</ele>
        <time>2009-11-04T13:08:22Z</time>
      </trkpt>
      <trkpt lat="45.09888" lon="5.03423">
        <ele>221.19700622559</ele>
        <time>2009-11-04T13:08:28Z</time>
      </trkpt>
      <trkpt lat="45.09866" lon="5.03466">
        <ele>221.52299499512</ele>
        <time>2009-11-04T13:08:32Z</time>
      </trkpt>
      <trkpt lat="45.09824" lon="5.03525">
        <ele>222.21899414062</ele>
        <time>2009-11-04T13:08:39Z</time>
      </trkpt>
      <trkpt lat="45.09794" lon="5.03575">
        <ele>223.45700073242</ele>
        <time>2009-11-04T13:08:45Z</time>
      </trkpt>
      <trkpt lat="45.0979" lon="5.03584">
        <ele>223.61599731445</ele>
        <time>2009-11-04T13:08:46Z</time>
      </trkpt>
      <trkpt lat="45.09779" lon="5.03641">
        <ele>224.52000427246</ele>
        <time>2009-11-04T13:08:52Z</time>
      </trkpt>
      <trkpt lat="45.0978" lon="5.03651">
        <ele>224.50399780273</ele>
        <time>2009-11-04T13:08:53Z</time>
      </trkpt>
      <trkpt lat="45.09792" lon="5.03725">
        <ele>222.29899597168</ele>
        <time>2009-11-04T13:09:00Z</time>
      </trkpt>
      <trkpt lat="45.09808" lon="5.03806">
        <ele>221.28999328613</ele>
        <time>2009-11-04T13:09:07Z</time>
      </trkpt>
      <trkpt lat="45.0983" lon="5.03869">
        <ele>220.46000671387</ele>
        <time>2009-11-04T13:09:13Z</time>
      </trkpt>
      <trkpt lat="45.09866" lon="5.03955">
        <ele>220.07499694824</ele>
        <time>2009-11-04T13:09:22Z</time>
      </trkpt>
      <trkpt lat="45.09876" lon="5.03984">
        <ele>218.79600524902</ele>
        <time>2009-11-04T13:09:25Z</time>
      </trkpt>
      <trkpt lat="45.09881" lon="5.04026">
        <ele>219.76499938965</ele>
        <time>2009-11-04T13:09:29Z</time>
      </trkpt>
      <trkpt lat="45.09879" lon="5.04047">
        <ele>219.7140045166</ele>
        <time>2009-11-04T13:09:31Z</time>
      </trkpt>
      <trkpt lat="45.09858" lon="5.04129">
        <ele>219.22300720215</ele>
        <time>2009-11-04T13:09:39Z</time>
      </trkpt>
      <trkpt lat="45.09835" lon="5.0417">
        <ele>219.75</ele>
        <time>2009-11-04T13:09:44Z</time>
      </trkpt>
      <trkpt lat="45.09782" lon="5.04224">
        <ele>219.59300231934</ele>
        <time>2009-11-04T13:09:53Z</time>
      </trkpt>
      <trkpt lat="45.09716" lon="5.04289">
        <ele>220.8450012207</ele>
        <time>2009-11-04T13:10:04Z</time>
      </trkpt>
      <trkpt lat="45.09667" lon="5.04343">
        <ele>222.55599975586</ele>
        <time>2009-11-04T13:10:13Z</time>
      </trkpt>
      <trkpt lat="45.09644" lon="5.04388">
        <ele>223.13499450684</ele>
        <time>2009-11-04T13:10:19Z</time>
      </trkpt>
      <trkpt lat="45.09625" lon="5.0445">
        <ele>222.2440032959</ele>
        <time>2009-11-04T13:10:26Z</time>
      </trkpt>
      <trkpt lat="45.09614" lon="5.04487">
        <ele>221.30599975586</ele>
        <time>2009-11-04T13:10:30Z</time>
      </trkpt>
      <trkpt lat="45.09607" lon="5.0452">
        <ele>219.99099731445</ele>
        <time>2009-11-04T13:10:34Z</time>
      </trkpt>
      <trkpt lat="45.09606" lon="5.04524">
        <ele>219.74899291992</ele>
        <time>2009-11-04T13:10:35Z</time>
      </trkpt>
      <trkpt lat="45.09602" lon="5.04529">
        <ele>219.13600158691</ele>
        <time>2009-11-04T13:10:37Z</time>
      </trkpt>
      <trkpt lat="45.09586" lon="5.04563">
        <ele>218.80999755859</ele>
        <time>2009-11-04T13:10:43Z</time>
      </trkpt>
      <trkpt lat="45.09575" lon="5.04586">
        <ele>218.33500671387</ele>
        <time>2009-11-04T13:10:46Z</time>
      </trkpt>
      <trkpt lat="45.09553" lon="5.0461">
        <ele>217.38400268555</ele>
        <time>2009-11-04T13:10:50Z</time>
      </trkpt>
      <trkpt lat="45.09504" lon="5.04636">
        <ele>216.50999450684</ele>
        <time>2009-11-04T13:10:57Z</time>
      </trkpt>
      <trkpt lat="45.09459" lon="5.04657">
        <ele>215.32600402832</ele>
        <time>2009-11-04T13:11:03Z</time>
      </trkpt>
      <trkpt lat="45.09403" lon="5.04681">
        <ele>213.95300292969</ele>
        <time>2009-11-04T13:11:10Z</time>
      </trkpt>
      <trkpt lat="45.09349" lon="5.04715">
        <ele>213.03199768066</ele>
        <time>2009-11-04T13:11:17Z</time>
      </trkpt>
      <trkpt lat="45.09314" lon="5.04745">
        <ele>211.68600463867</ele>
        <time>2009-11-04T13:11:22Z</time>
      </trkpt>
      <trkpt lat="45.09296" lon="5.04777">
        <ele>211.31799316406</ele>
        <time>2009-11-04T13:11:26Z</time>
      </trkpt>
      <trkpt lat="45.09296" lon="5.04789">
        <ele>211.35000610352</ele>
        <time>2009-11-04T13:11:27Z</time>
      </trkpt>
      <trkpt lat="45.09297" lon="5.04838">
        <ele>211.95199584961</ele>
        <time>2009-11-04T13:11:32Z</time>
      </trkpt>
      <trkpt lat="45.09297" lon="5.04854">
        <ele>210.94400024414</ele>
        <time>2009-11-04T13:11:34Z</time>
      </trkpt>
      <trkpt lat="45.09292" lon="5.04888">
        <ele>210.63800048828</ele>
        <time>2009-11-04T13:11:38Z</time>
      </trkpt>
      <trkpt lat="45.09284" lon="5.04908">
        <ele>211.47399902344</ele>
        <time>2009-11-04T13:11:41Z</time>
      </trkpt>
      <trkpt lat="45.09261" lon="5.04945">
        <ele>212.75300598144</ele>
        <time>2009-11-04T13:11:48Z</time>
      </trkpt>
      <trkpt lat="45.09241" lon="5.04976">
        <ele>213.86099243164</ele>
        <time>2009-11-04T13:11:54Z</time>
      </trkpt>
      <trkpt lat="45.09234" lon="5.05009">
        <ele>214.82800292969</ele>
        <time>2009-11-04T13:11:59Z</time>
      </trkpt>
      <trkpt lat="45.09242" lon="5.0506">
        <ele>215.93800354004</ele>
        <time>2009-11-04T13:12:06Z</time>
      </trkpt>
      <trkpt lat="45.09254" lon="5.05093">
        <ele>216.84800720215</ele>
        <time>2009-11-04T13:12:11Z</time>
      </trkpt>
      <trkpt lat="45.0927" lon="5.0513">
        <ele>218.03799438477</ele>
        <time>2009-11-04T13:12:17Z</time>
      </trkpt>
      <trkpt lat="45.09287" lon="5.05162">
        <ele>218.15899658203</ele>
        <time>2009-11-04T13:12:22Z</time>
      </trkpt>
      <trkpt lat="45.09313" lon="5.05208">
        <ele>217.92700195312</ele>
        <time>2009-11-04T13:12:29Z</time>
      </trkpt>
      <trkpt lat="45.09353" lon="5.05276">
        <ele>217.65699768066</ele>
        <time>2009-11-04T13:12:39Z</time>
      </trkpt>
      <trkpt lat="45.0938" lon="5.05324">
        <ele>217.52400207519</ele>
        <time>2009-11-04T13:12:46Z</time>
      </trkpt>
      <trkpt lat="45.09403" lon="5.05381">
        <ele>217.95100402832</ele>
        <time>2009-11-04T13:12:54Z</time>
      </trkpt>
      <trkpt lat="45.0941" lon="5.05404">
        <ele>217.92700195312</ele>
        <time>2009-11-04T13:12:57Z</time>
      </trkpt>
      <trkpt lat="45.0942" lon="5.0547">
        <ele>218.34100341797</ele>
        <time>2009-11-04T13:13:05Z</time>
      </trkpt>
      <trkpt lat="45.09427" lon="5.05557">
        <ele>218.83299255371</ele>
        <time>2009-11-04T13:13:15Z</time>
      </trkpt>
      <trkpt lat="45.09428" lon="5.05634">
        <ele>219.38600158691</ele>
        <time>2009-11-04T13:13:24Z</time>
      </trkpt>
      <trkpt lat="45.09419" lon="5.05709">
        <ele>218.10899353027</ele>
        <time>2009-11-04T13:13:32Z</time>
      </trkpt>
      <trkpt lat="45.09404" lon="5.05788">
        <ele>217.49099731445</ele>
        <time>2009-11-04T13:13:40Z</time>
      </trkpt>
      <trkpt lat="45.09382" lon="5.05871">
        <ele>216.93099975586</ele>
        <time>2009-11-04T13:13:49Z</time>
      </trkpt>
      <trkpt lat="45.09371" lon="5.05949">
        <ele>216.83999633789</ele>
        <time>2009-11-04T13:13:57Z</time>
      </trkpt>
      <trkpt lat="45.09364" lon="5.06034">
        <ele>217.60800170898</ele>
        <time>2009-11-04T13:14:06Z</time>
      </trkpt>
      <trkpt lat="45.09361" lon="5.06119">
        <ele>217.77799987793</ele>
        <time>2009-11-04T13:14:15Z</time>
      </trkpt>
      <trkpt lat="45.09364" lon="5.06194">
        <ele>218.80999755859</ele>
        <time>2009-11-04T13:14:23Z</time>
      </trkpt>
      <trkpt lat="45.09367" lon="5.06245">
        <ele>218.9700012207</ele>
        <time>2009-11-04T13:14:29Z</time>
      </trkpt>
      <trkpt lat="45.09381" lon="5.06259">
        <ele>220.25799560547</ele>
        <time>2009-11-04T13:14:33Z</time>
      </trkpt>
      <trkpt lat="45.09386" lon="5.06258">
        <ele>220.24200439453</ele>
        <time>2009-11-04T13:14:34Z</time>
      </trkpt>
      <trkpt lat="45.09394" lon="5.06257">
        <ele>220.41499328613</ele>
        <time>2009-11-04T13:14:36Z</time>
      </trkpt>
      <trkpt lat="45.09435" lon="5.06256">
        <ele>221.31900024414</ele>
        <time>2009-11-04T13:14:46Z</time>
      </trkpt>
      <trkpt lat="45.09462" lon="5.06254">
        <ele>221.83799743652</ele>
        <time>2009-11-04T13:14:53Z</time>
      </trkpt>
      <trkpt lat="45.09487" lon="5.06254">
        <ele>222.90600585938</ele>
        <time>2009-11-04T13:15:00Z</time>
      </trkpt>
      <trkpt lat="45.09526" lon="5.06254">
        <ele>224.31100463867</ele>
        <time>2009-11-04T13:15:10Z</time>
      </trkpt>
      <trkpt lat="45.09559" lon="5.06254">
        <ele>225.87199401856</ele>
        <time>2009-11-04T13:15:19Z</time>
      </trkpt>
      <trkpt lat="45.09584" lon="5.06259">
        <ele>227.59599304199</ele>
        <time>2009-11-04T13:15:26Z</time>
      </trkpt>
      <trkpt lat="45.09604" lon="5.06268">
        <ele>228.64799499512</ele>
        <time>2009-11-04T13:15:32Z</time>
      </trkpt>
      <trkpt lat="45.09619" lon="5.06269">
        <ele>230.36700439453</ele>
        <time>2009-11-04T13:15:37Z</time>
      </trkpt>
      <trkpt lat="45.09633" lon="5.06265">
        <ele>232.23599243164</ele>
        <time>2009-11-04T13:15:42Z</time>
      </trkpt>
      <trkpt lat="45.09636" lon="5.06264">
        <ele>232.5</ele>
        <time>2009-11-04T13:15:43Z</time>
      </trkpt>
      <trkpt lat="45.0965" lon="5.06254">
        <ele>234.2440032959</ele>
        <time>2009-11-04T13:15:49Z</time>
      </trkpt>
      <trkpt lat="45.09661" lon="5.06247">
        <ele>235.03500366211</ele>
        <time>2009-11-04T13:15:53Z</time>
      </trkpt>
      <trkpt lat="45.09683" lon="5.06233">
        <ele>236.47599792481</ele>
        <time>2009-11-04T13:16:01Z</time>
      </trkpt>
      <trkpt lat="45.09697" lon="5.06224">
        <ele>237.57000732422</ele>
        <time>2009-11-04T13:16:06Z</time>
      </trkpt>
      <trkpt lat="45.09713" lon="5.06216">
        <ele>238.85099792481</ele>
        <time>2009-11-04T13:16:12Z</time>
      </trkpt>
      <trkpt lat="45.09727" lon="5.06211">
        <ele>240.48199462891</ele>
        <time>2009-11-04T13:16:17Z</time>
      </trkpt>
      <trkpt lat="45.0974" lon="5.06211">
        <ele>242.14100646973</ele>
        <time>2009-11-04T13:16:22Z</time>
      </trkpt>
      <trkpt lat="45.0976" lon="5.0621">
        <ele>243.20399475098</ele>
        <time>2009-11-04T13:16:29Z</time>
      </trkpt>
      <trkpt lat="45.09781" lon="5.06208">
        <ele>244.95399475098</ele>
        <time>2009-11-04T13:16:36Z</time>
      </trkpt>
      <trkpt lat="45.09801" lon="5.06202">
        <ele>246.125</ele>
        <time>2009-11-04T13:16:43Z</time>
      </trkpt>
      <trkpt lat="45.09827" lon="5.06197">
        <ele>248.01800537109</ele>
        <time>2009-11-04T13:16:51Z</time>
      </trkpt>
      <trkpt lat="45.09855" lon="5.06201">
        <ele>250.61700439453</ele>
        <time>2009-11-04T13:17:00Z</time>
      </trkpt>
      <trkpt lat="45.09879" lon="5.06208">
        <ele>251.86399841309</ele>
        <time>2009-11-04T13:17:08Z</time>
      </trkpt>
      <trkpt lat="45.09896" lon="5.06217">
        <ele>252.89599609375</ele>
        <time>2009-11-04T13:17:14Z</time>
      </trkpt>
      <trkpt lat="45.09918" lon="5.06226">
        <ele>253.76300048828</ele>
        <time>2009-11-04T13:17:21Z</time>
      </trkpt>
      <trkpt lat="45.0994" lon="5.06231">
        <ele>254.02099609375</ele>
        <time>2009-11-04T13:17:27Z</time>
      </trkpt>
      <trkpt lat="45.09966" lon="5.06239">
        <ele>254.53799438477</ele>
        <time>2009-11-04T13:17:34Z</time>
      </trkpt>
      <trkpt lat="45.09984" lon="5.06245">
        <ele>255.24699401856</ele>
        <time>2009-11-04T13:17:39Z</time>
      </trkpt>
      <trkpt lat="45.10007" lon="5.06255">
        <ele>255.56900024414</ele>
        <time>2009-11-04T13:17:45Z</time>
      </trkpt>
      <trkpt lat="45.1003" lon="5.06265">
        <ele>256.33801269531</ele>
        <time>2009-11-04T13:17:51Z</time>
      </trkpt>
      <trkpt lat="45.10051" lon="5.06274">
        <ele>256.9169921875</ele>
        <time>2009-11-04T13:17:57Z</time>
      </trkpt>
      <trkpt lat="45.10066" lon="5.0629">
        <ele>257.52301025391</ele>
        <time>2009-11-04T13:18:02Z</time>
      </trkpt>
      <trkpt lat="45.10083" lon="5.06324">
        <ele>258.67199707031</ele>
        <time>2009-11-04T13:18:10Z</time>
      </trkpt>
      <trkpt lat="45.10093" lon="5.06348">
        <ele>258.85000610352</ele>
        <time>2009-11-04T13:18:15Z</time>
      </trkpt>
      <trkpt lat="45.10107" lon="5.06389">
        <ele>259.9460144043</ele>
        <time>2009-11-04T13:18:23Z</time>
      </trkpt>
      <trkpt lat="45.10118" lon="5.0643">
        <ele>261.19799804688</ele>
        <time>2009-11-04T13:18:31Z</time>
      </trkpt>
      <trkpt lat="45.10129" lon="5.06476">
        <ele>262.60000610352</ele>
        <time>2009-11-04T13:18:40Z</time>
      </trkpt>
      <trkpt lat="45.10136" lon="5.06504">
        <ele>263.67300415039</ele>
        <time>2009-11-04T13:18:46Z</time>
      </trkpt>
      <trkpt lat="45.10149" lon="5.06529">
        <ele>264.5299987793</ele>
        <time>2009-11-04T13:18:52Z</time>
      </trkpt>
      <trkpt lat="45.10166" lon="5.06545">
        <ele>266.62100219727</ele>
        <time>2009-11-04T13:18:58Z</time>
      </trkpt>
      <trkpt lat="45.10178" lon="5.06545">
        <ele>268.15899658203</ele>
        <time>2009-11-04T13:19:03Z</time>
      </trkpt>
      <trkpt lat="45.10193" lon="5.06546">
        <ele>269.43701171875</ele>
        <time>2009-11-04T13:19:08Z</time>
      </trkpt>
      <trkpt lat="45.10207" lon="5.06544">
        <ele>271.28201293945</ele>
        <time>2009-11-04T13:19:13Z</time>
      </trkpt>
      <trkpt lat="45.1022" lon="5.06539">
        <ele>272.31201171875</ele>
        <time>2009-11-04T13:19:18Z</time>
      </trkpt>
      <trkpt lat="45.10229" lon="5.06528">
        <ele>273.70098876953</ele>
        <time>2009-11-04T13:19:23Z</time>
      </trkpt>
      <trkpt lat="45.10237" lon="5.06517">
        <ele>274.73699951172</ele>
        <time>2009-11-04T13:19:27Z</time>
      </trkpt>
      <trkpt lat="45.10245" lon="5.06502">
        <ele>276.19799804688</ele>
        <time>2009-11-04T13:19:32Z</time>
      </trkpt>
      <trkpt lat="45.10254" lon="5.06484">
        <ele>278.0539855957</ele>
        <time>2009-11-04T13:19:38Z</time>
      </trkpt>
      <trkpt lat="45.10257" lon="5.06474">
        <ele>278.9169921875</ele>
        <time>2009-11-04T13:19:41Z</time>
      </trkpt>
      <trkpt lat="45.1026" lon="5.06468">
        <ele>279.64401245117</ele>
        <time>2009-11-04T13:19:43Z</time>
      </trkpt>
      <trkpt lat="45.1027" lon="5.06448">
        <ele>281.56900024414</ele>
        <time>2009-11-04T13:19:50Z</time>
      </trkpt>
      <trkpt lat="45.10281" lon="5.06435">
        <ele>283.41598510742</ele>
        <time>2009-11-04T13:19:56Z</time>
      </trkpt>
      <trkpt lat="45.10293" lon="5.06425">
        <ele>285.27099609375</ele>
        <time>2009-11-04T13:20:02Z</time>
      </trkpt>
      <trkpt lat="45.10308" lon="5.06412">
        <ele>286.97698974609</ele>
        <time>2009-11-04T13:20:09Z</time>
      </trkpt>
      <trkpt lat="45.10321" lon="5.06395">
        <ele>288.34298706055</ele>
        <time>2009-11-04T13:20:16Z</time>
      </trkpt>
      <trkpt lat="45.10329" lon="5.06377">
        <ele>289.90399169922</ele>
        <time>2009-11-04T13:20:22Z</time>
      </trkpt>
      <trkpt lat="45.10337" lon="5.06351">
        <ele>291.76599121094</ele>
        <time>2009-11-04T13:20:30Z</time>
      </trkpt>
      <trkpt lat="45.10342" lon="5.06332">
        <ele>293.1369934082</ele>
        <time>2009-11-04T13:20:36Z</time>
      </trkpt>
      <trkpt lat="45.10345" lon="5.06313">
        <ele>294.74301147461</ele>
        <time>2009-11-04T13:20:42Z</time>
      </trkpt>
      <trkpt lat="45.10347" lon="5.06293">
        <ele>295.61999511719</ele>
        <time>2009-11-04T13:20:48Z</time>
      </trkpt>
      <trkpt lat="45.10351" lon="5.0627">
        <ele>298.40600585938</ele>
        <time>2009-11-04T13:20:55Z</time>
      </trkpt>
      <trkpt lat="45.10359" lon="5.06255">
        <ele>300.24099731445</ele>
        <time>2009-11-04T13:21:01Z</time>
      </trkpt>
      <trkpt lat="45.10374" lon="5.06249">
        <ele>302.3630065918</ele>
        <time>2009-11-04T13:21:08Z</time>
      </trkpt>
      <trkpt lat="45.10388" lon="5.06248">
        <ele>304.1669921875</ele>
        <time>2009-11-04T13:21:14Z</time>
      </trkpt>
      <trkpt lat="45.10398" lon="5.0625">
        <ele>305.45401000977</ele>
        <time>2009-11-04T13:21:19Z</time>
      </trkpt>
      <trkpt lat="45.10413" lon="5.06265">
        <ele>307.31201171875</ele>
        <time>2009-11-04T13:21:26Z</time>
      </trkpt>
      <trkpt lat="45.10427" lon="5.0628">
        <ele>308.8210144043</ele>
        <time>2009-11-04T13:21:33Z</time>
      </trkpt>
      <trkpt lat="45.10443" lon="5.06298">
        <ele>311.02301025391</ele>
        <time>2009-11-04T13:21:42Z</time>
      </trkpt>
      <trkpt lat="45.10456" lon="5.06314">
        <ele>312.97198486328</ele>
        <time>2009-11-04T13:21:49Z</time>
      </trkpt>
      <trkpt lat="45.10474" lon="5.06327">
        <ele>315.31399536133</ele>
        <time>2009-11-04T13:21:57Z</time>
      </trkpt>
      <trkpt lat="45.1049" lon="5.06329">
        <ele>317.34100341797</ele>
        <time>2009-11-04T13:22:04Z</time>
      </trkpt>
      <trkpt lat="45.10506" lon="5.06328">
        <ele>319.38500976562</ele>
        <time>2009-11-04T13:22:12Z</time>
      </trkpt>
      <trkpt lat="45.10522" lon="5.0633">
        <ele>321.46798706055</ele>
        <time>2009-11-04T13:22:20Z</time>
      </trkpt>
      <trkpt lat="45.10537" lon="5.06332">
        <ele>323.18798828125</ele>
        <time>2009-11-04T13:22:27Z</time>
      </trkpt>
      <trkpt lat="45.10547" lon="5.06338">
        <ele>324.40399169922</ele>
        <time>2009-11-04T13:22:32Z</time>
      </trkpt>
      <trkpt lat="45.10561" lon="5.06345">
        <ele>325.95498657227</ele>
        <time>2009-11-04T13:22:38Z</time>
      </trkpt>
      <trkpt lat="45.10571" lon="5.06354">
        <ele>327.32901000977</ele>
        <time>2009-11-04T13:22:44Z</time>
      </trkpt>
      <trkpt lat="45.10585" lon="5.06378">
        <ele>329.21701049805</ele>
        <time>2009-11-04T13:22:53Z</time>
      </trkpt>
      <trkpt lat="45.10592" lon="5.06398">
        <ele>330.75900268555</ele>
        <time>2009-11-04T13:23:00Z</time>
      </trkpt>
      <trkpt lat="45.10601" lon="5.06413">
        <ele>331.68099975586</ele>
        <time>2009-11-04T13:23:06Z</time>
      </trkpt>
      <trkpt lat="45.10608" lon="5.06422">
        <ele>332.61401367188</ele>
        <time>2009-11-04T13:23:11Z</time>
      </trkpt>
      <trkpt lat="45.10613" lon="5.06429">
        <ele>333.67498779297</ele>
        <time>2009-11-04T13:23:16Z</time>
      </trkpt>
      <trkpt lat="45.10622" lon="5.06442">
        <ele>334.83200073242</ele>
        <time>2009-11-04T13:23:22Z</time>
      </trkpt>
      <trkpt lat="45.10639" lon="5.06461">
        <ele>337.53201293945</ele>
        <time>2009-11-04T13:23:32Z</time>
      </trkpt>
      <trkpt lat="45.10649" lon="5.06479">
        <ele>339.20999145508</ele>
        <time>2009-11-04T13:23:39Z</time>
      </trkpt>
      <trkpt lat="45.10656" lon="5.06493">
        <ele>339.94500732422</ele>
        <time>2009-11-04T13:23:44Z</time>
      </trkpt>
      <trkpt lat="45.10656" lon="5.06496">
        <ele>340.22299194336</ele>
        <time>2009-11-04T13:23:45Z</time>
      </trkpt>
      <trkpt lat="45.10663" lon="5.06511">
        <ele>341.80200195312</ele>
        <time>2009-11-04T13:23:51Z</time>
      </trkpt>
      <trkpt lat="45.10667" lon="5.06519">
        <ele>342.27899169922</ele>
        <time>2009-11-04T13:23:54Z</time>
      </trkpt>
      <trkpt lat="45.10675" lon="5.06537">
        <ele>343.60998535156</ele>
        <time>2009-11-04T13:24:01Z</time>
      </trkpt>
      <trkpt lat="45.10686" lon="5.06553">
        <ele>345.31100463867</ele>
        <time>2009-11-04T13:24:09Z</time>
      </trkpt>
      <trkpt lat="45.10696" lon="5.06561">
        <ele>346.58499145508</ele>
        <time>2009-11-04T13:24:15Z</time>
      </trkpt>
      <trkpt lat="45.10705" lon="5.06568">
        <ele>347.94299316406</ele>
        <time>2009-11-04T13:24:21Z</time>
      </trkpt>
      <trkpt lat="45.10717" lon="5.06578">
        <ele>349.8630065918</ele>
        <time>2009-11-04T13:24:28Z</time>
      </trkpt>
      <trkpt lat="45.10731" lon="5.06588">
        <ele>351.22399902344</ele>
        <time>2009-11-04T13:24:35Z</time>
      </trkpt>
      <trkpt lat="45.10744" lon="5.06599">
        <ele>353.08999633789</ele>
        <time>2009-11-04T13:24:42Z</time>
      </trkpt>
      <trkpt lat="45.10754" lon="5.06607">
        <ele>354.59201049805</ele>
        <time>2009-11-04T13:24:48Z</time>
      </trkpt>
      <trkpt lat="45.10765" lon="5.06616">
        <ele>356.42700195312</ele>
        <time>2009-11-04T13:24:55Z</time>
      </trkpt>
      <trkpt lat="45.10776" lon="5.06626">
        <ele>357.30801391602</ele>
        <time>2009-11-04T13:25:00Z</time>
      </trkpt>
      <trkpt lat="45.10789" lon="5.06637">
        <ele>357.65701293945</ele>
        <time>2009-11-04T13:25:07Z</time>
      </trkpt>
      <trkpt lat="45.10802" lon="5.06648">
        <ele>358.16101074219</ele>
        <time>2009-11-04T13:25:15Z</time>
      </trkpt>
      <trkpt lat="45.10815" lon="5.06659">
        <ele>359.37399291992</ele>
        <time>2009-11-04T13:25:23Z</time>
      </trkpt>
      <trkpt lat="45.10822" lon="5.06663">
        <ele>359.75</ele>
        <time>2009-11-04T13:25:27Z</time>
      </trkpt>
      <trkpt lat="45.10833" lon="5.06667">
        <ele>360.41299438477</ele>
        <time>2009-11-04T13:25:33Z</time>
      </trkpt>
      <trkpt lat="45.10838" lon="5.06666">
        <ele>361.0419921875</ele>
        <time>2009-11-04T13:25:36Z</time>
      </trkpt>
      <trkpt lat="45.10843" lon="5.06662">
        <ele>362.3030090332</ele>
        <time>2009-11-04T13:25:40Z</time>
      </trkpt>
      <trkpt lat="45.10849" lon="5.06651">
        <ele>362.84600830078</ele>
        <time>2009-11-04T13:25:46Z</time>
      </trkpt>
      <trkpt lat="45.10854" lon="5.06642">
        <ele>362.8030090332</ele>
        <time>2009-11-04T13:25:52Z</time>
      </trkpt>
      <trkpt lat="45.10855" lon="5.0664">
        <ele>362.83700561523</ele>
        <time>2009-11-04T13:25:53Z</time>
      </trkpt>
      <trkpt lat="45.1086" lon="5.06634">
        <ele>363.08599853516</ele>
        <time>2009-11-04T13:25:58Z</time>
      </trkpt>
      <trkpt lat="45.1086" lon="5.06637">
        <ele>363.24700927734</ele>
        <time>2009-11-04T13:26:03Z</time>
      </trkpt>
      <trkpt lat="45.1086" lon="5.06634">
        <ele>362.86401367188</ele>
        <time>2009-11-04T13:26:05Z</time>
      </trkpt>
      <trkpt lat="45.10868" lon="5.06635">
        <ele>363.43899536133</ele>
        <time>2009-11-04T13:26:10Z</time>
      </trkpt>
      <trkpt lat="45.1087" lon="5.06636">
        <ele>363.77899169922</ele>
        <time>2009-11-04T13:26:11Z</time>
      </trkpt>
      <trkpt lat="45.10875" lon="5.0664">
        <ele>363.72799682617</ele>
        <time>2009-11-04T13:26:15Z</time>
      </trkpt>
      <trkpt lat="45.10875" lon="5.06637">
        <ele>363.95401000977</ele>
        <time>2009-11-04T13:26:19Z</time>
      </trkpt>
      <trkpt lat="45.10861" lon="5.06634">
        <ele>363.22198486328</ele>
        <time>2009-11-04T13:26:25Z</time>
      </trkpt>
      <trkpt lat="45.10854" lon="5.06638">
        <ele>362.79000854492</ele>
        <time>2009-11-04T13:26:30Z</time>
      </trkpt>
      <trkpt lat="45.10858" lon="5.06638">
        <ele>363.05899047852</ele>
        <time>2009-11-04T13:26:35Z</time>
      </trkpt>
      <trkpt lat="45.10863" lon="5.06635">
        <ele>363.11499023438</ele>
        <time>2009-11-04T13:26:38Z</time>
      </trkpt>
      <trkpt lat="45.10876" lon="5.0664">
        <ele>364.03601074219</ele>
        <time>2009-11-04T13:26:45Z</time>
      </trkpt>
      <trkpt lat="45.10893" lon="5.06653">
        <ele>365.18701171875</ele>
        <time>2009-11-04T13:26:54Z</time>
      </trkpt>
      <trkpt lat="45.10905" lon="5.06663">
        <ele>366.50399780273</ele>
        <time>2009-11-04T13:27:00Z</time>
      </trkpt>
      <trkpt lat="45.10917" lon="5.0667">
        <ele>368.09399414062</ele>
        <time>2009-11-04T13:27:05Z</time>
      </trkpt>
      <trkpt lat="45.10926" lon="5.06678">
        <ele>369.40798950195</ele>
        <time>2009-11-04T13:27:10Z</time>
      </trkpt>
      <trkpt lat="45.10937" lon="5.06689">
        <ele>371.65399169922</ele>
        <time>2009-11-04T13:27:16Z</time>
      </trkpt>
      <trkpt lat="45.10942" lon="5.06696">
        <ele>372.62298583984</ele>
        <time>2009-11-04T13:27:19Z</time>
      </trkpt>
      <trkpt lat="45.10952" lon="5.06709">
        <ele>374.69400024414</ele>
        <time>2009-11-04T13:27:25Z</time>
      </trkpt>
      <trkpt lat="45.10953" lon="5.06711">
        <ele>375.19900512695</ele>
        <time>2009-11-04T13:27:26Z</time>
      </trkpt>
      <trkpt lat="45.10958" lon="5.06724">
        <ele>375.63000488281</ele>
        <time>2009-11-04T13:27:31Z</time>
      </trkpt>
      <trkpt lat="45.10962" lon="5.06748">
        <ele>377.86099243164</ele>
        <time>2009-11-04T13:27:38Z</time>
      </trkpt>
      <trkpt lat="45.10964" lon="5.06764">
        <ele>378.46798706055</ele>
        <time>2009-11-04T13:27:43Z</time>
      </trkpt>
      <trkpt lat="45.10968" lon="5.06786">
        <ele>379.60101318359</ele>
        <time>2009-11-04T13:27:50Z</time>
      </trkpt>
      <trkpt lat="45.10978" lon="5.06804">
        <ele>380.16000366211</ele>
        <time>2009-11-04T13:27:57Z</time>
      </trkpt>
      <trkpt lat="45.1099" lon="5.06816">
        <ele>380.55599975586</ele>
        <time>2009-11-04T13:28:03Z</time>
      </trkpt>
      <trkpt lat="45.11006" lon="5.06823">
        <ele>380.98098754883</ele>
        <time>2009-11-04T13:28:10Z</time>
      </trkpt>
      <trkpt lat="45.11025" lon="5.06832">
        <ele>381.63400268555</ele>
        <time>2009-11-04T13:28:18Z</time>
      </trkpt>
      <trkpt lat="45.1104" lon="5.06836">
        <ele>382.36898803711</ele>
        <time>2009-11-04T13:28:24Z</time>
      </trkpt>
      <trkpt lat="45.11057" lon="5.06839">
        <ele>382.57400512695</ele>
        <time>2009-11-04T13:28:30Z</time>
      </trkpt>
      <trkpt lat="45.11077" lon="5.06841">
        <ele>382.09100341797</ele>
        <time>2009-11-04T13:28:37Z</time>
      </trkpt>
      <trkpt lat="45.11101" lon="5.06842">
        <ele>381.39498901367</ele>
        <time>2009-11-04T13:28:44Z</time>
      </trkpt>
      <trkpt lat="45.11123" lon="5.06843">
        <ele>380.68899536133</ele>
        <time>2009-11-04T13:28:50Z</time>
      </trkpt>
      <trkpt lat="45.11138" lon="5.06845">
        <ele>379.56799316406</ele>
        <time>2009-11-04T13:28:54Z</time>
      </trkpt>
      <trkpt lat="45.11146" lon="5.06847">
        <ele>379.21701049805</ele>
        <time>2009-11-04T13:28:56Z</time>
      </trkpt>
      <trkpt lat="45.1115" lon="5.06848">
        <ele>378.97601318359</ele>
        <time>2009-11-04T13:28:57Z</time>
      </trkpt>
      <trkpt lat="45.11184" lon="5.06855">
        <ele>377.50201416016</ele>
        <time>2009-11-04T13:29:04Z</time>
      </trkpt>
      <trkpt lat="45.11226" lon="5.06871">
        <ele>376.14498901367</ele>
        <time>2009-11-04T13:29:12Z</time>
      </trkpt>
      <trkpt lat="45.11257" lon="5.06884">
        <ele>376.37600708008</ele>
        <time>2009-11-04T13:29:19Z</time>
      </trkpt>
      <trkpt lat="45.11281" lon="5.06898">
        <ele>377.39099121094</ele>
        <time>2009-11-04T13:29:26Z</time>
      </trkpt>
      <trkpt lat="45.11291" lon="5.06912">
        <ele>378.60000610352</ele>
        <time>2009-11-04T13:29:30Z</time>
      </trkpt>
      <trkpt lat="45.11301" lon="5.06932">
        <ele>380.15100097656</ele>
        <time>2009-11-04T13:29:36Z</time>
      </trkpt>
      <trkpt lat="45.1131" lon="5.0695">
        <ele>381.12799072266</ele>
        <time>2009-11-04T13:29:42Z</time>
      </trkpt>
      <trkpt lat="45.11325" lon="5.06972">
        <ele>381.86099243164</ele>
        <time>2009-11-04T13:29:49Z</time>
      </trkpt>
      <trkpt lat="45.11341" lon="5.06988">
        <ele>383.04998779297</ele>
        <time>2009-11-04T13:29:56Z</time>
      </trkpt>
      <trkpt lat="45.11362" lon="5.0701">
        <ele>384.85998535156</ele>
        <time>2009-11-04T13:30:05Z</time>
      </trkpt>
      <trkpt lat="45.1138" lon="5.0702">
        <ele>386.97399902344</ele>
        <time>2009-11-04T13:30:12Z</time>
      </trkpt>
      <trkpt lat="45.11395" lon="5.07018">
        <ele>389.12399291992</ele>
        <time>2009-11-04T13:30:18Z</time>
      </trkpt>
      <trkpt lat="45.11411" lon="5.07013">
        <ele>391.03500366211</ele>
        <time>2009-11-04T13:30:24Z</time>
      </trkpt>
      <trkpt lat="45.11426" lon="5.07007">
        <ele>392.40399169922</ele>
        <time>2009-11-04T13:30:30Z</time>
      </trkpt>
      <trkpt lat="45.11445" lon="5.07006">
        <ele>392.61999511719</ele>
        <time>2009-11-04T13:30:37Z</time>
      </trkpt>
      <trkpt lat="45.11466" lon="5.07014">
        <ele>392.87799072266</ele>
        <time>2009-11-04T13:30:44Z</time>
      </trkpt>
      <trkpt lat="45.11489" lon="5.07022">
        <ele>394.24798583984</ele>
        <time>2009-11-04T13:30:52Z</time>
      </trkpt>
      <trkpt lat="45.11513" lon="5.07027">
        <ele>395</ele>
        <time>2009-11-04T13:31:00Z</time>
      </trkpt>
      <trkpt lat="45.11531" lon="5.0703">
        <ele>394.625</ele>
        <time>2009-11-04T13:31:06Z</time>
      </trkpt>
      <trkpt lat="45.11551" lon="5.07034">
        <ele>394.73199462891</ele>
        <time>2009-11-04T13:31:13Z</time>
      </trkpt>
      <trkpt lat="45.11572" lon="5.07039">
        <ele>395.18399047852</ele>
        <time>2009-11-04T13:31:20Z</time>
      </trkpt>
      <trkpt lat="45.11593" lon="5.07042">
        <ele>395.65200805664</ele>
        <time>2009-11-04T13:31:27Z</time>
      </trkpt>
      <trkpt lat="45.11614" lon="5.07046">
        <ele>396.08999633789</ele>
        <time>2009-11-04T13:31:34Z</time>
      </trkpt>
      <trkpt lat="45.11639" lon="5.07049">
        <ele>396.95401000977</ele>
        <time>2009-11-04T13:31:42Z</time>
      </trkpt>
      <trkpt lat="45.1166" lon="5.07056">
        <ele>397.89401245117</ele>
        <time>2009-11-04T13:31:49Z</time>
      </trkpt>
      <trkpt lat="45.11685" lon="5.07066">
        <ele>399.20098876953</ele>
        <time>2009-11-04T13:31:57Z</time>
      </trkpt>
      <trkpt lat="45.11715" lon="5.07078">
        <ele>401.27801513672</ele>
        <time>2009-11-04T13:32:07Z</time>
      </trkpt>
      <trkpt lat="45.11731" lon="5.07087">
        <ele>402.79098510742</ele>
        <time>2009-11-04T13:32:13Z</time>
      </trkpt>
      <trkpt lat="45.11754" lon="5.07103">
        <ele>404.07998657227</ele>
        <time>2009-11-04T13:32:22Z</time>
      </trkpt>
      <trkpt lat="45.11778" lon="5.07118">
        <ele>405.77700805664</ele>
        <time>2009-11-04T13:32:31Z</time>
      </trkpt>
      <trkpt lat="45.11797" lon="5.07131">
        <ele>405.76998901367</ele>
        <time>2009-11-04T13:32:38Z</time>
      </trkpt>
      <trkpt lat="45.11819" lon="5.07146">
        <ele>405.75500488281</ele>
        <time>2009-11-04T13:32:47Z</time>
      </trkpt>
      <trkpt lat="45.11843" lon="5.07163">
        <ele>410.91299438477</ele>
        <time>2009-11-04T13:32:57Z</time>
      </trkpt>
      <trkpt lat="45.11865" lon="5.07176">
        <ele>412.19198608398</ele>
        <time>2009-11-04T13:33:05Z</time>
      </trkpt>
      <trkpt lat="45.1189" lon="5.07194">
        <ele>412.21499633789</ele>
        <time>2009-11-04T13:33:13Z</time>
      </trkpt>
      <trkpt lat="45.11911" lon="5.07204">
        <ele>414.44100952148</ele>
        <time>2009-11-04T13:33:20Z</time>
      </trkpt>
      <trkpt lat="45.1192" lon="5.07218">
        <ele>414.4880065918</ele>
        <time>2009-11-04T13:33:26Z</time>
      </trkpt>
      <trkpt lat="45.11922" lon="5.07236">
        <ele>413.83499145508</ele>
        <time>2009-11-04T13:33:34Z</time>
      </trkpt>
      <trkpt lat="45.11923" lon="5.07248">
        <ele>412.97299194336</ele>
        <time>2009-11-04T13:33:39Z</time>
      </trkpt>
      <trkpt lat="45.11924" lon="5.0726">
        <ele>412.46398925781</ele>
        <time>2009-11-04T13:33:43Z</time>
      </trkpt>
      <trkpt lat="45.11925" lon="5.07287">
        <ele>411.17999267578</ele>
        <time>2009-11-04T13:33:49Z</time>
      </trkpt>
      <trkpt lat="45.11927" lon="5.07311">
        <ele>408.74200439453</ele>
        <time>2009-11-04T13:33:52Z</time>
      </trkpt>
      <trkpt lat="45.1193" lon="5.07331">
        <ele>407.01098632812</ele>
        <time>2009-11-04T13:33:54Z</time>
      </trkpt>
      <trkpt lat="45.11937" lon="5.07351">
        <ele>405.74099731445</ele>
        <time>2009-11-04T13:33:56Z</time>
      </trkpt>
      <trkpt lat="45.11945" lon="5.07371">
        <ele>404.31399536133</ele>
        <time>2009-11-04T13:33:58Z</time>
      </trkpt>
      <trkpt lat="45.11954" lon="5.0741">
        <ele>402.6549987793</ele>
        <time>2009-11-04T13:34:02Z</time>
      </trkpt>
      <trkpt lat="45.11968" lon="5.0745">
        <ele>401.13800048828</ele>
        <time>2009-11-04T13:34:07Z</time>
      </trkpt>
      <trkpt lat="45.11981" lon="5.07477">
        <ele>400.40200805664</ele>
        <time>2009-11-04T13:34:11Z</time>
      </trkpt>
      <trkpt lat="45.11975" lon="5.07498">
        <ele>398.90600585938</ele>
        <time>2009-11-04T13:34:14Z</time>
      </trkpt>
      <trkpt lat="45.11971" lon="5.07504">
        <ele>398.61700439453</ele>
        <time>2009-11-04T13:34:15Z</time>
      </trkpt>
      <trkpt lat="45.11943" lon="5.07562">
        <ele>396.53201293945</ele>
        <time>2009-11-04T13:34:23Z</time>
      </trkpt>
      <trkpt lat="45.11927" lon="5.07612">
        <ele>392.22100830078</ele>
        <time>2009-11-04T13:34:30Z</time>
      </trkpt>
      <trkpt lat="45.11914" lon="5.07655">
        <ele>387.10800170898</ele>
        <time>2009-11-04T13:34:35Z</time>
      </trkpt>
      <trkpt lat="45.11901" lon="5.07695">
        <ele>381.98699951172</ele>
        <time>2009-11-04T13:34:38Z</time>
      </trkpt>
      <trkpt lat="45.1189" lon="5.07724">
        <ele>379.78100585938</ele>
        <time>2009-11-04T13:34:40Z</time>
      </trkpt>
      <trkpt lat="45.11859" lon="5.0776">
        <ele>376.84298706055</ele>
        <time>2009-11-04T13:34:44Z</time>
      </trkpt>
      <trkpt lat="45.11851" lon="5.07768">
        <ele>376.29098510742</ele>
        <time>2009-11-04T13:34:45Z</time>
      </trkpt>
      <trkpt lat="45.11819" lon="5.07814">
        <ele>370.44799804688</ele>
        <time>2009-11-04T13:34:50Z</time>
      </trkpt>
      <trkpt lat="45.11783" lon="5.07839">
        <ele>365.91598510742</ele>
        <time>2009-11-04T13:34:54Z</time>
      </trkpt>
      <trkpt lat="45.11748" lon="5.0786">
        <ele>362.41400146484</ele>
        <time>2009-11-04T13:34:58Z</time>
      </trkpt>
      <trkpt lat="45.1174" lon="5.07869">
        <ele>361.72799682617</ele>
        <time>2009-11-04T13:34:59Z</time>
      </trkpt>
      <trkpt lat="45.11728" lon="5.07887">
        <ele>360.86401367188</ele>
        <time>2009-11-04T13:35:01Z</time>
      </trkpt>
      <trkpt lat="45.11723" lon="5.07895">
        <ele>360.86700439453</ele>
        <time>2009-11-04T13:35:02Z</time>
      </trkpt>
      <trkpt lat="45.11715" lon="5.07922">
        <ele>358.98300170898</ele>
        <time>2009-11-04T13:35:06Z</time>
      </trkpt>
      <trkpt lat="45.11719" lon="5.07933">
        <ele>359.01599121094</ele>
        <time>2009-11-04T13:35:09Z</time>
      </trkpt>
      <trkpt lat="45.11723" lon="5.07935">
        <ele>359.06799316406</ele>
        <time>2009-11-04T13:35:11Z</time>
      </trkpt>
      <trkpt lat="45.11727" lon="5.07936">
        <ele>358.54800415039</ele>
        <time>2009-11-04T13:35:14Z</time>
      </trkpt>
      <trkpt lat="45.11739" lon="5.07941">
        <ele>357.50201416016</ele>
        <time>2009-11-04T13:35:20Z</time>
      </trkpt>
      <trkpt lat="45.11742" lon="5.07943">
        <ele>357.26901245117</ele>
        <time>2009-11-04T13:35:21Z</time>
      </trkpt>
      <trkpt lat="45.11783" lon="5.07968">
        <ele>353.32800292969</ele>
        <time>2009-11-04T13:35:28Z</time>
      </trkpt>
      <trkpt lat="45.11835" lon="5.07999">
        <ele>350.60998535156</ele>
        <time>2009-11-04T13:35:35Z</time>
      </trkpt>
      <trkpt lat="45.11899" lon="5.0804">
        <ele>349.98699951172</ele>
        <time>2009-11-04T13:35:44Z</time>
      </trkpt>
      <trkpt lat="45.11924" lon="5.08057">
        <ele>350.77899169922</ele>
        <time>2009-11-04T13:35:48Z</time>
      </trkpt>
      <trkpt lat="45.11929" lon="5.08061">
        <ele>350.95599365234</ele>
        <time>2009-11-04T13:35:49Z</time>
      </trkpt>
      <trkpt lat="45.11955" lon="5.08077">
        <ele>352.16900634766</ele>
        <time>2009-11-04T13:35:54Z</time>
      </trkpt>
      <trkpt lat="45.11992" lon="5.08101">
        <ele>352.62701416016</ele>
        <time>2009-11-04T13:36:02Z</time>
      </trkpt>
      <trkpt lat="45.12028" lon="5.08121">
        <ele>351.09600830078</ele>
        <time>2009-11-04T13:36:08Z</time>
      </trkpt>
      <trkpt lat="45.12034" lon="5.08124">
        <ele>350.96398925781</ele>
        <time>2009-11-04T13:36:09Z</time>
      </trkpt>
      <trkpt lat="45.12059" lon="5.08151">
        <ele>350.77398681641</ele>
        <time>2009-11-04T13:36:14Z</time>
      </trkpt>
      <trkpt lat="45.12066" lon="5.08165">
        <ele>350.29598999023</ele>
        <time>2009-11-04T13:36:16Z</time>
      </trkpt>
      <trkpt lat="45.12073" lon="5.0819">
        <ele>348.94100952148</ele>
        <time>2009-11-04T13:36:19Z</time>
      </trkpt>
      <trkpt lat="45.12074" lon="5.08198">
        <ele>348.32299804688</ele>
        <time>2009-11-04T13:36:20Z</time>
      </trkpt>
      <trkpt lat="45.12077" lon="5.08212">
        <ele>347.26400756836</ele>
        <time>2009-11-04T13:36:22Z</time>
      </trkpt>
      <trkpt lat="45.12084" lon="5.08247">
        <ele>343.77200317383</ele>
        <time>2009-11-04T13:36:27Z</time>
      </trkpt>
      <trkpt lat="45.1208" lon="5.08282">
        <ele>340.09399414062</ele>
        <time>2009-11-04T13:36:32Z</time>
      </trkpt>
      <trkpt lat="45.12063" lon="5.08306">
        <ele>336.7200012207</ele>
        <time>2009-11-04T13:36:35Z</time>
      </trkpt>
      <trkpt lat="45.12037" lon="5.08319">
        <ele>333.54400634766</ele>
        <time>2009-11-04T13:36:38Z</time>
      </trkpt>
      <trkpt lat="45.12027" lon="5.08336">
        <ele>331.2919921875</ele>
        <time>2009-11-04T13:36:40Z</time>
      </trkpt>
      <trkpt lat="45.12028" lon="5.08372">
        <ele>328.6549987793</ele>
        <time>2009-11-04T13:36:43Z</time>
      </trkpt>
      <trkpt lat="45.1204" lon="5.08427">
        <ele>324.80200195312</ele>
        <time>2009-11-04T13:36:47Z</time>
      </trkpt>
      <trkpt lat="45.12039" lon="5.08485">
        <ele>319.63198852539</ele>
        <time>2009-11-04T13:36:51Z</time>
      </trkpt>
      <trkpt lat="45.12027" lon="5.08531">
        <ele>316.90200805664</ele>
        <time>2009-11-04T13:36:54Z</time>
      </trkpt>
      <trkpt lat="45.12016" lon="5.08634">
        <ele>310.71600341797</ele>
        <time>2009-11-04T13:37:00Z</time>
      </trkpt>
      <trkpt lat="45.12015" lon="5.08653">
        <ele>309.49798583984</ele>
        <time>2009-11-04T13:37:01Z</time>
      </trkpt>
      <trkpt lat="45.12018" lon="5.08708">
        <ele>307.16299438477</ele>
        <time>2009-11-04T13:37:04Z</time>
      </trkpt>
      <trkpt lat="45.12023" lon="5.08815">
        <ele>305.13800048828</ele>
        <time>2009-11-04T13:37:10Z</time>
      </trkpt>
      <trkpt lat="45.12023" lon="5.08845">
        <ele>306.13598632812</ele>
        <time>2009-11-04T13:37:12Z</time>
      </trkpt>
      <trkpt lat="45.12022" lon="5.08877">
        <ele>307.13299560547</ele>
        <time>2009-11-04T13:37:15Z</time>
      </trkpt>
      <trkpt lat="45.12021" lon="5.08892">
        <ele>307.82998657227</ele>
        <time>2009-11-04T13:37:18Z</time>
      </trkpt>
      <trkpt lat="45.12022" lon="5.08895">
        <ele>308.0830078125</ele>
        <time>2009-11-04T13:37:19Z</time>
      </trkpt>
      <trkpt lat="45.12029" lon="5.08899">
        <ele>309.00900268555</ele>
        <time>2009-11-04T13:37:23Z</time>
      </trkpt>
      <trkpt lat="45.12045" lon="5.08895">
        <ele>309.98599243164</ele>
        <time>2009-11-04T13:37:30Z</time>
      </trkpt>
      <trkpt lat="45.12061" lon="5.08887">
        <ele>310.31100463867</ele>
        <time>2009-11-04T13:37:36Z</time>
      </trkpt>
      <trkpt lat="45.12079" lon="5.08874">
        <ele>311.82299804688</ele>
        <time>2009-11-04T13:37:43Z</time>
      </trkpt>
      <trkpt lat="45.12097" lon="5.08863">
        <ele>313.30801391602</ele>
        <time>2009-11-04T13:37:50Z</time>
      </trkpt>
      <trkpt lat="45.12109" lon="5.08858">
        <ele>314.86898803711</ele>
        <time>2009-11-04T13:37:55Z</time>
      </trkpt>
      <trkpt lat="45.12129" lon="5.0885">
        <ele>317.23001098633</ele>
        <time>2009-11-04T13:38:03Z</time>
      </trkpt>
      <trkpt lat="45.12132" lon="5.08849">
        <ele>317.26098632812</ele>
        <time>2009-11-04T13:38:04Z</time>
      </trkpt>
      <trkpt lat="45.1214" lon="5.08847">
        <ele>318.25500488281</ele>
        <time>2009-11-04T13:38:09Z</time>
      </trkpt>
      <trkpt lat="45.12154" lon="5.08843">
        <ele>320.18798828125</ele>
        <time>2009-11-04T13:38:15Z</time>
      </trkpt>
      <trkpt lat="45.12164" lon="5.0884">
        <ele>321.36099243164</ele>
        <time>2009-11-04T13:38:19Z</time>
      </trkpt>
      <trkpt lat="45.1218" lon="5.08833">
        <ele>323.6780090332</ele>
        <time>2009-11-04T13:38:26Z</time>
      </trkpt>
      <trkpt lat="45.12195" lon="5.08826">
        <ele>325.4460144043</ele>
        <time>2009-11-04T13:38:32Z</time>
      </trkpt>
      <trkpt lat="45.1221" lon="5.08822">
        <ele>327.39199829102</ele>
        <time>2009-11-04T13:38:39Z</time>
      </trkpt>
      <trkpt lat="45.12226" lon="5.08826">
        <ele>329.84799194336</ele>
        <time>2009-11-04T13:38:46Z</time>
      </trkpt>
      <trkpt lat="45.12234" lon="5.08829">
        <ele>331.05200195312</ele>
        <time>2009-11-04T13:38:50Z</time>
      </trkpt>
      <trkpt lat="45.12255" lon="5.0884">
        <ele>333.52899169922</ele>
        <time>2009-11-04T13:39:00Z</time>
      </trkpt>
      <trkpt lat="45.12268" lon="5.08849">
        <ele>335.89599609375</ele>
        <time>2009-11-04T13:39:07Z</time>
      </trkpt>
      <trkpt lat="45.12278" lon="5.08859">
        <ele>337.57400512695</ele>
        <time>2009-11-04T13:39:13Z</time>
      </trkpt>
      <trkpt lat="45.12285" lon="5.08866">
        <ele>339.12899780273</ele>
        <time>2009-11-04T13:39:18Z</time>
      </trkpt>
      <trkpt lat="45.123" lon="5.08879">
        <ele>341.91198730469</ele>
        <time>2009-11-04T13:39:27Z</time>
      </trkpt>
      <trkpt lat="45.1231" lon="5.08886">
        <ele>343.7080078125</ele>
        <time>2009-11-04T13:39:33Z</time>
      </trkpt>
      <trkpt lat="45.12312" lon="5.08898">
        <ele>344.94500732422</ele>
        <time>2009-11-04T13:39:39Z</time>
      </trkpt>
      <trkpt lat="45.12307" lon="5.08908">
        <ele>344.52899169922</ele>
        <time>2009-11-04T13:39:44Z</time>
      </trkpt>
      <trkpt lat="45.12303" lon="5.08921">
        <ele>343.99798583984</ele>
        <time>2009-11-04T13:39:50Z</time>
      </trkpt>
      <trkpt lat="45.12297" lon="5.08938">
        <ele>343.21200561523</ele>
        <time>2009-11-04T13:39:56Z</time>
      </trkpt>
      <trkpt lat="45.12291" lon="5.08958">
        <ele>342.82299804688</ele>
        <time>2009-11-04T13:40:01Z</time>
      </trkpt>
      <trkpt lat="45.12288" lon="5.08968">
        <ele>342.54299926758</ele>
        <time>2009-11-04T13:40:03Z</time>
      </trkpt>
      <trkpt lat="45.12278" lon="5.09002">
        <ele>342.14401245117</ele>
        <time>2009-11-04T13:40:09Z</time>
      </trkpt>
      <trkpt lat="45.12268" lon="5.09034">
        <ele>341.68099975586</ele>
        <time>2009-11-04T13:40:15Z</time>
      </trkpt>
      <trkpt lat="45.12261" lon="5.09056">
        <ele>341.08700561523</ele>
        <time>2009-11-04T13:40:19Z</time>
      </trkpt>
      <trkpt lat="45.12259" lon="5.09061">
        <ele>341.00698852539</ele>
        <time>2009-11-04T13:40:20Z</time>
      </trkpt>
      <trkpt lat="45.12241" lon="5.09108">
        <ele>340.98098754883</ele>
        <time>2009-11-04T13:40:29Z</time>
      </trkpt>
      <trkpt lat="45.12224" lon="5.09145">
        <ele>340.98098754883</ele>
        <time>2009-11-04T13:40:37Z</time>
      </trkpt>
      <trkpt lat="45.12208" lon="5.09181">
        <ele>341.81298828125</ele>
        <time>2009-11-04T13:40:45Z</time>
      </trkpt>
      <trkpt lat="45.12195" lon="5.09211">
        <ele>342.82501220703</ele>
        <time>2009-11-04T13:40:52Z</time>
      </trkpt>
      <trkpt lat="45.12179" lon="5.09245">
        <ele>343.24499511719</ele>
        <time>2009-11-04T13:41:01Z</time>
      </trkpt>
      <trkpt lat="45.12157" lon="5.09279">
        <ele>344.55999755859</ele>
        <time>2009-11-04T13:41:11Z</time>
      </trkpt>
      <trkpt lat="45.12139" lon="5.09304">
        <ele>345.99398803711</ele>
        <time>2009-11-04T13:41:19Z</time>
      </trkpt>
      <trkpt lat="45.12123" lon="5.09328">
        <ele>347.79598999023</ele>
        <time>2009-11-04T13:41:27Z</time>
      </trkpt>
      <trkpt lat="45.12115" lon="5.09339">
        <ele>348.42599487305</ele>
        <time>2009-11-04T13:41:32Z</time>
      </trkpt>
      <trkpt lat="45.12101" lon="5.09357">
        <ele>347.80499267578</ele>
        <time>2009-11-04T13:41:41Z</time>
      </trkpt>
      <trkpt lat="45.12099" lon="5.09376">
        <ele>347.32501220703</ele>
        <time>2009-11-04T13:41:46Z</time>
      </trkpt>
      <trkpt lat="45.12096" lon="5.09407">
        <ele>345.7200012207</ele>
        <time>2009-11-04T13:41:51Z</time>
      </trkpt>
      <trkpt lat="45.12093" lon="5.09431">
        <ele>344.91900634766</ele>
        <time>2009-11-04T13:41:54Z</time>
      </trkpt>
      <trkpt lat="45.12084" lon="5.09447">
        <ele>344.4169921875</ele>
        <time>2009-11-04T13:41:57Z</time>
      </trkpt>
      <trkpt lat="45.12075" lon="5.09443">
        <ele>344.40399169922</ele>
        <time>2009-11-04T13:41:59Z</time>
      </trkpt>
      <trkpt lat="45.12072" lon="5.09439">
        <ele>344.39999389648</ele>
        <time>2009-11-04T13:42:00Z</time>
      </trkpt>
      <trkpt lat="45.12056" lon="5.09418">
        <ele>344.38900756836</ele>
        <time>2009-11-04T13:42:05Z</time>
      </trkpt>
      <trkpt lat="45.12041" lon="5.09409">
        <ele>344.37600708008</ele>
        <time>2009-11-04T13:42:10Z</time>
      </trkpt>
      <trkpt lat="45.1202" lon="5.09405">
        <ele>344.32800292969</ele>
        <time>2009-11-04T13:42:16Z</time>
      </trkpt>
      <trkpt lat="45.12015" lon="5.09404">
        <ele>344.32000732422</ele>
        <time>2009-11-04T13:42:17Z</time>
      </trkpt>
      <trkpt lat="45.11981" lon="5.09397">
        <ele>333.69400024414</ele>
        <time>2009-11-04T13:42:23Z</time>
      </trkpt>
      <trkpt lat="45.11967" lon="5.09394">
        <ele>332.86801147461</ele>
        <time>2009-11-04T13:42:25Z</time>
      </trkpt>
      <trkpt lat="45.11959" lon="5.09392">
        <ele>332.29400634766</ele>
        <time>2009-11-04T13:42:26Z</time>
      </trkpt>
      <trkpt lat="45.11927" lon="5.09383">
        <ele>330.43600463867</ele>
        <time>2009-11-04T13:42:30Z</time>
      </trkpt>
      <trkpt lat="45.11918" lon="5.09381">
        <ele>330.35000610352</ele>
        <time>2009-11-04T13:42:31Z</time>
      </trkpt>
      <trkpt lat="45.11883" lon="5.0939">
        <ele>328.29299926758</ele>
        <time>2009-11-04T13:42:35Z</time>
      </trkpt>
      <trkpt lat="45.11852" lon="5.09424">
        <ele>325.62399291992</ele>
        <time>2009-11-04T13:42:39Z</time>
      </trkpt>
      <trkpt lat="45.11845" lon="5.09435">
        <ele>325.2919921875</ele>
        <time>2009-11-04T13:42:40Z</time>
      </trkpt>
      <trkpt lat="45.11831" lon="5.09459">
        <ele>324.35299682617</ele>
        <time>2009-11-04T13:42:42Z</time>
      </trkpt>
      <trkpt lat="45.11802" lon="5.09507">
        <ele>321.00900268555</ele>
        <time>2009-11-04T13:42:46Z</time>
      </trkpt>
      <trkpt lat="45.11758" lon="5.09531">
        <ele>317.60400390625</ele>
        <time>2009-11-04T13:42:50Z</time>
      </trkpt>
      <trkpt lat="45.11734" lon="5.09525">
        <ele>316.26300048828</ele>
        <time>2009-11-04T13:42:52Z</time>
      </trkpt>
      <trkpt lat="45.1166" lon="5.09499">
        <ele>311.06201171875</ele>
        <time>2009-11-04T13:42:58Z</time>
      </trkpt>
      <trkpt lat="45.11595" lon="5.09494">
        <ele>305.99899291992</ele>
        <time>2009-11-04T13:43:03Z</time>
      </trkpt>
      <trkpt lat="45.11548" lon="5.09519">
        <ele>303.09899902344</ele>
        <time>2009-11-04T13:43:07Z</time>
      </trkpt>
      <trkpt lat="45.11502" lon="5.09578">
        <ele>298.72100830078</ele>
        <time>2009-11-04T13:43:12Z</time>
      </trkpt>
      <trkpt lat="45.11473" lon="5.09625">
        <ele>293.89801025391</ele>
        <time>2009-11-04T13:43:16Z</time>
      </trkpt>
      <trkpt lat="45.11439" lon="5.09651">
        <ele>290.28799438477</ele>
        <time>2009-11-04T13:43:20Z</time>
      </trkpt>
      <trkpt lat="45.11428" lon="5.0965">
        <ele>289.70199584961</ele>
        <time>2009-11-04T13:43:21Z</time>
      </trkpt>
      <trkpt lat="45.11376" lon="5.0964">
        <ele>284.38198852539</ele>
        <time>2009-11-04T13:43:26Z</time>
      </trkpt>
      <trkpt lat="45.11319" lon="5.0963">
        <ele>280.375</ele>
        <time>2009-11-04T13:43:32Z</time>
      </trkpt>
      <trkpt lat="45.1129" lon="5.09622">
        <ele>276.91900634766</ele>
        <time>2009-11-04T13:43:35Z</time>
      </trkpt>
      <trkpt lat="45.11274" lon="5.09625">
        <ele>275.20199584961</ele>
        <time>2009-11-04T13:43:38Z</time>
      </trkpt>
      <trkpt lat="45.11272" lon="5.09627">
        <ele>274.90899658203</ele>
        <time>2009-11-04T13:43:39Z</time>
      </trkpt>
      <trkpt lat="45.11271" lon="5.09627">
        <ele>274.87701416016</ele>
        <time>2009-11-04T13:43:41Z</time>
      </trkpt>
      <trkpt lat="45.11269" lon="5.09636">
        <ele>275.0299987793</ele>
        <time>2009-11-04T13:45:06Z</time>
      </trkpt>
      <trkpt lat="45.11257" lon="5.09632">
        <ele>274.8450012207</ele>
        <time>2009-11-04T13:45:10Z</time>
      </trkpt>
      <trkpt lat="45.11227" lon="5.09615">
        <ele>273.8039855957</ele>
        <time>2009-11-04T13:45:17Z</time>
      </trkpt>
      <trkpt lat="45.11194" lon="5.09601">
        <ele>273.06201171875</ele>
        <time>2009-11-04T13:45:23Z</time>
      </trkpt>
      <trkpt lat="45.1115" lon="5.09586">
        <ele>271.89401245117</ele>
        <time>2009-11-04T13:45:30Z</time>
      </trkpt>
      <trkpt lat="45.111" lon="5.0957">
        <ele>270.71600341797</ele>
        <time>2009-11-04T13:45:37Z</time>
      </trkpt>
      <trkpt lat="45.11041" lon="5.09553">
        <ele>268.69400024414</ele>
        <time>2009-11-04T13:45:45Z</time>
      </trkpt>
      <trkpt lat="45.10978" lon="5.09542">
        <ele>266.94198608398</ele>
        <time>2009-11-04T13:45:53Z</time>
      </trkpt>
      <trkpt lat="45.10919" lon="5.0954">
        <ele>265.4289855957</ele>
        <time>2009-11-04T13:46:00Z</time>
      </trkpt>
      <trkpt lat="45.10868" lon="5.09554">
        <ele>264.32400512695</ele>
        <time>2009-11-04T13:46:06Z</time>
      </trkpt>
      <trkpt lat="45.10825" lon="5.09581">
        <ele>264.31500244141</ele>
        <time>2009-11-04T13:46:12Z</time>
      </trkpt>
      <trkpt lat="45.10793" lon="5.09613">
        <ele>264.33700561523</ele>
        <time>2009-11-04T13:46:18Z</time>
      </trkpt>
      <trkpt lat="45.10752" lon="5.09653">
        <ele>263.22299194336</ele>
        <time>2009-11-04T13:46:26Z</time>
      </trkpt>
      <trkpt lat="45.10715" lon="5.09676">
        <ele>262.12799072266</ele>
        <time>2009-11-04T13:46:32Z</time>
      </trkpt>
      <trkpt lat="45.10672" lon="5.09689">
        <ele>261.44198608398</ele>
        <time>2009-11-04T13:46:38Z</time>
      </trkpt>
      <trkpt lat="45.10621" lon="5.09688">
        <ele>260.76300048828</ele>
        <time>2009-11-04T13:46:45Z</time>
      </trkpt>
      <trkpt lat="45.10542" lon="5.09682">
        <ele>260.63800048828</ele>
        <time>2009-11-04T13:46:56Z</time>
      </trkpt>
      <trkpt lat="45.10492" lon="5.09679">
        <ele>260.61801147461</ele>
        <time>2009-11-04T13:47:03Z</time>
      </trkpt>
      <trkpt lat="45.10442" lon="5.09677">
        <ele>261.17300415039</ele>
        <time>2009-11-04T13:47:10Z</time>
      </trkpt>
      <trkpt lat="45.10394" lon="5.09675">
        <ele>262.37100219727</ele>
        <time>2009-11-04T13:47:17Z</time>
      </trkpt>
      <trkpt lat="45.10352" lon="5.09674">
        <ele>263.96200561523</ele>
        <time>2009-11-04T13:47:24Z</time>
      </trkpt>
      <trkpt lat="45.10328" lon="5.0967">
        <ele>265.01901245117</ele>
        <time>2009-11-04T13:47:30Z</time>
      </trkpt>
      <trkpt lat="45.10321" lon="5.09673">
        <ele>265.75399780273</ele>
        <time>2009-11-04T13:47:32Z</time>
      </trkpt>
      <trkpt lat="45.10321" lon="5.09684">
        <ele>266.19100952148</ele>
        <time>2009-11-04T13:47:36Z</time>
      </trkpt>
      <trkpt lat="45.10326" lon="5.09687">
        <ele>266.31799316406</ele>
        <time>2009-11-04T13:47:38Z</time>
      </trkpt>
      <trkpt lat="45.10345" lon="5.09702">
        <ele>266.51300048828</ele>
        <time>2009-11-04T13:47:44Z</time>
      </trkpt>
      <trkpt lat="45.10381" lon="5.0973">
        <ele>266.93600463867</ele>
        <time>2009-11-04T13:47:53Z</time>
      </trkpt>
      <trkpt lat="45.10432" lon="5.09765">
        <ele>267.56100463867</ele>
        <time>2009-11-04T13:48:05Z</time>
      </trkpt>
      <trkpt lat="45.10479" lon="5.098">
        <ele>268.77700805664</ele>
        <time>2009-11-04T13:48:16Z</time>
      </trkpt>
      <trkpt lat="45.10484" lon="5.09803">
        <ele>269.06698608398</ele>
        <time>2009-11-04T13:48:17Z</time>
      </trkpt>
      <trkpt lat="45.10524" lon="5.09832">
        <ele>269.50201416016</ele>
        <time>2009-11-04T13:48:26Z</time>
      </trkpt>
      <trkpt lat="45.10549" lon="5.09858">
        <ele>270.3210144043</ele>
        <time>2009-11-04T13:48:32Z</time>
      </trkpt>
      <trkpt lat="45.10588" lon="5.09872">
        <ele>269.15200805664</ele>
        <time>2009-11-04T13:48:39Z</time>
      </trkpt>
      <trkpt lat="45.10638" lon="5.09886">
        <ele>268.16900634766</ele>
        <time>2009-11-04T13:48:47Z</time>
      </trkpt>
      <trkpt lat="45.10671" lon="5.09897">
        <ele>269.12298583984</ele>
        <time>2009-11-04T13:48:53Z</time>
      </trkpt>
      <trkpt lat="45.1071" lon="5.09918">
        <ele>269.84201049805</ele>
        <time>2009-11-04T13:49:01Z</time>
      </trkpt>
      <trkpt lat="45.10741" lon="5.09943">
        <ele>271.05599975586</ele>
        <time>2009-11-04T13:49:08Z</time>
      </trkpt>
      <trkpt lat="45.10781" lon="5.09988">
        <ele>273.45901489258</ele>
        <time>2009-11-04T13:49:19Z</time>
      </trkpt>
      <trkpt lat="45.108" lon="5.10016">
        <ele>275.06100463867</ele>
        <time>2009-11-04T13:49:25Z</time>
      </trkpt>
      <trkpt lat="45.10812" lon="5.10037">
        <ele>275.40600585938</ele>
        <time>2009-11-04T13:49:29Z</time>
      </trkpt>
      <trkpt lat="45.10829" lon="5.10089">
        <ele>274.76300048828</ele>
        <time>2009-11-04T13:49:37Z</time>
      </trkpt>
      <trkpt lat="45.10851" lon="5.10152">
        <ele>275.27499389648</ele>
        <time>2009-11-04T13:49:47Z</time>
      </trkpt>
      <trkpt lat="45.10866" lon="5.10177">
        <ele>276.65701293945</ele>
        <time>2009-11-04T13:49:52Z</time>
      </trkpt>
      <trkpt lat="45.10888" lon="5.10204">
        <ele>277.94000244141</ele>
        <time>2009-11-04T13:49:59Z</time>
      </trkpt>
      <trkpt lat="45.10902" lon="5.10222">
        <ele>279.31900024414</ele>
        <time>2009-11-04T13:50:04Z</time>
      </trkpt>
      <trkpt lat="45.10914" lon="5.10243">
        <ele>280.72198486328</ele>
        <time>2009-11-04T13:50:10Z</time>
      </trkpt>
      <trkpt lat="45.10921" lon="5.10263">
        <ele>282.00399780273</ele>
        <time>2009-11-04T13:50:16Z</time>
      </trkpt>
      <trkpt lat="45.10925" lon="5.10283">
        <ele>284.15899658203</ele>
        <time>2009-11-04T13:50:22Z</time>
      </trkpt>
      <trkpt lat="45.10928" lon="5.10305">
        <ele>286.28698730469</ele>
        <time>2009-11-04T13:50:29Z</time>
      </trkpt>
      <trkpt lat="45.10931" lon="5.10322">
        <ele>288.01501464844</ele>
        <time>2009-11-04T13:50:35Z</time>
      </trkpt>
      <trkpt lat="45.10936" lon="5.10339">
        <ele>290.23199462891</ele>
        <time>2009-11-04T13:50:42Z</time>
      </trkpt>
      <trkpt lat="45.1094" lon="5.10355">
        <ele>291.94900512695</ele>
        <time>2009-11-04T13:50:48Z</time>
      </trkpt>
      <trkpt lat="45.10946" lon="5.10376">
        <ele>294.72698974609</ele>
        <time>2009-11-04T13:50:56Z</time>
      </trkpt>
      <trkpt lat="45.10953" lon="5.104">
        <ele>297.21398925781</ele>
        <time>2009-11-04T13:51:04Z</time>
      </trkpt>
      <trkpt lat="45.10959" lon="5.10421">
        <ele>299.26098632812</ele>
        <time>2009-11-04T13:51:11Z</time>
      </trkpt>
      <trkpt lat="45.10965" lon="5.10438">
        <ele>300.4049987793</ele>
        <time>2009-11-04T13:51:17Z</time>
      </trkpt>
      <trkpt lat="45.10975" lon="5.10457">
        <ele>301.70498657227</ele>
        <time>2009-11-04T13:51:24Z</time>
      </trkpt>
      <trkpt lat="45.10984" lon="5.10473">
        <ele>302.96499633789</ele>
        <time>2009-11-04T13:51:30Z</time>
      </trkpt>
      <trkpt lat="45.10995" lon="5.10494">
        <ele>304.17098999023</ele>
        <time>2009-11-04T13:51:37Z</time>
      </trkpt>
      <trkpt lat="45.11007" lon="5.10514">
        <ele>305.36401367188</ele>
        <time>2009-11-04T13:51:44Z</time>
      </trkpt>
      <trkpt lat="45.11018" lon="5.10539">
        <ele>307.20498657227</ele>
        <time>2009-11-04T13:51:52Z</time>
      </trkpt>
      <trkpt lat="45.11026" lon="5.10555">
        <ele>307.87298583984</ele>
        <time>2009-11-04T13:51:58Z</time>
      </trkpt>
      <trkpt lat="45.11036" lon="5.10579">
        <ele>309.3450012207</ele>
        <time>2009-11-04T13:52:06Z</time>
      </trkpt>
      <trkpt lat="45.11046" lon="5.10597">
        <ele>310.14300537109</ele>
        <time>2009-11-04T13:52:13Z</time>
      </trkpt>
      <trkpt lat="45.11061" lon="5.10615">
        <ele>310.63000488281</ele>
        <time>2009-11-04T13:52:21Z</time>
      </trkpt>
      <trkpt lat="45.11079" lon="5.10634">
        <ele>312.07400512695</ele>
        <time>2009-11-04T13:52:29Z</time>
      </trkpt>
      <trkpt lat="45.11095" lon="5.10655">
        <ele>313.06698608398</ele>
        <time>2009-11-04T13:52:37Z</time>
      </trkpt>
      <trkpt lat="45.11112" lon="5.10684">
        <ele>315.52499389648</ele>
        <time>2009-11-04T13:52:47Z</time>
      </trkpt>
      <trkpt lat="45.11128" lon="5.10715">
        <ele>317.35000610352</ele>
        <time>2009-11-04T13:52:57Z</time>
      </trkpt>
      <trkpt lat="45.11142" lon="5.10739">
        <ele>318.66799926758</ele>
        <time>2009-11-04T13:53:05Z</time>
      </trkpt>
      <trkpt lat="45.11157" lon="5.10757">
        <ele>319.39199829102</ele>
        <time>2009-11-04T13:53:12Z</time>
      </trkpt>
      <trkpt lat="45.11184" lon="5.10783">
        <ele>321.71798706055</ele>
        <time>2009-11-04T13:53:23Z</time>
      </trkpt>
      <trkpt lat="45.11205" lon="5.10807">
        <ele>323.83898925781</ele>
        <time>2009-11-04T13:53:33Z</time>
      </trkpt>
      <trkpt lat="45.11211" lon="5.10814">
        <ele>324.1789855957</ele>
        <time>2009-11-04T13:53:37Z</time>
      </trkpt>
      <trkpt lat="45.11217" lon="5.1082">
        <ele>324.74099731445</ele>
        <time>2009-11-04T13:53:43Z</time>
      </trkpt>
      <trkpt lat="45.11226" lon="5.10831">
        <ele>324.82400512695</ele>
        <time>2009-11-04T13:53:50Z</time>
      </trkpt>
      <trkpt lat="45.11229" lon="5.10835">
        <ele>324.87701416016</ele>
        <time>2009-11-04T13:53:53Z</time>
      </trkpt>
      <trkpt lat="45.11229" lon="5.10838">
        <ele>324.75201416016</ele>
        <time>2009-11-04T13:53:57Z</time>
      </trkpt>
      <trkpt lat="45.1123" lon="5.10836">
        <ele>324.3330078125</ele>
        <time>2009-11-04T13:54:38Z</time>
      </trkpt>
      <trkpt lat="45.1123" lon="5.10836">
        <ele>324.66500854492</ele>
        <time>2009-11-04T13:54:39Z</time>
      </trkpt>
      <trkpt lat="45.11232" lon="5.10838">
        <ele>324.375</ele>
        <time>2009-11-04T13:54:55Z</time>
      </trkpt>
      <trkpt lat="45.11232" lon="5.10839">
        <ele>324.58999633789</ele>
        <time>2009-11-04T13:54:56Z</time>
      </trkpt>
      <trkpt lat="45.11232" lon="5.10839">
        <ele>324.1669921875</ele>
        <time>2009-11-04T13:54:58Z</time>
      </trkpt>
      <trkpt lat="45.11234" lon="5.1084">
        <ele>324.24600219727</ele>
        <time>2009-11-04T13:56:46Z</time>
      </trkpt>
      <trkpt lat="45.11235" lon="5.10841">
        <ele>324.28799438477</ele>
        <time>2009-11-04T13:56:47Z</time>
      </trkpt>
      <trkpt lat="45.11243" lon="5.1085">
        <ele>324.62200927734</ele>
        <time>2009-11-04T13:56:52Z</time>
      </trkpt>
      <trkpt lat="45.11247" lon="5.10854">
        <ele>324.6789855957</ele>
        <time>2009-11-04T13:56:54Z</time>
      </trkpt>
      <trkpt lat="45.11263" lon="5.10864">
        <ele>324.68301391602</ele>
        <time>2009-11-04T13:57:01Z</time>
      </trkpt>
      <trkpt lat="45.11284" lon="5.10873">
        <ele>324.97299194336</ele>
        <time>2009-11-04T13:57:09Z</time>
      </trkpt>
      <trkpt lat="45.11301" lon="5.1088">
        <ele>325.13500976562</ele>
        <time>2009-11-04T13:57:15Z</time>
      </trkpt>
      <trkpt lat="45.11324" lon="5.10886">
        <ele>325.8630065918</ele>
        <time>2009-11-04T13:57:22Z</time>
      </trkpt>
      <trkpt lat="45.11359" lon="5.10894">
        <ele>327.09600830078</ele>
        <time>2009-11-04T13:57:32Z</time>
      </trkpt>
      <trkpt lat="45.11385" lon="5.109">
        <ele>328.29400634766</ele>
        <time>2009-11-04T13:57:39Z</time>
      </trkpt>
      <trkpt lat="45.11408" lon="5.10907">
        <ele>328.90798950195</ele>
        <time>2009-11-04T13:57:46Z</time>
      </trkpt>
      <trkpt lat="45.1144" lon="5.10918">
        <ele>328.80700683594</ele>
        <time>2009-11-04T13:57:56Z</time>
      </trkpt>
      <trkpt lat="45.11458" lon="5.10926">
        <ele>328.65301513672</ele>
        <time>2009-11-04T13:58:03Z</time>
      </trkpt>
      <trkpt lat="45.11481" lon="5.10935">
        <ele>327.07901000977</ele>
        <time>2009-11-04T13:58:11Z</time>
      </trkpt>
      <trkpt lat="45.11505" lon="5.10943">
        <ele>326.73498535156</ele>
        <time>2009-11-04T13:58:19Z</time>
      </trkpt>
      <trkpt lat="45.11518" lon="5.10949">
        <ele>326.64099121094</ele>
        <time>2009-11-04T13:58:24Z</time>
      </trkpt>
      <trkpt lat="45.11537" lon="5.10959">
        <ele>326.48199462891</ele>
        <time>2009-11-04T13:58:32Z</time>
      </trkpt>
      <trkpt lat="45.11553" lon="5.10968">
        <ele>326.33401489258</ele>
        <time>2009-11-04T13:58:39Z</time>
      </trkpt>
      <trkpt lat="45.11575" lon="5.1098">
        <ele>326.71899414062</ele>
        <time>2009-11-04T13:58:48Z</time>
      </trkpt>
      <trkpt lat="45.11588" lon="5.1099">
        <ele>326.40798950195</ele>
        <time>2009-11-04T13:58:55Z</time>
      </trkpt>
      <trkpt lat="45.11603" lon="5.11001">
        <ele>325.67498779297</ele>
        <time>2009-11-04T13:59:04Z</time>
      </trkpt>
      <trkpt lat="45.11615" lon="5.11011">
        <ele>325.35000610352</ele>
        <time>2009-11-04T13:59:11Z</time>
      </trkpt>
      <trkpt lat="45.1163" lon="5.11023">
        <ele>324.39599609375</ele>
        <time>2009-11-04T13:59:18Z</time>
      </trkpt>
      <trkpt lat="45.11654" lon="5.11042">
        <ele>323.41198730469</ele>
        <time>2009-11-04T13:59:26Z</time>
      </trkpt>
      <trkpt lat="45.11687" lon="5.11074">
        <ele>321.50399780273</ele>
        <time>2009-11-04T13:59:36Z</time>
      </trkpt>
      <trkpt lat="45.11707" lon="5.11094">
        <ele>320.08200073242</ele>
        <time>2009-11-04T13:59:43Z</time>
      </trkpt>
      <trkpt lat="45.11729" lon="5.11116">
        <ele>319.03399658203</ele>
        <time>2009-11-04T13:59:51Z</time>
      </trkpt>
      <trkpt lat="45.11744" lon="5.11129">
        <ele>318.38198852539</ele>
        <time>2009-11-04T13:59:57Z</time>
      </trkpt>
      <trkpt lat="45.11764" lon="5.11148">
        <ele>317.3869934082</ele>
        <time>2009-11-04T14:00:06Z</time>
      </trkpt>
      <trkpt lat="45.11778" lon="5.11165">
        <ele>316.92199707031</ele>
        <time>2009-11-04T14:00:13Z</time>
      </trkpt>
      <trkpt lat="45.1179" lon="5.1118">
        <ele>316.48001098633</ele>
        <time>2009-11-04T14:00:19Z</time>
      </trkpt>
      <trkpt lat="45.11806" lon="5.11198">
        <ele>316.3869934082</ele>
        <time>2009-11-04T14:00:26Z</time>
      </trkpt>
      <trkpt lat="45.11819" lon="5.11221">
        <ele>315.82000732422</ele>
        <time>2009-11-04T14:00:34Z</time>
      </trkpt>
      <trkpt lat="45.11817" lon="5.11239">
        <ele>316.06900024414</ele>
        <time>2009-11-04T14:00:40Z</time>
      </trkpt>
      <trkpt lat="45.11811" lon="5.11257">
        <ele>315.9469909668</ele>
        <time>2009-11-04T14:00:47Z</time>
      </trkpt>
      <trkpt lat="45.11808" lon="5.11271">
        <ele>316.28298950195</ele>
        <time>2009-11-04T14:00:51Z</time>
      </trkpt>
      <trkpt lat="45.11805" lon="5.11286">
        <ele>316.13400268555</ele>
        <time>2009-11-04T14:00:56Z</time>
      </trkpt>
      <trkpt lat="45.11803" lon="5.113">
        <ele>316.03799438477</ele>
        <time>2009-11-04T14:01:01Z</time>
      </trkpt>
      <trkpt lat="45.11808" lon="5.11315">
        <ele>316.58099365234</ele>
        <time>2009-11-04T14:01:07Z</time>
      </trkpt>
      <trkpt lat="45.11814" lon="5.11319">
        <ele>316.57998657227</ele>
        <time>2009-11-04T14:01:14Z</time>
      </trkpt>
      <trkpt lat="45.11822" lon="5.11322">
        <ele>317.03298950195</ele>
        <time>2009-11-04T14:01:20Z</time>
      </trkpt>
      <trkpt lat="45.1183" lon="5.11326">
        <ele>317.13598632812</ele>
        <time>2009-11-04T14:01:26Z</time>
      </trkpt>
      <trkpt lat="45.11839" lon="5.1133">
        <ele>317.31799316406</ele>
        <time>2009-11-04T14:01:30Z</time>
      </trkpt>
      <trkpt lat="45.11858" lon="5.11338">
        <ele>317.97299194336</ele>
        <time>2009-11-04T14:01:38Z</time>
      </trkpt>
      <trkpt lat="45.11879" lon="5.11346">
        <ele>318.52099609375</ele>
        <time>2009-11-04T14:01:46Z</time>
      </trkpt>
      <trkpt lat="45.11895" lon="5.11353">
        <ele>318.88500976562</ele>
        <time>2009-11-04T14:01:52Z</time>
      </trkpt>
      <trkpt lat="45.11912" lon="5.11359">
        <ele>319.42999267578</ele>
        <time>2009-11-04T14:01:58Z</time>
      </trkpt>
      <trkpt lat="45.11936" lon="5.11367">
        <ele>319.65100097656</ele>
        <time>2009-11-04T14:02:06Z</time>
      </trkpt>
      <trkpt lat="45.11954" lon="5.11374">
        <ele>320.63400268555</ele>
        <time>2009-11-04T14:02:12Z</time>
      </trkpt>
      <trkpt lat="45.11977" lon="5.1138">
        <ele>321.09698486328</ele>
        <time>2009-11-04T14:02:19Z</time>
      </trkpt>
      <trkpt lat="45.12009" lon="5.11388">
        <ele>321.07998657227</ele>
        <time>2009-11-04T14:02:28Z</time>
      </trkpt>
      <trkpt lat="45.12034" lon="5.11394">
        <ele>321.0830078125</ele>
        <time>2009-11-04T14:02:35Z</time>
      </trkpt>
      <trkpt lat="45.12068" lon="5.11404">
        <ele>321.08499145508</ele>
        <time>2009-11-04T14:02:44Z</time>
      </trkpt>
      <trkpt lat="45.12101" lon="5.11413">
        <ele>321.08499145508</ele>
        <time>2009-11-04T14:02:53Z</time>
      </trkpt>
      <trkpt lat="45.12134" lon="5.11423">
        <ele>321.08401489258</ele>
        <time>2009-11-04T14:03:02Z</time>
      </trkpt>
      <trkpt lat="45.12167" lon="5.11432">
        <ele>321.08401489258</ele>
        <time>2009-11-04T14:03:11Z</time>
      </trkpt>
      <trkpt lat="45.12215" lon="5.11445">
        <ele>321.08801269531</ele>
        <time>2009-11-04T14:03:24Z</time>
      </trkpt>
      <trkpt lat="45.12233" lon="5.1145">
        <ele>323.75900268555</ele>
        <time>2009-11-04T14:03:30Z</time>
      </trkpt>
      <trkpt lat="45.12235" lon="5.1145">
        <ele>323.59399414062</ele>
        <time>2009-11-04T14:03:33Z</time>
      </trkpt>
      <trkpt lat="45.12235" lon="5.11445">
        <ele>323.35699462891</ele>
        <time>2009-11-04T14:03:42Z</time>
      </trkpt>
      <trkpt lat="45.12237" lon="5.1144">
        <ele>323.20700073242</ele>
        <time>2009-11-04T14:04:04Z</time>
      </trkpt>
      <trkpt lat="45.12246" lon="5.11431">
        <ele>322.97399902344</ele>
        <time>2009-11-04T14:04:10Z</time>
      </trkpt>
      <trkpt lat="45.12262" lon="5.11416">
        <ele>322.9700012207</ele>
        <time>2009-11-04T14:04:17Z</time>
      </trkpt>
      <trkpt lat="45.12273" lon="5.11407">
        <ele>321.24200439453</ele>
        <time>2009-11-04T14:04:22Z</time>
      </trkpt>
      <trkpt lat="45.1229" lon="5.11394">
        <ele>320.19198608398</ele>
        <time>2009-11-04T14:04:30Z</time>
      </trkpt>
      <trkpt lat="45.12295" lon="5.1139">
        <ele>319.98901367188</ele>
        <time>2009-11-04T14:04:35Z</time>
      </trkpt>
      <trkpt lat="45.12295" lon="5.11388">
        <ele>320.04800415039</ele>
        <time>2009-11-04T14:04:46Z</time>
      </trkpt>
      <trkpt lat="45.12295" lon="5.11388">
        <ele>319.77899169922</ele>
        <time>2009-11-04T14:04:47Z</time>
      </trkpt>
      <trkpt lat="45.12288" lon="5.11392">
        <ele>319.99798583984</ele>
        <time>2009-11-04T14:05:33Z</time>
      </trkpt>
      <trkpt lat="45.12281" lon="5.114">
        <ele>320.31799316406</ele>
        <time>2009-11-04T14:05:39Z</time>
      </trkpt>
      <trkpt lat="45.12271" lon="5.11408">
        <ele>320.43899536133</ele>
        <time>2009-11-04T14:05:43Z</time>
      </trkpt>
      <trkpt lat="45.12256" lon="5.11421">
        <ele>321.21701049805</ele>
        <time>2009-11-04T14:05:49Z</time>
      </trkpt>
      <trkpt lat="45.12237" lon="5.1144">
        <ele>322.79501342773</ele>
        <time>2009-11-04T14:05:56Z</time>
      </trkpt>
      <trkpt lat="45.12239" lon="5.11452">
        <ele>323.26400756836</ele>
        <time>2009-11-04T14:06:00Z</time>
      </trkpt>
      <trkpt lat="45.12241" lon="5.11453">
        <ele>323.43301391602</ele>
        <time>2009-11-04T14:06:01Z</time>
      </trkpt>
      <trkpt lat="45.12263" lon="5.11457">
        <ele>323.97198486328</ele>
        <time>2009-11-04T14:06:08Z</time>
      </trkpt>
      <trkpt lat="45.1228" lon="5.11461">
        <ele>324.41400146484</ele>
        <time>2009-11-04T14:06:13Z</time>
      </trkpt>
      <trkpt lat="45.12302" lon="5.11468">
        <ele>324.38900756836</ele>
        <time>2009-11-04T14:06:20Z</time>
      </trkpt>
      <trkpt lat="45.12331" lon="5.11474">
        <ele>327.37701416016</ele>
        <time>2009-11-04T14:06:29Z</time>
      </trkpt>
      <trkpt lat="45.1235" lon="5.11477">
        <ele>329.63000488281</ele>
        <time>2009-11-04T14:06:36Z</time>
      </trkpt>
      <trkpt lat="45.12364" lon="5.11479">
        <ele>331.79400634766</ele>
        <time>2009-11-04T14:06:41Z</time>
      </trkpt>
      <trkpt lat="45.12377" lon="5.11481">
        <ele>333.65600585938</ele>
        <time>2009-11-04T14:06:46Z</time>
      </trkpt>
      <trkpt lat="45.12396" lon="5.11483">
        <ele>335.10501098633</ele>
        <time>2009-11-04T14:06:53Z</time>
      </trkpt>
      <trkpt lat="45.12414" lon="5.11488">
        <ele>336.95999145508</ele>
        <time>2009-11-04T14:07:00Z</time>
      </trkpt>
      <trkpt lat="45.1243" lon="5.11506">
        <ele>338.59899902344</ele>
        <time>2009-11-04T14:07:08Z</time>
      </trkpt>
      <trkpt lat="45.12447" lon="5.11534">
        <ele>340.92999267578</ele>
        <time>2009-11-04T14:07:18Z</time>
      </trkpt>
      <trkpt lat="45.12464" lon="5.1156">
        <ele>343.00201416016</ele>
        <time>2009-11-04T14:07:28Z</time>
      </trkpt>
      <trkpt lat="45.12482" lon="5.11579">
        <ele>345.45999145508</ele>
        <time>2009-11-04T14:07:37Z</time>
      </trkpt>
      <trkpt lat="45.12495" lon="5.1159">
        <ele>347.12399291992</ele>
        <time>2009-11-04T14:07:44Z</time>
      </trkpt>
      <trkpt lat="45.12511" lon="5.11606">
        <ele>349.55801391602</ele>
        <time>2009-11-04T14:07:52Z</time>
      </trkpt>
      <trkpt lat="45.12519" lon="5.11626">
        <ele>352.01800537109</ele>
        <time>2009-11-04T14:07:59Z</time>
      </trkpt>
      <trkpt lat="45.1253" lon="5.11649">
        <ele>354.38101196289</ele>
        <time>2009-11-04T14:08:07Z</time>
      </trkpt>
      <trkpt lat="45.12543" lon="5.11657">
        <ele>355.95199584961</ele>
        <time>2009-11-04T14:08:13Z</time>
      </trkpt>
      <trkpt lat="45.1256" lon="5.11661">
        <ele>356.92999267578</ele>
        <time>2009-11-04T14:08:20Z</time>
      </trkpt>
      <trkpt lat="45.12585" lon="5.11664">
        <ele>358.33401489258</ele>
        <time>2009-11-04T14:08:29Z</time>
      </trkpt>
      <trkpt lat="45.12608" lon="5.11665">
        <ele>360.02801513672</ele>
        <time>2009-11-04T14:08:38Z</time>
      </trkpt>
      <trkpt lat="45.12623" lon="5.11668">
        <ele>361.18499755859</ele>
        <time>2009-11-04T14:08:44Z</time>
      </trkpt>
      <trkpt lat="45.12644" lon="5.1167">
        <ele>362.90600585938</ele>
        <time>2009-11-04T14:08:52Z</time>
      </trkpt>
      <trkpt lat="45.12665" lon="5.11671">
        <ele>364.36898803711</ele>
        <time>2009-11-04T14:09:00Z</time>
      </trkpt>
      <trkpt lat="45.1269" lon="5.11676">
        <ele>366.00399780273</ele>
        <time>2009-11-04T14:09:09Z</time>
      </trkpt>
      <trkpt lat="45.12708" lon="5.11684">
        <ele>367.72299194336</ele>
        <time>2009-11-04T14:09:16Z</time>
      </trkpt>
      <trkpt lat="45.12726" lon="5.11696">
        <ele>369.03698730469</ele>
        <time>2009-11-04T14:09:23Z</time>
      </trkpt>
      <trkpt lat="45.12747" lon="5.11712">
        <ele>370.89999389648</ele>
        <time>2009-11-04T14:09:32Z</time>
      </trkpt>
      <trkpt lat="45.12767" lon="5.11728">
        <ele>372.83898925781</ele>
        <time>2009-11-04T14:09:41Z</time>
      </trkpt>
      <trkpt lat="45.1279" lon="5.11742">
        <ele>374.06799316406</ele>
        <time>2009-11-04T14:09:51Z</time>
      </trkpt>
      <trkpt lat="45.12813" lon="5.11743">
        <ele>375.2080078125</ele>
        <time>2009-11-04T14:10:00Z</time>
      </trkpt>
      <trkpt lat="45.12829" lon="5.1174">
        <ele>375.40701293945</ele>
        <time>2009-11-04T14:10:06Z</time>
      </trkpt>
      <trkpt lat="45.12847" lon="5.11742">
        <ele>376.78500366211</ele>
        <time>2009-11-04T14:10:13Z</time>
      </trkpt>
      <trkpt lat="45.12868" lon="5.11739">
        <ele>377.75601196289</ele>
        <time>2009-11-04T14:10:21Z</time>
      </trkpt>
      <trkpt lat="45.12889" lon="5.11734">
        <ele>378.95498657227</ele>
        <time>2009-11-04T14:10:29Z</time>
      </trkpt>
      <trkpt lat="45.1291" lon="5.11728">
        <ele>379.42999267578</ele>
        <time>2009-11-04T14:10:38Z</time>
      </trkpt>
      <trkpt lat="45.12922" lon="5.11727">
        <ele>380.09201049805</ele>
        <time>2009-11-04T14:10:44Z</time>
      </trkpt>
      <trkpt lat="45.12924" lon="5.11727">
        <ele>380.42700195312</ele>
        <time>2009-11-04T14:10:45Z</time>
      </trkpt>
      <trkpt lat="45.12926" lon="5.11729">
        <ele>380.24099731445</ele>
        <time>2009-11-04T14:10:48Z</time>
      </trkpt>
      <trkpt lat="45.12912" lon="5.11728">
        <ele>379.60198974609</ele>
        <time>2009-11-04T14:11:01Z</time>
      </trkpt>
      <trkpt lat="45.12905" lon="5.11729">
        <ele>379.34298706055</ele>
        <time>2009-11-04T14:11:06Z</time>
      </trkpt>
      <trkpt lat="45.12889" lon="5.11731">
        <ele>378.69799804688</ele>
        <time>2009-11-04T14:11:13Z</time>
      </trkpt>
      <trkpt lat="45.12878" lon="5.11734">
        <ele>378.08599853516</ele>
        <time>2009-11-04T14:11:18Z</time>
      </trkpt>
      <trkpt lat="45.12877" lon="5.11734">
        <ele>377.67001342773</ele>
        <time>2009-11-04T14:11:21Z</time>
      </trkpt>
      <trkpt lat="45.12872" lon="5.11736">
        <ele>377.66598510742</ele>
        <time>2009-11-04T14:11:29Z</time>
      </trkpt>
      <trkpt lat="45.12857" lon="5.1174">
        <ele>376.91598510742</ele>
        <time>2009-11-04T14:11:36Z</time>
      </trkpt>
      <trkpt lat="45.12843" lon="5.11741">
        <ele>376.34399414062</ele>
        <time>2009-11-04T14:11:41Z</time>
      </trkpt>
      <trkpt lat="45.12821" lon="5.11739">
        <ele>374.87100219727</ele>
        <time>2009-11-04T14:11:48Z</time>
      </trkpt>
      <trkpt lat="45.12798" lon="5.11739">
        <ele>374.09698486328</ele>
        <time>2009-11-04T14:11:55Z</time>
      </trkpt>
      <trkpt lat="45.12777" lon="5.11733">
        <ele>373.05801391602</ele>
        <time>2009-11-04T14:12:01Z</time>
      </trkpt>
      <trkpt lat="45.12765" lon="5.11723">
        <ele>372.18899536133</ele>
        <time>2009-11-04T14:12:05Z</time>
      </trkpt>
      <trkpt lat="45.12754" lon="5.11715">
        <ele>370.94400024414</ele>
        <time>2009-11-04T14:12:08Z</time>
      </trkpt>
      <trkpt lat="45.12724" lon="5.11692">
        <ele>368.72698974609</ele>
        <time>2009-11-04T14:12:15Z</time>
      </trkpt>
      <trkpt lat="45.12704" lon="5.11678">
        <ele>367.03201293945</ele>
        <time>2009-11-04T14:12:19Z</time>
      </trkpt>
      <trkpt lat="45.1268" lon="5.11668">
        <ele>365.32699584961</ele>
        <time>2009-11-04T14:12:24Z</time>
      </trkpt>
      <trkpt lat="45.12639" lon="5.11664">
        <ele>362.04800415039</ele>
        <time>2009-11-04T14:12:32Z</time>
      </trkpt>
      <trkpt lat="45.12594" lon="5.11658">
        <ele>358.31100463867</ele>
        <time>2009-11-04T14:12:40Z</time>
      </trkpt>
      <trkpt lat="45.12588" lon="5.11658">
        <ele>358.02099609375</ele>
        <time>2009-11-04T14:12:41Z</time>
      </trkpt>
      <trkpt lat="45.12553" lon="5.11654">
        <ele>356.02499389648</ele>
        <time>2009-11-04T14:12:47Z</time>
      </trkpt>
      <trkpt lat="45.12542" lon="5.11651">
        <ele>355.16799926758</ele>
        <time>2009-11-04T14:12:49Z</time>
      </trkpt>
      <trkpt lat="45.12528" lon="5.11643">
        <ele>353.625</ele>
        <time>2009-11-04T14:12:52Z</time>
      </trkpt>
      <trkpt lat="45.12518" lon="5.11626">
        <ele>350.9169921875</ele>
        <time>2009-11-04T14:12:55Z</time>
      </trkpt>
      <trkpt lat="45.12513" lon="5.11611">
        <ele>349.45300292969</ele>
        <time>2009-11-04T14:12:57Z</time>
      </trkpt>
      <trkpt lat="45.12495" lon="5.11585">
        <ele>346.61499023438</ele>
        <time>2009-11-04T14:13:01Z</time>
      </trkpt>
      <trkpt lat="45.12477" lon="5.1157">
        <ele>343.91900634766</ele>
        <time>2009-11-04T14:13:04Z</time>
      </trkpt>
      <trkpt lat="45.12452" lon="5.11541">
        <ele>340.5530090332</ele>
        <time>2009-11-04T14:13:09Z</time>
      </trkpt>
      <trkpt lat="45.12426" lon="5.11499">
        <ele>337.06100463867</ele>
        <time>2009-11-04T14:13:14Z</time>
      </trkpt>
      <trkpt lat="45.12403" lon="5.11478">
        <ele>334.86099243164</ele>
        <time>2009-11-04T14:13:17Z</time>
      </trkpt>
      <trkpt lat="45.12393" lon="5.11475">
        <ele>334.11499023438</ele>
        <time>2009-11-04T14:13:18Z</time>
      </trkpt>
      <trkpt lat="45.12324" lon="5.11466">
        <ele>325.81399536133</ele>
        <time>2009-11-04T14:13:24Z</time>
      </trkpt>
      <trkpt lat="45.12274" lon="5.11455">
        <ele>322.18399047852</ele>
        <time>2009-11-04T14:13:28Z</time>
      </trkpt>
      <trkpt lat="45.12242" lon="5.11448">
        <ele>321.57299804688</ele>
        <time>2009-11-04T14:13:31Z</time>
      </trkpt>
      <trkpt lat="45.12236" lon="5.11446">
        <ele>320.99798583984</ele>
        <time>2009-11-04T14:13:32Z</time>
      </trkpt>
      <trkpt lat="45.12232" lon="5.11438">
        <ele>320.5</ele>
        <time>2009-11-04T14:13:36Z</time>
      </trkpt>
      <trkpt lat="45.12241" lon="5.1143">
        <ele>319.85299682617</ele>
        <time>2009-11-04T14:13:44Z</time>
      </trkpt>
      <trkpt lat="45.12247" lon="5.11426">
        <ele>319.32400512695</ele>
        <time>2009-11-04T14:13:48Z</time>
      </trkpt>
      <trkpt lat="45.12259" lon="5.11416">
        <ele>318.59100341797</ele>
        <time>2009-11-04T14:13:54Z</time>
      </trkpt>
      <trkpt lat="45.12278" lon="5.114">
        <ele>317.74700927734</ele>
        <time>2009-11-04T14:14:00Z</time>
      </trkpt>
      <trkpt lat="45.12294" lon="5.11387">
        <ele>317.67300415039</ele>
        <time>2009-11-04T14:14:04Z</time>
      </trkpt>
      <trkpt lat="45.12317" lon="5.11369">
        <ele>316.65200805664</ele>
        <time>2009-11-04T14:14:09Z</time>
      </trkpt>
      <trkpt lat="45.12345" lon="5.11347">
        <ele>316.16000366211</ele>
        <time>2009-11-04T14:14:15Z</time>
      </trkpt>
      <trkpt lat="45.12384" lon="5.11317">
        <ele>315.24398803711</ele>
        <time>2009-11-04T14:14:23Z</time>
      </trkpt>
      <trkpt lat="45.124" lon="5.11304">
        <ele>314.3630065918</ele>
        <time>2009-11-04T14:14:26Z</time>
      </trkpt>
      <trkpt lat="45.12415" lon="5.11272">
        <ele>312.83401489258</ele>
        <time>2009-11-04T14:14:30Z</time>
      </trkpt>
      <trkpt lat="45.12423" lon="5.11244">
        <ele>311.27398681641</ele>
        <time>2009-11-04T14:14:33Z</time>
      </trkpt>
      <trkpt lat="45.1245" lon="5.112">
        <ele>310.10501098633</ele>
        <time>2009-11-04T14:14:38Z</time>
      </trkpt>
      <trkpt lat="45.12464" lon="5.11182">
        <ele>307.50201416016</ele>
        <time>2009-11-04T14:14:40Z</time>
      </trkpt>
      <trkpt lat="45.12479" lon="5.11151">
        <ele>305.27398681641</ele>
        <time>2009-11-04T14:14:43Z</time>
      </trkpt>
      <trkpt lat="45.12484" lon="5.1111">
        <ele>302.54000854492</ele>
        <time>2009-11-04T14:14:46Z</time>
      </trkpt>
      <trkpt lat="45.12485" lon="5.11065">
        <ele>299.99200439453</ele>
        <time>2009-11-04T14:14:49Z</time>
      </trkpt>
      <trkpt lat="45.12498" lon="5.11021">
        <ele>297.13598632812</ele>
        <time>2009-11-04T14:14:53Z</time>
      </trkpt>
      <trkpt lat="45.12506" lon="5.10996">
        <ele>294.50799560547</ele>
        <time>2009-11-04T14:14:56Z</time>
      </trkpt>
      <trkpt lat="45.12504" lon="5.10987">
        <ele>294.49200439453</ele>
        <time>2009-11-04T14:14:57Z</time>
      </trkpt>
      <trkpt lat="45.12501" lon="5.10978">
        <ele>294.02398681641</ele>
        <time>2009-11-04T14:14:58Z</time>
      </trkpt>
      <trkpt lat="45.12472" lon="5.10905">
        <ele>291.34298706055</ele>
        <time>2009-11-04T14:15:05Z</time>
      </trkpt>
      <trkpt lat="45.12441" lon="5.10838">
        <ele>288.4169921875</ele>
        <time>2009-11-04T14:15:11Z</time>
      </trkpt>
      <trkpt lat="45.12423" lon="5.10775">
        <ele>285.88598632812</ele>
        <time>2009-11-04T14:15:16Z</time>
      </trkpt>
      <trkpt lat="45.12418" lon="5.1075">
        <ele>284.53100585938</ele>
        <time>2009-11-04T14:15:19Z</time>
      </trkpt>
      <trkpt lat="45.12418" lon="5.10732">
        <ele>284.51400756836</ele>
        <time>2009-11-04T14:15:23Z</time>
      </trkpt>
      <trkpt lat="45.1242" lon="5.10729">
        <ele>284.64999389648</ele>
        <time>2009-11-04T14:15:25Z</time>
      </trkpt>
      <trkpt lat="45.12432" lon="5.10726">
        <ele>285.04400634766</ele>
        <time>2009-11-04T14:15:31Z</time>
      </trkpt>
      <trkpt lat="45.12441" lon="5.10726">
        <ele>284.92300415039</ele>
        <time>2009-11-04T14:15:34Z</time>
      </trkpt>
      <trkpt lat="45.12466" lon="5.10724">
        <ele>285.38900756836</ele>
        <time>2009-11-04T14:15:43Z</time>
      </trkpt>
      <trkpt lat="45.1249" lon="5.10721">
        <ele>286.22601318359</ele>
        <time>2009-11-04T14:15:51Z</time>
      </trkpt>
      <trkpt lat="45.12508" lon="5.10719">
        <ele>285.92599487305</ele>
        <time>2009-11-04T14:15:57Z</time>
      </trkpt>
      <trkpt lat="45.12542" lon="5.10714">
        <ele>286.80999755859</ele>
        <time>2009-11-04T14:16:06Z</time>
      </trkpt>
      <trkpt lat="45.12592" lon="5.10708">
        <ele>287.93499755859</ele>
        <time>2009-11-04T14:16:17Z</time>
      </trkpt>
      <trkpt lat="45.12639" lon="5.10707">
        <ele>289.49600219727</ele>
        <time>2009-11-04T14:16:27Z</time>
      </trkpt>
      <trkpt lat="45.12701" lon="5.1071">
        <ele>290.79800415039</ele>
        <time>2009-11-04T14:16:40Z</time>
      </trkpt>
      <trkpt lat="45.12746" lon="5.10712">
        <ele>292.14099121094</ele>
        <time>2009-11-04T14:16:49Z</time>
      </trkpt>
      <trkpt lat="45.12767" lon="5.10712">
        <ele>292.88000488281</ele>
        <time>2009-11-04T14:16:53Z</time>
      </trkpt>
      <trkpt lat="45.12804" lon="5.10717">
        <ele>294.08898925781</ele>
        <time>2009-11-04T14:17:00Z</time>
      </trkpt>
      <trkpt lat="45.12853" lon="5.10733">
        <ele>294.62200927734</ele>
        <time>2009-11-04T14:17:09Z</time>
      </trkpt>
      <trkpt lat="45.12894" lon="5.1076">
        <ele>295.3219909668</ele>
        <time>2009-11-04T14:17:17Z</time>
      </trkpt>
      <trkpt lat="45.1294" lon="5.10802">
        <ele>296.10900878906</ele>
        <time>2009-11-04T14:17:27Z</time>
      </trkpt>
      <trkpt lat="45.1298" lon="5.10842">
        <ele>296.93099975586</ele>
        <time>2009-11-04T14:17:37Z</time>
      </trkpt>
      <trkpt lat="45.13023" lon="5.10885">
        <ele>298.93600463867</ele>
        <time>2009-11-04T14:17:48Z</time>
      </trkpt>
      <trkpt lat="45.13056" lon="5.10916">
        <ele>300.17498779297</ele>
        <time>2009-11-04T14:17:56Z</time>
      </trkpt>
      <trkpt lat="45.13087" lon="5.10947">
        <ele>301.20300292969</ele>
        <time>2009-11-04T14:18:04Z</time>
      </trkpt>
      <trkpt lat="45.13121" lon="5.10981">
        <ele>302.23999023438</ele>
        <time>2009-11-04T14:18:13Z</time>
      </trkpt>
      <trkpt lat="45.13166" lon="5.11025">
        <ele>304.30899047852</ele>
        <time>2009-11-04T14:18:25Z</time>
      </trkpt>
      <trkpt lat="45.13204" lon="5.11062">
        <ele>305.43099975586</ele>
        <time>2009-11-04T14:18:35Z</time>
      </trkpt>
      <trkpt lat="45.13253" lon="5.11111">
        <ele>307.98400878906</ele>
        <time>2009-11-04T14:18:48Z</time>
      </trkpt>
      <trkpt lat="45.13292" lon="5.11148">
        <ele>309.25100708008</ele>
        <time>2009-11-04T14:18:58Z</time>
      </trkpt>
      <trkpt lat="45.13333" lon="5.11185">
        <ele>310.65798950195</ele>
        <time>2009-11-04T14:19:08Z</time>
      </trkpt>
      <trkpt lat="45.13368" lon="5.11214">
        <ele>311.22500610352</ele>
        <time>2009-11-04T14:19:16Z</time>
      </trkpt>
      <trkpt lat="45.13408" lon="5.11249">
        <ele>311.50500488281</ele>
        <time>2009-11-04T14:19:25Z</time>
      </trkpt>
      <trkpt lat="45.13457" lon="5.1129">
        <ele>312.32699584961</ele>
        <time>2009-11-04T14:19:35Z</time>
      </trkpt>
      <trkpt lat="45.1351" lon="5.1133">
        <ele>313.01501464844</ele>
        <time>2009-11-04T14:19:46Z</time>
      </trkpt>
      <trkpt lat="45.13567" lon="5.11375">
        <ele>314.14801025391</ele>
        <time>2009-11-04T14:19:58Z</time>
      </trkpt>
      <trkpt lat="45.13607" lon="5.11407">
        <ele>314.73901367188</ele>
        <time>2009-11-04T14:20:06Z</time>
      </trkpt>
      <trkpt lat="45.13627" lon="5.11422">
        <ele>316.05999755859</ele>
        <time>2009-11-04T14:20:10Z</time>
      </trkpt>
      <trkpt lat="45.13683" lon="5.11467">
        <ele>316.95001220703</ele>
        <time>2009-11-04T14:20:22Z</time>
      </trkpt>
      <trkpt lat="45.13742" lon="5.11515">
        <ele>319.07800292969</ele>
        <time>2009-11-04T14:20:35Z</time>
      </trkpt>
      <trkpt lat="45.13792" lon="5.11555">
        <ele>320.29000854492</ele>
        <time>2009-11-04T14:20:46Z</time>
      </trkpt>
      <trkpt lat="45.13838" lon="5.11592">
        <ele>321.53799438477</ele>
        <time>2009-11-04T14:20:57Z</time>
      </trkpt>
      <trkpt lat="45.13891" lon="5.11635">
        <ele>323.66000366211</ele>
        <time>2009-11-04T14:21:10Z</time>
      </trkpt>
      <trkpt lat="45.13935" lon="5.11671">
        <ele>325.64599609375</ele>
        <time>2009-11-04T14:21:21Z</time>
      </trkpt>
      <trkpt lat="45.13984" lon="5.11709">
        <ele>327.1369934082</ele>
        <time>2009-11-04T14:21:33Z</time>
      </trkpt>
      <trkpt lat="45.14033" lon="5.11749">
        <ele>327.78900146484</ele>
        <time>2009-11-04T14:21:44Z</time>
      </trkpt>
      <trkpt lat="45.14094" lon="5.11797">
        <ele>328.14999389648</ele>
        <time>2009-11-04T14:21:57Z</time>
      </trkpt>
      <trkpt lat="45.14159" lon="5.11852">
        <ele>329.84399414062</ele>
        <time>2009-11-04T14:22:11Z</time>
      </trkpt>
      <trkpt lat="45.14215" lon="5.11898">
        <ele>330.21398925781</ele>
        <time>2009-11-04T14:22:23Z</time>
      </trkpt>
      <trkpt lat="45.14263" lon="5.11941">
        <ele>331.47198486328</ele>
        <time>2009-11-04T14:22:34Z</time>
      </trkpt>
      <trkpt lat="45.14301" lon="5.11962">
        <ele>332.53500366211</ele>
        <time>2009-11-04T14:22:42Z</time>
      </trkpt>
      <trkpt lat="45.14331" lon="5.11985">
        <ele>333.89801025391</ele>
        <time>2009-11-04T14:22:49Z</time>
      </trkpt>
      <trkpt lat="45.1436" lon="5.12006">
        <ele>333.41799926758</ele>
        <time>2009-11-04T14:22:55Z</time>
      </trkpt>
      <trkpt lat="45.14391" lon="5.12043">
        <ele>333.10598754883</ele>
        <time>2009-11-04T14:23:02Z</time>
      </trkpt>
      <trkpt lat="45.14408" lon="5.12066">
        <ele>332.8330078125</ele>
        <time>2009-11-04T14:23:06Z</time>
      </trkpt>
      <trkpt lat="45.14416" lon="5.12078">
        <ele>332.95401000977</ele>
        <time>2009-11-04T14:23:08Z</time>
      </trkpt>
      <trkpt lat="45.1445" lon="5.12124">
        <ele>332.29800415039</ele>
        <time>2009-11-04T14:23:16Z</time>
      </trkpt>
      <trkpt lat="45.14463" lon="5.1214">
        <ele>332.0539855957</ele>
        <time>2009-11-04T14:23:19Z</time>
      </trkpt>
      <trkpt lat="45.14469" lon="5.12158">
        <ele>332.10900878906</ele>
        <time>2009-11-04T14:23:22Z</time>
      </trkpt>
      <trkpt lat="45.14473" lon="5.12164">
        <ele>331.87899780273</ele>
        <time>2009-11-04T14:23:23Z</time>
      </trkpt>
      <trkpt lat="45.14506" lon="5.1221">
        <ele>331.83499145508</ele>
        <time>2009-11-04T14:23:32Z</time>
      </trkpt>
      <trkpt lat="45.14536" lon="5.12243">
        <ele>331.82800292969</ele>
        <time>2009-11-04T14:23:39Z</time>
      </trkpt>
      <trkpt lat="45.14567" lon="5.1227">
        <ele>331.80099487305</ele>
        <time>2009-11-04T14:23:45Z</time>
      </trkpt>
      <trkpt lat="45.14586" lon="5.12285">
        <ele>331.52099609375</ele>
        <time>2009-11-04T14:23:49Z</time>
      </trkpt>
      <trkpt lat="45.14618" lon="5.12301">
        <ele>331.45599365234</ele>
        <time>2009-11-04T14:23:55Z</time>
      </trkpt>
      <trkpt lat="45.14658" lon="5.12342">
        <ele>330.93798828125</ele>
        <time>2009-11-04T14:24:03Z</time>
      </trkpt>
      <trkpt lat="45.14692" lon="5.12381">
        <ele>331.67300415039</ele>
        <time>2009-11-04T14:24:11Z</time>
      </trkpt>
      <trkpt lat="45.14717" lon="5.12412">
        <ele>332.48999023438</ele>
        <time>2009-11-04T14:24:18Z</time>
      </trkpt>
      <trkpt lat="45.14753" lon="5.12453">
        <ele>333.06500244141</ele>
        <time>2009-11-04T14:24:28Z</time>
      </trkpt>
      <trkpt lat="45.14782" lon="5.12487">
        <ele>334.08700561523</ele>
        <time>2009-11-04T14:24:36Z</time>
      </trkpt>
      <trkpt lat="45.14786" lon="5.12492">
        <ele>334.38000488281</ele>
        <time>2009-11-04T14:24:37Z</time>
      </trkpt>
      <trkpt lat="45.14819" lon="5.12538">
        <ele>335.64801025391</ele>
        <time>2009-11-04T14:24:47Z</time>
      </trkpt>
      <trkpt lat="45.14844" lon="5.12585">
        <ele>337.33700561523</ele>
        <time>2009-11-04T14:24:56Z</time>
      </trkpt>
      <trkpt lat="45.1487" lon="5.12638">
        <ele>339.22500610352</ele>
        <time>2009-11-04T14:25:06Z</time>
      </trkpt>
      <trkpt lat="45.14898" lon="5.12694">
        <ele>340.79901123047</ele>
        <time>2009-11-04T14:25:17Z</time>
      </trkpt>
      <trkpt lat="45.14926" lon="5.12749">
        <ele>342.24899291992</ele>
        <time>2009-11-04T14:25:28Z</time>
      </trkpt>
      <trkpt lat="45.14938" lon="5.12773">
        <ele>343.03100585938</ele>
        <time>2009-11-04T14:25:33Z</time>
      </trkpt>
      <trkpt lat="45.14953" lon="5.12802">
        <ele>343.92999267578</ele>
        <time>2009-11-04T14:25:39Z</time>
      </trkpt>
      <trkpt lat="45.14978" lon="5.12852">
        <ele>345.69500732422</ele>
        <time>2009-11-04T14:25:49Z</time>
      </trkpt>
      <trkpt lat="45.15008" lon="5.12912">
        <ele>347.43399047852</ele>
        <time>2009-11-04T14:26:01Z</time>
      </trkpt>
      <trkpt lat="45.15023" lon="5.12943">
        <ele>348.15701293945</ele>
        <time>2009-11-04T14:26:07Z</time>
      </trkpt>
      <trkpt lat="45.15054" lon="5.13004">
        <ele>349.0539855957</ele>
        <time>2009-11-04T14:26:19Z</time>
      </trkpt>
      <trkpt lat="45.15076" lon="5.13048">
        <ele>350.11499023438</ele>
        <time>2009-11-04T14:26:28Z</time>
      </trkpt>
      <trkpt lat="45.15104" lon="5.13102">
        <ele>350.57598876953</ele>
        <time>2009-11-04T14:26:39Z</time>
      </trkpt>
      <trkpt lat="45.1512" lon="5.13134">
        <ele>350.54901123047</ele>
        <time>2009-11-04T14:26:45Z</time>
      </trkpt>
      <trkpt lat="45.1515" lon="5.13194">
        <ele>350.54098510742</ele>
        <time>2009-11-04T14:26:56Z</time>
      </trkpt>
      <trkpt lat="45.15177" lon="5.13247">
        <ele>351.13299560547</ele>
        <time>2009-11-04T14:27:06Z</time>
      </trkpt>
      <trkpt lat="45.15207" lon="5.13307">
        <ele>351.73199462891</ele>
        <time>2009-11-04T14:27:17Z</time>
      </trkpt>
      <trkpt lat="45.15237" lon="5.13366">
        <ele>353.19799804688</ele>
        <time>2009-11-04T14:27:28Z</time>
      </trkpt>
      <trkpt lat="45.15266" lon="5.13423">
        <ele>353.90301513672</ele>
        <time>2009-11-04T14:27:39Z</time>
      </trkpt>
      <trkpt lat="45.15283" lon="5.13459">
        <ele>355.35000610352</ele>
        <time>2009-11-04T14:27:46Z</time>
      </trkpt>
      <trkpt lat="45.153" lon="5.13501">
        <ele>356.47198486328</ele>
        <time>2009-11-04T14:27:54Z</time>
      </trkpt>
      <trkpt lat="45.15317" lon="5.1355">
        <ele>357.9580078125</ele>
        <time>2009-11-04T14:28:03Z</time>
      </trkpt>
      <trkpt lat="45.15332" lon="5.1361">
        <ele>358.64498901367</ele>
        <time>2009-11-04T14:28:13Z</time>
      </trkpt>
      <trkpt lat="45.15347" lon="5.13692">
        <ele>360.60598754883</ele>
        <time>2009-11-04T14:28:26Z</time>
      </trkpt>
      <trkpt lat="45.15356" lon="5.13762">
        <ele>362.14300537109</ele>
        <time>2009-11-04T14:28:37Z</time>
      </trkpt>
      <trkpt lat="45.15368" lon="5.13845">
        <ele>363.7919921875</ele>
        <time>2009-11-04T14:28:50Z</time>
      </trkpt>
      <trkpt lat="45.15377" lon="5.13904">
        <ele>364.82000732422</ele>
        <time>2009-11-04T14:28:59Z</time>
      </trkpt>
      <trkpt lat="45.15387" lon="5.13961">
        <ele>365.76300048828</ele>
        <time>2009-11-04T14:29:08Z</time>
      </trkpt>
      <trkpt lat="45.15395" lon="5.14004">
        <ele>366.3030090332</ele>
        <time>2009-11-04T14:29:15Z</time>
      </trkpt>
      <trkpt lat="45.15405" lon="5.14064">
        <ele>367.62701416016</ele>
        <time>2009-11-04T14:29:25Z</time>
      </trkpt>
      <trkpt lat="45.15402" lon="5.14094">
        <ele>368.21499633789</ele>
        <time>2009-11-04T14:29:30Z</time>
      </trkpt>
      <trkpt lat="45.15397" lon="5.14111">
        <ele>368.22799682617</ele>
        <time>2009-11-04T14:29:33Z</time>
      </trkpt>
      <trkpt lat="45.15371" lon="5.14163">
        <ele>369.45001220703</ele>
        <time>2009-11-04T14:29:43Z</time>
      </trkpt>
      <trkpt lat="45.15366" lon="5.14174">
        <ele>369.4469909668</ele>
        <time>2009-11-04T14:29:45Z</time>
      </trkpt>
      <trkpt lat="45.15351" lon="5.14226">
        <ele>370.27398681641</ele>
        <time>2009-11-04T14:29:54Z</time>
      </trkpt>
      <trkpt lat="45.15341" lon="5.14284">
        <ele>372.48699951172</ele>
        <time>2009-11-04T14:30:04Z</time>
      </trkpt>
      <trkpt lat="45.15332" lon="5.14341">
        <ele>373.90399169922</ele>
        <time>2009-11-04T14:30:14Z</time>
      </trkpt>
      <trkpt lat="45.15324" lon="5.14397">
        <ele>375.86499023438</ele>
        <time>2009-11-04T14:30:24Z</time>
      </trkpt>
      <trkpt lat="45.15325" lon="5.14451">
        <ele>376.24398803711</ele>
        <time>2009-11-04T14:30:33Z</time>
      </trkpt>
      <trkpt lat="45.15333" lon="5.14505">
        <ele>376.64898681641</ele>
        <time>2009-11-04T14:30:42Z</time>
      </trkpt>
      <trkpt lat="45.15347" lon="5.14552">
        <ele>377.46600341797</ele>
        <time>2009-11-04T14:30:50Z</time>
      </trkpt>
      <trkpt lat="45.15371" lon="5.14599">
        <ele>377.44900512695</ele>
        <time>2009-11-04T14:30:59Z</time>
      </trkpt>
      <trkpt lat="45.15408" lon="5.14648">
        <ele>379.23001098633</ele>
        <time>2009-11-04T14:31:10Z</time>
      </trkpt>
      <trkpt lat="45.15443" lon="5.14699">
        <ele>381.53500366211</ele>
        <time>2009-11-04T14:31:22Z</time>
      </trkpt>
      <trkpt lat="45.15472" lon="5.14742">
        <ele>382.63900756836</ele>
        <time>2009-11-04T14:31:32Z</time>
      </trkpt>
      <trkpt lat="45.15512" lon="5.14812">
        <ele>383.64801025391</ele>
        <time>2009-11-04T14:31:46Z</time>
      </trkpt>
      <trkpt lat="45.15546" lon="5.14875">
        <ele>384.54501342773</ele>
        <time>2009-11-04T14:31:59Z</time>
      </trkpt>
      <trkpt lat="45.1557" lon="5.14928">
        <ele>384.53698730469</ele>
        <time>2009-11-04T14:32:10Z</time>
      </trkpt>
      <trkpt lat="45.15585" lon="5.14968">
        <ele>391.16400146484</ele>
        <time>2009-11-04T14:32:19Z</time>
      </trkpt>
      <trkpt lat="45.15586" lon="5.14972">
        <ele>391.31900024414</ele>
        <time>2009-11-04T14:32:20Z</time>
      </trkpt>
      <trkpt lat="45.15602" lon="5.15016">
        <ele>392.91500854492</ele>
        <time>2009-11-04T14:32:30Z</time>
      </trkpt>
      <trkpt lat="45.1561" lon="5.15032">
        <ele>394.68200683594</ele>
        <time>2009-11-04T14:32:34Z</time>
      </trkpt>
      <trkpt lat="45.15619" lon="5.15032">
        <ele>395.59298706055</ele>
        <time>2009-11-04T14:32:38Z</time>
      </trkpt>
      <trkpt lat="45.15633" lon="5.15021">
        <ele>396.36199951172</ele>
        <time>2009-11-04T14:32:47Z</time>
      </trkpt>
      <trkpt lat="45.15641" lon="5.15013">
        <ele>396.35998535156</ele>
        <time>2009-11-04T14:32:53Z</time>
      </trkpt>
      <trkpt lat="45.15644" lon="5.15012">
        <ele>398.65798950195</ele>
        <time>2009-11-04T14:32:55Z</time>
      </trkpt>
      <trkpt lat="45.15648" lon="5.15009">
        <ele>399.85198974609</ele>
        <time>2009-11-04T14:32:58Z</time>
      </trkpt>
      <trkpt lat="45.1566" lon="5.15008">
        <ele>401.92001342773</ele>
        <time>2009-11-04T14:33:05Z</time>
      </trkpt>
      <trkpt lat="45.15673" lon="5.15009">
        <ele>404.00299072266</ele>
        <time>2009-11-04T14:33:12Z</time>
      </trkpt>
      <trkpt lat="45.15686" lon="5.15013">
        <ele>405.9580078125</ele>
        <time>2009-11-04T14:33:20Z</time>
      </trkpt>
      <trkpt lat="45.15699" lon="5.15017">
        <ele>407.64199829102</ele>
        <time>2009-11-04T14:33:27Z</time>
      </trkpt>
      <trkpt lat="45.15712" lon="5.15021">
        <ele>409.1369934082</ele>
        <time>2009-11-04T14:33:34Z</time>
      </trkpt>
      <trkpt lat="45.15725" lon="5.15026">
        <ele>410.75799560547</ele>
        <time>2009-11-04T14:33:41Z</time>
      </trkpt>
      <trkpt lat="45.15736" lon="5.15035">
        <ele>412.42300415039</ele>
        <time>2009-11-04T14:33:47Z</time>
      </trkpt>
      <trkpt lat="45.15751" lon="5.1505">
        <ele>414.46600341797</ele>
        <time>2009-11-04T14:33:55Z</time>
      </trkpt>
      <trkpt lat="45.15765" lon="5.15065">
        <ele>416.53900146484</ele>
        <time>2009-11-04T14:34:03Z</time>
      </trkpt>
      <trkpt lat="45.15781" lon="5.15082">
        <ele>418.34698486328</ele>
        <time>2009-11-04T14:34:12Z</time>
      </trkpt>
      <trkpt lat="45.15796" lon="5.15095">
        <ele>420.70300292969</ele>
        <time>2009-11-04T14:34:20Z</time>
      </trkpt>
      <trkpt lat="45.15817" lon="5.15109">
        <ele>423.56298828125</ele>
        <time>2009-11-04T14:34:30Z</time>
      </trkpt>
      <trkpt lat="45.15829" lon="5.15119">
        <ele>424.66598510742</ele>
        <time>2009-11-04T14:34:36Z</time>
      </trkpt>
      <trkpt lat="45.1584" lon="5.15131">
        <ele>424.71499633789</ele>
        <time>2009-11-04T14:34:42Z</time>
      </trkpt>
      <trkpt lat="45.15844" lon="5.15136">
        <ele>426.43200683594</ele>
        <time>2009-11-04T14:34:44Z</time>
      </trkpt>
      <trkpt lat="45.1585" lon="5.15153">
        <ele>428.11700439453</ele>
        <time>2009-11-04T14:34:50Z</time>
      </trkpt>
      <trkpt lat="45.1585" lon="5.15157">
        <ele>428.35198974609</ele>
        <time>2009-11-04T14:34:51Z</time>
      </trkpt>
      <trkpt lat="45.15857" lon="5.15181">
        <ele>429.875</ele>
        <time>2009-11-04T14:34:59Z</time>
      </trkpt>
      <trkpt lat="45.15858" lon="5.15186">
        <ele>430.61401367188</ele>
        <time>2009-11-04T14:35:01Z</time>
      </trkpt>
      <trkpt lat="45.15868" lon="5.15205">
        <ele>432.41400146484</ele>
        <time>2009-11-04T14:35:09Z</time>
      </trkpt>
      <trkpt lat="45.15879" lon="5.1522">
        <ele>434.64999389648</ele>
        <time>2009-11-04T14:35:17Z</time>
      </trkpt>
      <trkpt lat="45.15889" lon="5.15234">
        <ele>436.83200073242</ele>
        <time>2009-11-04T14:35:24Z</time>
      </trkpt>
      <trkpt lat="45.159" lon="5.15244">
        <ele>438.75399780273</ele>
        <time>2009-11-04T14:35:31Z</time>
      </trkpt>
      <trkpt lat="45.1591" lon="5.15258">
        <ele>439.95401000977</ele>
        <time>2009-11-04T14:35:38Z</time>
      </trkpt>
      <trkpt lat="45.15922" lon="5.15272">
        <ele>442.09899902344</ele>
        <time>2009-11-04T14:35:46Z</time>
      </trkpt>
      <trkpt lat="45.15929" lon="5.15284">
        <ele>443.40200805664</ele>
        <time>2009-11-04T14:35:52Z</time>
      </trkpt>
      <trkpt lat="45.15938" lon="5.15299">
        <ele>445.10101318359</ele>
        <time>2009-11-04T14:35:59Z</time>
      </trkpt>
      <trkpt lat="45.15946" lon="5.15314">
        <ele>447.00698852539</ele>
        <time>2009-11-04T14:36:06Z</time>
      </trkpt>
      <trkpt lat="45.15953" lon="5.15332">
        <ele>448.20199584961</ele>
        <time>2009-11-04T14:36:13Z</time>
      </trkpt>
      <trkpt lat="45.15959" lon="5.15352">
        <ele>450.11898803711</ele>
        <time>2009-11-04T14:36:21Z</time>
      </trkpt>
      <trkpt lat="45.15965" lon="5.15375">
        <ele>452.48098754883</ele>
        <time>2009-11-04T14:36:29Z</time>
      </trkpt>
      <trkpt lat="45.15973" lon="5.15405">
        <ele>455.29400634766</ele>
        <time>2009-11-04T14:36:39Z</time>
      </trkpt>
      <trkpt lat="45.15978" lon="5.15418">
        <ele>456.84799194336</ele>
        <time>2009-11-04T14:36:43Z</time>
      </trkpt>
      <trkpt lat="45.1599" lon="5.15428">
        <ele>458.91000366211</ele>
        <time>2009-11-04T14:36:49Z</time>
      </trkpt>
      <trkpt lat="45.16002" lon="5.15437">
        <ele>460.93701171875</ele>
        <time>2009-11-04T14:36:56Z</time>
      </trkpt>
      <trkpt lat="45.16011" lon="5.15447">
        <ele>462.15701293945</ele>
        <time>2009-11-04T14:37:01Z</time>
      </trkpt>
      <trkpt lat="45.16024" lon="5.15457">
        <ele>463.73400878906</ele>
        <time>2009-11-04T14:37:07Z</time>
      </trkpt>
      <trkpt lat="45.16036" lon="5.15465">
        <ele>465.16101074219</ele>
        <time>2009-11-04T14:37:13Z</time>
      </trkpt>
      <trkpt lat="45.16047" lon="5.15471">
        <ele>465.47299194336</ele>
        <time>2009-11-04T14:37:19Z</time>
      </trkpt>
      <trkpt lat="45.16058" lon="5.15479">
        <ele>465.57400512695</ele>
        <time>2009-11-04T14:37:26Z</time>
      </trkpt>
      <trkpt lat="45.16069" lon="5.15486">
        <ele>465.93701171875</ele>
        <time>2009-11-04T14:37:32Z</time>
      </trkpt>
      <trkpt lat="45.16078" lon="5.15492">
        <ele>466.00100708008</ele>
        <time>2009-11-04T14:37:37Z</time>
      </trkpt>
      <trkpt lat="45.16085" lon="5.15495">
        <ele>466.33999633789</ele>
        <time>2009-11-04T14:37:41Z</time>
      </trkpt>
      <trkpt lat="45.16092" lon="5.15499">
        <ele>466.82998657227</ele>
        <time>2009-11-04T14:37:45Z</time>
      </trkpt>
      <trkpt lat="45.16108" lon="5.15507">
        <ele>467.81600952148</ele>
        <time>2009-11-04T14:37:54Z</time>
      </trkpt>
      <trkpt lat="45.1612" lon="5.15513">
        <ele>468.67999267578</ele>
        <time>2009-11-04T14:38:01Z</time>
      </trkpt>
      <trkpt lat="45.16133" lon="5.15519">
        <ele>469.97299194336</ele>
        <time>2009-11-04T14:38:08Z</time>
      </trkpt>
      <trkpt lat="45.16142" lon="5.15523">
        <ele>471.05200195312</ele>
        <time>2009-11-04T14:38:12Z</time>
      </trkpt>
      <trkpt lat="45.16151" lon="5.15528">
        <ele>472.11700439453</ele>
        <time>2009-11-04T14:38:16Z</time>
      </trkpt>
      <trkpt lat="45.16164" lon="5.15535">
        <ele>473.73699951172</ele>
        <time>2009-11-04T14:38:22Z</time>
      </trkpt>
      <trkpt lat="45.16178" lon="5.15545">
        <ele>475.90399169922</ele>
        <time>2009-11-04T14:38:30Z</time>
      </trkpt>
      <trkpt lat="45.16189" lon="5.15554">
        <ele>477.04998779297</ele>
        <time>2009-11-04T14:38:36Z</time>
      </trkpt>
      <trkpt lat="45.16198" lon="5.15563">
        <ele>478.03601074219</ele>
        <time>2009-11-04T14:38:42Z</time>
      </trkpt>
      <trkpt lat="45.1621" lon="5.15577">
        <ele>479.11099243164</ele>
        <time>2009-11-04T14:38:50Z</time>
      </trkpt>
      <trkpt lat="45.1622" lon="5.15589">
        <ele>480.12298583984</ele>
        <time>2009-11-04T14:38:57Z</time>
      </trkpt>
      <trkpt lat="45.16229" lon="5.156">
        <ele>480.74301147461</ele>
        <time>2009-11-04T14:39:03Z</time>
      </trkpt>
      <trkpt lat="45.16244" lon="5.1562">
        <ele>481.90200805664</ele>
        <time>2009-11-04T14:39:12Z</time>
      </trkpt>
      <trkpt lat="45.16254" lon="5.15637">
        <ele>482.49700927734</ele>
        <time>2009-11-04T14:39:19Z</time>
      </trkpt>
      <trkpt lat="45.16263" lon="5.15658">
        <ele>483.31799316406</ele>
        <time>2009-11-04T14:39:26Z</time>
      </trkpt>
      <trkpt lat="45.16278" lon="5.1569">
        <ele>483.99301147461</ele>
        <time>2009-11-04T14:39:36Z</time>
      </trkpt>
      <trkpt lat="45.16288" lon="5.15708">
        <ele>484.68899536133</ele>
        <time>2009-11-04T14:39:42Z</time>
      </trkpt>
      <trkpt lat="45.16304" lon="5.15731">
        <ele>486.85598754883</ele>
        <time>2009-11-04T14:39:51Z</time>
      </trkpt>
      <trkpt lat="45.16311" lon="5.15737">
        <ele>488.42599487305</ele>
        <time>2009-11-04T14:39:54Z</time>
      </trkpt>
      <trkpt lat="45.16328" lon="5.15746">
        <ele>490.61999511719</ele>
        <time>2009-11-04T14:40:00Z</time>
      </trkpt>
      <trkpt lat="45.16343" lon="5.15754">
        <ele>493.36499023438</ele>
        <time>2009-11-04T14:40:05Z</time>
      </trkpt>
      <trkpt lat="45.16356" lon="5.15759">
        <ele>494.95199584961</ele>
        <time>2009-11-04T14:40:09Z</time>
      </trkpt>
      <trkpt lat="45.16365" lon="5.15764">
        <ele>496.35299682617</ele>
        <time>2009-11-04T14:40:12Z</time>
      </trkpt>
      <trkpt lat="45.16378" lon="5.15768">
        <ele>497.6369934082</ele>
        <time>2009-11-04T14:40:16Z</time>
      </trkpt>
      <trkpt lat="45.16394" lon="5.15774">
        <ele>498.87799072266</ele>
        <time>2009-11-04T14:40:22Z</time>
      </trkpt>
      <trkpt lat="45.16418" lon="5.15783">
        <ele>499.5830078125</ele>
        <time>2009-11-04T14:40:32Z</time>
      </trkpt>
      <trkpt lat="45.16434" lon="5.15796">
        <ele>500.12100219727</ele>
        <time>2009-11-04T14:40:40Z</time>
      </trkpt>
      <trkpt lat="45.16439" lon="5.15816">
        <ele>500.22698974609</ele>
        <time>2009-11-04T14:40:47Z</time>
      </trkpt>
      <trkpt lat="45.16443" lon="5.15832">
        <ele>500.32998657227</ele>
        <time>2009-11-04T14:40:52Z</time>
      </trkpt>
      <trkpt lat="45.16448" lon="5.15848">
        <ele>500.41101074219</ele>
        <time>2009-11-04T14:40:57Z</time>
      </trkpt>
      <trkpt lat="45.16452" lon="5.15857">
        <ele>500.30099487305</ele>
        <time>2009-11-04T14:41:00Z</time>
      </trkpt>
      <trkpt lat="45.16453" lon="5.1586">
        <ele>500.29998779297</ele>
        <time>2009-11-04T14:41:01Z</time>
      </trkpt>
      <trkpt lat="45.16457" lon="5.15868">
        <ele>500.27398681641</ele>
        <time>2009-11-04T14:41:04Z</time>
      </trkpt>
      <trkpt lat="45.16462" lon="5.15878">
        <ele>500.44299316406</ele>
        <time>2009-11-04T14:41:08Z</time>
      </trkpt>
      <trkpt lat="45.16465" lon="5.15884">
        <ele>500.31399536133</ele>
        <time>2009-11-04T14:41:11Z</time>
      </trkpt>
      <trkpt lat="45.16477" lon="5.1589">
        <ele>499.87799072266</ele>
        <time>2009-11-04T14:41:18Z</time>
      </trkpt>
      <trkpt lat="45.16497" lon="5.15903">
        <ele>499.13800048828</ele>
        <time>2009-11-04T14:41:24Z</time>
      </trkpt>
      <trkpt lat="45.16531" lon="5.15923">
        <ele>497.17300415039</ele>
        <time>2009-11-04T14:41:32Z</time>
      </trkpt>
      <trkpt lat="45.16557" lon="5.15939">
        <ele>495.42098999023</ele>
        <time>2009-11-04T14:41:37Z</time>
      </trkpt>
      <trkpt lat="45.16573" lon="5.15948">
        <ele>493.5710144043</ele>
        <time>2009-11-04T14:41:41Z</time>
      </trkpt>
      <trkpt lat="45.16594" lon="5.15962">
        <ele>491.71301269531</ele>
        <time>2009-11-04T14:41:45Z</time>
      </trkpt>
      <trkpt lat="45.16619" lon="5.15984">
        <ele>489.29598999023</ele>
        <time>2009-11-04T14:41:50Z</time>
      </trkpt>
      <trkpt lat="45.16626" lon="5.15992">
        <ele>488.34600830078</ele>
        <time>2009-11-04T14:41:52Z</time>
      </trkpt>
      <trkpt lat="45.16645" lon="5.16011">
        <ele>485.87899780273</ele>
        <time>2009-11-04T14:41:57Z</time>
      </trkpt>
      <trkpt lat="45.16654" lon="5.16018">
        <ele>484.71600341797</ele>
        <time>2009-11-04T14:42:00Z</time>
      </trkpt>
      <trkpt lat="45.16656" lon="5.16019">
        <ele>483.92001342773</ele>
        <time>2009-11-04T14:42:03Z</time>
      </trkpt>
      <trkpt lat="45.16654" lon="5.16016">
        <ele>484.50900268555</ele>
        <time>2009-11-04T14:42:08Z</time>
      </trkpt>
      <trkpt lat="45.16647" lon="5.16012">
        <ele>485.05899047852</ele>
        <time>2009-11-04T14:42:13Z</time>
      </trkpt>
      <trkpt lat="45.16636" lon="5.16002">
        <ele>486.2380065918</ele>
        <time>2009-11-04T14:42:19Z</time>
      </trkpt>
      <trkpt lat="45.16627" lon="5.15993">
        <ele>487.61401367188</ele>
        <time>2009-11-04T14:42:23Z</time>
      </trkpt>
      <trkpt lat="45.16619" lon="5.15985">
        <ele>488.78100585938</ele>
        <time>2009-11-04T14:42:27Z</time>
      </trkpt>
      <trkpt lat="45.16608" lon="5.15974">
        <ele>489.78399658203</ele>
        <time>2009-11-04T14:42:31Z</time>
      </trkpt>
      <trkpt lat="45.16605" lon="5.15971">
        <ele>490.01998901367</ele>
        <time>2009-11-04T14:42:32Z</time>
      </trkpt>
      <trkpt lat="45.16585" lon="5.15957">
        <ele>492.46200561523</ele>
        <time>2009-11-04T14:42:37Z</time>
      </trkpt>
      <trkpt lat="45.16576" lon="5.1595">
        <ele>493.28698730469</ele>
        <time>2009-11-04T14:42:39Z</time>
      </trkpt>
      <trkpt lat="45.16555" lon="5.15936">
        <ele>495.24398803711</ele>
        <time>2009-11-04T14:42:44Z</time>
      </trkpt>
      <trkpt lat="45.16538" lon="5.15926">
        <ele>496.4049987793</ele>
        <time>2009-11-04T14:42:49Z</time>
      </trkpt>
      <trkpt lat="45.16513" lon="5.15909">
        <ele>498.10900878906</ele>
        <time>2009-11-04T14:42:56Z</time>
      </trkpt>
      <trkpt lat="45.16498" lon="5.159">
        <ele>498.74301147461</ele>
        <time>2009-11-04T14:43:01Z</time>
      </trkpt>
      <trkpt lat="45.16476" lon="5.15887">
        <ele>499.51901245117</ele>
        <time>2009-11-04T14:43:08Z</time>
      </trkpt>
      <trkpt lat="45.16468" lon="5.15885">
        <ele>499.97698974609</ele>
        <time>2009-11-04T14:43:13Z</time>
      </trkpt>
      <trkpt lat="45.16468" lon="5.15885">
        <ele>500.02200317383</ele>
        <time>2009-11-04T14:43:14Z</time>
      </trkpt>
      <trkpt lat="45.16472" lon="5.159">
        <ele>500.68399047852</ele>
        <time>2009-11-04T14:43:28Z</time>
      </trkpt>
      <trkpt lat="45.16485" lon="5.15923">
        <ele>500.86401367188</ele>
        <time>2009-11-04T14:43:36Z</time>
      </trkpt>
      <trkpt lat="45.16491" lon="5.15934">
        <ele>500.86199951172</ele>
        <time>2009-11-04T14:43:39Z</time>
      </trkpt>
      <trkpt lat="45.16499" lon="5.15949">
        <ele>501.04098510742</ele>
        <time>2009-11-04T14:43:43Z</time>
      </trkpt>
      <trkpt lat="45.16515" lon="5.1598">
        <ele>501.09600830078</ele>
        <time>2009-11-04T14:43:50Z</time>
      </trkpt>
      <trkpt lat="45.16532" lon="5.16017">
        <ele>501.43099975586</ele>
        <time>2009-11-04T14:43:58Z</time>
      </trkpt>
      <trkpt lat="45.16547" lon="5.16057">
        <ele>501.94799804688</ele>
        <time>2009-11-04T14:44:06Z</time>
      </trkpt>
      <trkpt lat="45.16561" lon="5.16101">
        <ele>503.67300415039</ele>
        <time>2009-11-04T14:44:15Z</time>
      </trkpt>
      <trkpt lat="45.16561" lon="5.16105">
        <ele>503.63299560547</ele>
        <time>2009-11-04T14:44:18Z</time>
      </trkpt>
      <trkpt lat="45.16563" lon="5.16109">
        <ele>503.64401245117</ele>
        <time>2009-11-04T14:45:23Z</time>
      </trkpt>
      <trkpt lat="45.16564" lon="5.16112">
        <ele>503.8450012207</ele>
        <time>2009-11-04T14:45:24Z</time>
      </trkpt>
      <trkpt lat="45.16568" lon="5.16121">
        <ele>503.87200927734</ele>
        <time>2009-11-04T14:45:27Z</time>
      </trkpt>
      <trkpt lat="45.16576" lon="5.16142">
        <ele>504.14300537109</ele>
        <time>2009-11-04T14:45:32Z</time>
      </trkpt>
      <trkpt lat="45.1659" lon="5.16189">
        <ele>504.47500610352</ele>
        <time>2009-11-04T14:45:42Z</time>
      </trkpt>
      <trkpt lat="45.16598" lon="5.16218">
        <ele>504.22900390625</ele>
        <time>2009-11-04T14:45:48Z</time>
      </trkpt>
      <trkpt lat="45.16601" lon="5.16229">
        <ele>504.11499023438</ele>
        <time>2009-11-04T14:45:50Z</time>
      </trkpt>
      <trkpt lat="45.16617" lon="5.16276">
        <ele>502.52398681641</ele>
        <time>2009-11-04T14:45:58Z</time>
      </trkpt>
      <trkpt lat="45.16635" lon="5.16322">
        <ele>500.57299804688</ele>
        <time>2009-11-04T14:46:04Z</time>
      </trkpt>
      <trkpt lat="45.16659" lon="5.16388">
        <ele>496.52700805664</ele>
        <time>2009-11-04T14:46:12Z</time>
      </trkpt>
      <trkpt lat="45.16671" lon="5.16438">
        <ele>493.22799682617</ele>
        <time>2009-11-04T14:46:17Z</time>
      </trkpt>
      <trkpt lat="45.16683" lon="5.16475">
        <ele>491.50500488281</ele>
        <time>2009-11-04T14:46:21Z</time>
      </trkpt>
      <trkpt lat="45.1671" lon="5.1652">
        <ele>489.10198974609</ele>
        <time>2009-11-04T14:46:27Z</time>
      </trkpt>
      <trkpt lat="45.16739" lon="5.16564">
        <ele>485.56600952148</ele>
        <time>2009-11-04T14:46:33Z</time>
      </trkpt>
      <trkpt lat="45.16762" lon="5.16597">
        <ele>483.42599487305</ele>
        <time>2009-11-04T14:46:37Z</time>
      </trkpt>
      <trkpt lat="45.16787" lon="5.16622">
        <ele>481.07598876953</ele>
        <time>2009-11-04T14:46:41Z</time>
      </trkpt>
      <trkpt lat="45.16793" lon="5.16627">
        <ele>480.67300415039</ele>
        <time>2009-11-04T14:46:42Z</time>
      </trkpt>
      <trkpt lat="45.16824" lon="5.16639">
        <ele>478.98098754883</ele>
        <time>2009-11-04T14:46:47Z</time>
      </trkpt>
      <trkpt lat="45.16853" lon="5.16648">
        <ele>477.18899536133</ele>
        <time>2009-11-04T14:46:51Z</time>
      </trkpt>
      <trkpt lat="45.16872" lon="5.16654">
        <ele>475.45401000977</ele>
        <time>2009-11-04T14:46:54Z</time>
      </trkpt>
      <trkpt lat="45.16888" lon="5.16656">
        <ele>474.95498657227</ele>
        <time>2009-11-04T14:46:56Z</time>
      </trkpt>
      <trkpt lat="45.16923" lon="5.16651">
        <ele>475.2200012207</ele>
        <time>2009-11-04T14:47:02Z</time>
      </trkpt>
      <trkpt lat="45.16943" lon="5.16641">
        <ele>477.26300048828</ele>
        <time>2009-11-04T14:47:07Z</time>
      </trkpt>
      <trkpt lat="45.16947" lon="5.16635">
        <ele>477.89999389648</ele>
        <time>2009-11-04T14:47:09Z</time>
      </trkpt>
      <trkpt lat="45.16948" lon="5.16623">
        <ele>478.59698486328</ele>
        <time>2009-11-04T14:47:12Z</time>
      </trkpt>
      <trkpt lat="45.16946" lon="5.16616">
        <ele>478.80700683594</ele>
        <time>2009-11-04T14:47:14Z</time>
      </trkpt>
      <trkpt lat="45.16939" lon="5.16595">
        <ele>479.64401245117</ele>
        <time>2009-11-04T14:47:20Z</time>
      </trkpt>
      <trkpt lat="45.16932" lon="5.16568">
        <ele>481.51300048828</ele>
        <time>2009-11-04T14:47:27Z</time>
      </trkpt>
      <trkpt lat="45.16931" lon="5.16551">
        <ele>482.34698486328</ele>
        <time>2009-11-04T14:47:33Z</time>
      </trkpt>
      <trkpt lat="45.16932" lon="5.1655">
        <ele>482.70700073242</ele>
        <time>2009-11-04T14:47:35Z</time>
      </trkpt>
      <trkpt lat="45.16931" lon="5.16564">
        <ele>481.59799194336</ele>
        <time>2009-11-04T14:47:41Z</time>
      </trkpt>
      <trkpt lat="45.16933" lon="5.16576">
        <ele>480.99499511719</ele>
        <time>2009-11-04T14:47:46Z</time>
      </trkpt>
      <trkpt lat="45.16936" lon="5.16589">
        <ele>480.27301025391</ele>
        <time>2009-11-04T14:47:49Z</time>
      </trkpt>
      <trkpt lat="45.16945" lon="5.16623">
        <ele>478.83898925781</ele>
        <time>2009-11-04T14:47:56Z</time>
      </trkpt>
      <trkpt lat="45.1695" lon="5.16639">
        <ele>478.18600463867</ele>
        <time>2009-11-04T14:48:01Z</time>
      </trkpt>
      <trkpt lat="45.16959" lon="5.16637">
        <ele>479.26800537109</ele>
        <time>2009-11-04T14:48:06Z</time>
      </trkpt>
      <trkpt lat="45.16976" lon="5.16625">
        <ele>481.94400024414</ele>
        <time>2009-11-04T14:48:13Z</time>
      </trkpt>
      <trkpt lat="45.16993" lon="5.16609">
        <ele>484.77099609375</ele>
        <time>2009-11-04T14:48:18Z</time>
      </trkpt>
      <trkpt lat="45.16997" lon="5.16606">
        <ele>484.9460144043</ele>
        <time>2009-11-04T14:48:19Z</time>
      </trkpt>
      <trkpt lat="45.17009" lon="5.16596">
        <ele>487.16299438477</ele>
        <time>2009-11-04T14:48:23Z</time>
      </trkpt>
      <trkpt lat="45.17014" lon="5.16588">
        <ele>488.15301513672</ele>
        <time>2009-11-04T14:48:26Z</time>
      </trkpt>
      <trkpt lat="45.17013" lon="5.1659">
        <ele>487.98599243164</ele>
        <time>2009-11-04T14:48:30Z</time>
      </trkpt>
      <trkpt lat="45.17009" lon="5.16593">
        <ele>487.39498901367</ele>
        <time>2009-11-04T14:48:32Z</time>
      </trkpt>
      <trkpt lat="45.17004" lon="5.16598">
        <ele>486.76699829102</ele>
        <time>2009-11-04T14:48:34Z</time>
      </trkpt>
      <trkpt lat="45.16996" lon="5.16606">
        <ele>485.27499389648</ele>
        <time>2009-11-04T14:48:39Z</time>
      </trkpt>
      <trkpt lat="45.16996" lon="5.16607">
        <ele>484.98599243164</ele>
        <time>2009-11-04T14:48:41Z</time>
      </trkpt>
      <trkpt lat="45.16991" lon="5.16612">
        <ele>484.28799438477</ele>
        <time>2009-11-04T14:48:57Z</time>
      </trkpt>
      <trkpt lat="45.16988" lon="5.16614">
        <ele>483.57901000977</ele>
        <time>2009-11-04T14:48:59Z</time>
      </trkpt>
      <trkpt lat="45.16984" lon="5.1662">
        <ele>483.09100341797</ele>
        <time>2009-11-04T14:49:03Z</time>
      </trkpt>
      <trkpt lat="45.16973" lon="5.16629">
        <ele>481.58801269531</ele>
        <time>2009-11-04T14:49:07Z</time>
      </trkpt>
      <trkpt lat="45.16969" lon="5.16632">
        <ele>481.0119934082</ele>
        <time>2009-11-04T14:49:08Z</time>
      </trkpt>
      <trkpt lat="45.16961" lon="5.16638">
        <ele>479.68600463867</ele>
        <time>2009-11-04T14:49:10Z</time>
      </trkpt>
      <trkpt lat="45.16931" lon="5.16648">
        <ele>476.40798950195</ele>
        <time>2009-11-04T14:49:16Z</time>
      </trkpt>
      <trkpt lat="45.16924" lon="5.16651">
        <ele>475.82901000977</ele>
        <time>2009-11-04T14:49:17Z</time>
      </trkpt>
      <trkpt lat="45.1691" lon="5.16655">
        <ele>475.64700317383</ele>
        <time>2009-11-04T14:49:19Z</time>
      </trkpt>
      <trkpt lat="45.16903" lon="5.16656">
        <ele>475.58401489258</ele>
        <time>2009-11-04T14:49:20Z</time>
      </trkpt>
      <trkpt lat="45.16883" lon="5.16656">
        <ele>475.55499267578</ele>
        <time>2009-11-04T14:49:23Z</time>
      </trkpt>
      <trkpt lat="45.16854" lon="5.16645">
        <ele>476.82400512695</ele>
        <time>2009-11-04T14:49:30Z</time>
      </trkpt>
      <trkpt lat="45.16831" lon="5.16638">
        <ele>478.76699829102</ele>
        <time>2009-11-04T14:49:37Z</time>
      </trkpt>
      <trkpt lat="45.16811" lon="5.16633">
        <ele>479.50500488281</ele>
        <time>2009-11-04T14:49:43Z</time>
      </trkpt>
      <trkpt lat="45.168" lon="5.16626">
        <ele>479.96499633789</ele>
        <time>2009-11-04T14:49:47Z</time>
      </trkpt>
      <trkpt lat="45.16788" lon="5.16616">
        <ele>481.04501342773</ele>
        <time>2009-11-04T14:49:52Z</time>
      </trkpt>
      <trkpt lat="45.16777" lon="5.16604">
        <ele>482.03201293945</ele>
        <time>2009-11-04T14:49:57Z</time>
      </trkpt>
      <trkpt lat="45.16761" lon="5.16587">
        <ele>483.50100708008</ele>
        <time>2009-11-04T14:50:04Z</time>
      </trkpt>
      <trkpt lat="45.16753" lon="5.16577">
        <ele>484.09899902344</ele>
        <time>2009-11-04T14:50:08Z</time>
      </trkpt>
      <trkpt lat="45.16745" lon="5.16564">
        <ele>485.26400756836</ele>
        <time>2009-11-04T14:50:13Z</time>
      </trkpt>
      <trkpt lat="45.16734" lon="5.16548">
        <ele>486.71301269531</ele>
        <time>2009-11-04T14:50:19Z</time>
      </trkpt>
      <trkpt lat="45.16719" lon="5.16526">
        <ele>488.21301269531</ele>
        <time>2009-11-04T14:50:27Z</time>
      </trkpt>
      <trkpt lat="45.16699" lon="5.16495">
        <ele>489.68499755859</ele>
        <time>2009-11-04T14:50:37Z</time>
      </trkpt>
      <trkpt lat="45.16687" lon="5.16473">
        <ele>490.86801147461</ele>
        <time>2009-11-04T14:50:45Z</time>
      </trkpt>
      <trkpt lat="45.16679" lon="5.16454">
        <ele>491.85501098633</ele>
        <time>2009-11-04T14:50:52Z</time>
      </trkpt>
      <trkpt lat="45.16673" lon="5.16431">
        <ele>491.85800170898</ele>
        <time>2009-11-04T14:51:00Z</time>
      </trkpt>
      <trkpt lat="45.16668" lon="5.16409">
        <ele>493.99499511719</ele>
        <time>2009-11-04T14:51:08Z</time>
      </trkpt>
      <trkpt lat="45.16661" lon="5.16383">
        <ele>496.0719909668</ele>
        <time>2009-11-04T14:51:16Z</time>
      </trkpt>
      <trkpt lat="45.16652" lon="5.16357">
        <ele>498.0419921875</ele>
        <time>2009-11-04T14:51:24Z</time>
      </trkpt>
      <trkpt lat="45.16642" lon="5.16333">
        <ele>499.43499755859</ele>
        <time>2009-11-04T14:51:32Z</time>
      </trkpt>
      <trkpt lat="45.16634" lon="5.16312">
        <ele>500.51501464844</ele>
        <time>2009-11-04T14:51:39Z</time>
      </trkpt>
      <trkpt lat="45.16625" lon="5.16289">
        <ele>501.64199829102</ele>
        <time>2009-11-04T14:51:46Z</time>
      </trkpt>
      <trkpt lat="45.16616" lon="5.16265">
        <ele>502.875</ele>
        <time>2009-11-04T14:51:53Z</time>
      </trkpt>
      <trkpt lat="45.16606" lon="5.16235">
        <ele>503.80099487305</ele>
        <time>2009-11-04T14:52:01Z</time>
      </trkpt>
      <trkpt lat="45.16596" lon="5.16199">
        <ele>504.51400756836</ele>
        <time>2009-11-04T14:52:10Z</time>
      </trkpt>
      <trkpt lat="45.16585" lon="5.1616">
        <ele>504.18099975586</ele>
        <time>2009-11-04T14:52:19Z</time>
      </trkpt>
      <trkpt lat="45.16576" lon="5.16134">
        <ele>503.9289855957</ele>
        <time>2009-11-04T14:52:25Z</time>
      </trkpt>
      <trkpt lat="45.16565" lon="5.16107">
        <ele>503.59799194336</ele>
        <time>2009-11-04T14:52:32Z</time>
      </trkpt>
      <trkpt lat="45.16558" lon="5.16086">
        <ele>503.20599365234</ele>
        <time>2009-11-04T14:52:36Z</time>
      </trkpt>
      <trkpt lat="45.1655" lon="5.16057">
        <ele>502.6789855957</ele>
        <time>2009-11-04T14:52:41Z</time>
      </trkpt>
      <trkpt lat="45.16543" lon="5.16037">
        <ele>502.14498901367</ele>
        <time>2009-11-04T14:52:46Z</time>
      </trkpt>
      <trkpt lat="45.16531" lon="5.1601">
        <ele>501.80999755859</ele>
        <time>2009-11-04T14:52:53Z</time>
      </trkpt>
      <trkpt lat="45.16516" lon="5.15979">
        <ele>501.1969909668</ele>
        <time>2009-11-04T14:53:00Z</time>
      </trkpt>
      <trkpt lat="45.16505" lon="5.15955">
        <ele>500.76400756836</ele>
        <time>2009-11-04T14:53:05Z</time>
      </trkpt>
      <trkpt lat="45.16497" lon="5.15941">
        <ele>501.00500488281</ele>
        <time>2009-11-04T14:53:09Z</time>
      </trkpt>
      <trkpt lat="45.16491" lon="5.15929">
        <ele>500.55099487305</ele>
        <time>2009-11-04T14:53:13Z</time>
      </trkpt>
      <trkpt lat="45.16473" lon="5.15897">
        <ele>500.23999023438</ele>
        <time>2009-11-04T14:53:23Z</time>
      </trkpt>
      <trkpt lat="45.16461" lon="5.15871">
        <ele>500.07000732422</ele>
        <time>2009-11-04T14:53:30Z</time>
      </trkpt>
      <trkpt lat="45.16447" lon="5.15841">
        <ele>500.02099609375</ele>
        <time>2009-11-04T14:53:38Z</time>
      </trkpt>
      <trkpt lat="45.16444" lon="5.15828">
        <ele>500.30700683594</ele>
        <time>2009-11-04T14:53:43Z</time>
      </trkpt>
      <trkpt lat="45.16444" lon="5.15828">
        <ele>500.20300292969</ele>
        <time>2009-11-04T14:53:45Z</time>
      </trkpt>
      <trkpt lat="45.16446" lon="5.15835">
        <ele>499.93301391602</ele>
        <time>2009-11-04T14:54:00Z</time>
      </trkpt>
      <trkpt lat="45.16444" lon="5.15855">
        <ele>499.82699584961</ele>
        <time>2009-11-04T14:54:09Z</time>
      </trkpt>
      <trkpt lat="45.16439" lon="5.15875">
        <ele>499.82400512695</ele>
        <time>2009-11-04T14:54:16Z</time>
      </trkpt>
      <trkpt lat="45.16431" lon="5.15902">
        <ele>499.82598876953</ele>
        <time>2009-11-04T14:54:23Z</time>
      </trkpt>
      <trkpt lat="45.1642" lon="5.15929">
        <ele>499.82998657227</ele>
        <time>2009-11-04T14:54:30Z</time>
      </trkpt>
      <trkpt lat="45.16398" lon="5.15976">
        <ele>499.83599853516</ele>
        <time>2009-11-04T14:54:41Z</time>
      </trkpt>
      <trkpt lat="45.16383" lon="5.16006">
        <ele>499.8450012207</ele>
        <time>2009-11-04T14:54:49Z</time>
      </trkpt>
      <trkpt lat="45.16365" lon="5.16039">
        <ele>499.85501098633</ele>
        <time>2009-11-04T14:54:57Z</time>
      </trkpt>
      <trkpt lat="45.16351" lon="5.16064">
        <ele>498.39498901367</ele>
        <time>2009-11-04T14:55:01Z</time>
      </trkpt>
      <trkpt lat="45.16332" lon="5.16099">
        <ele>498.28399658203</ele>
        <time>2009-11-04T14:55:06Z</time>
      </trkpt>
      <trkpt lat="45.16306" lon="5.16143">
        <ele>490.34201049805</ele>
        <time>2009-11-04T14:55:11Z</time>
      </trkpt>
      <trkpt lat="45.163" lon="5.16151">
        <ele>489.45401000977</ele>
        <time>2009-11-04T14:55:12Z</time>
      </trkpt>
      <trkpt lat="45.16283" lon="5.16172">
        <ele>487.83099365234</ele>
        <time>2009-11-04T14:55:15Z</time>
      </trkpt>
      <trkpt lat="45.16267" lon="5.16192">
        <ele>486.39498901367</ele>
        <time>2009-11-04T14:55:19Z</time>
      </trkpt>
      <trkpt lat="45.16263" lon="5.16196">
        <ele>485.75500488281</ele>
        <time>2009-11-04T14:55:22Z</time>
      </trkpt>
      <trkpt lat="45.16261" lon="5.16199">
        <ele>485.22900390625</ele>
        <time>2009-11-04T14:55:27Z</time>
      </trkpt>
      <trkpt lat="45.16262" lon="5.16196">
        <ele>485.45300292969</ele>
        <time>2009-11-04T14:55:32Z</time>
      </trkpt>
      <trkpt lat="45.16268" lon="5.16191">
        <ele>485.95401000977</ele>
        <time>2009-11-04T14:55:37Z</time>
      </trkpt>
      <trkpt lat="45.16273" lon="5.16185">
        <ele>486.3039855957</ele>
        <time>2009-11-04T14:55:40Z</time>
      </trkpt>
      <trkpt lat="45.16282" lon="5.16176">
        <ele>487.1130065918</ele>
        <time>2009-11-04T14:55:44Z</time>
      </trkpt>
      <trkpt lat="45.16298" lon="5.16156">
        <ele>488.01098632812</ele>
        <time>2009-11-04T14:55:50Z</time>
      </trkpt>
      <trkpt lat="45.16311" lon="5.16154">
        <ele>489.82501220703</ele>
        <time>2009-11-04T14:55:55Z</time>
      </trkpt>
      <trkpt lat="45.16316" lon="5.16159">
        <ele>490.24600219727</ele>
        <time>2009-11-04T14:55:57Z</time>
      </trkpt>
      <trkpt lat="45.16328" lon="5.16178">
        <ele>492.03698730469</ele>
        <time>2009-11-04T14:56:03Z</time>
      </trkpt>
      <trkpt lat="45.16336" lon="5.1619">
        <ele>493.28500366211</ele>
        <time>2009-11-04T14:56:07Z</time>
      </trkpt>
      <trkpt lat="45.1634" lon="5.16196">
        <ele>493.8330078125</ele>
        <time>2009-11-04T14:56:09Z</time>
      </trkpt>
      <trkpt lat="45.16342" lon="5.16199">
        <ele>493.96600341797</ele>
        <time>2009-11-04T14:56:10Z</time>
      </trkpt>
      <trkpt lat="45.16349" lon="5.16214">
        <ele>495.26501464844</ele>
        <time>2009-11-04T14:56:15Z</time>
      </trkpt>
      <trkpt lat="45.16358" lon="5.16229">
        <ele>496.29299926758</ele>
        <time>2009-11-04T14:56:20Z</time>
      </trkpt>
      <trkpt lat="45.16364" lon="5.16245">
        <ele>497.46398925781</ele>
        <time>2009-11-04T14:56:25Z</time>
      </trkpt>
      <trkpt lat="45.16371" lon="5.16262">
        <ele>498.62899780273</ele>
        <time>2009-11-04T14:56:30Z</time>
      </trkpt>
      <trkpt lat="45.16378" lon="5.1628">
        <ele>500.1960144043</ele>
        <time>2009-11-04T14:56:36Z</time>
      </trkpt>
      <trkpt lat="45.16388" lon="5.16304">
        <ele>502.08599853516</ele>
        <time>2009-11-04T14:56:43Z</time>
      </trkpt>
      <trkpt lat="45.16397" lon="5.16332">
        <ele>503.41799926758</ele>
        <time>2009-11-04T14:56:51Z</time>
      </trkpt>
      <trkpt lat="45.16409" lon="5.16362">
        <ele>504.59399414062</ele>
        <time>2009-11-04T14:56:59Z</time>
      </trkpt>
      <trkpt lat="45.16417" lon="5.16379">
        <ele>505.11199951172</ele>
        <time>2009-11-04T14:57:04Z</time>
      </trkpt>
      <trkpt lat="45.16417" lon="5.1638">
        <ele>505.15701293945</ele>
        <time>2009-11-04T14:57:06Z</time>
      </trkpt>
      <trkpt lat="45.16415" lon="5.16369">
        <ele>504.83599853516</ele>
        <time>2009-11-04T14:57:19Z</time>
      </trkpt>
      <trkpt lat="45.16404" lon="5.16347">
        <ele>504.14401245117</ele>
        <time>2009-11-04T14:57:26Z</time>
      </trkpt>
      <trkpt lat="45.16398" lon="5.16329">
        <ele>503.91101074219</ele>
        <time>2009-11-04T14:57:30Z</time>
      </trkpt>
      <trkpt lat="45.16393" lon="5.16313">
        <ele>502.29299926758</ele>
        <time>2009-11-04T14:57:33Z</time>
      </trkpt>
      <trkpt lat="45.1638" lon="5.16282">
        <ele>500.09201049805</ele>
        <time>2009-11-04T14:57:38Z</time>
      </trkpt>
      <trkpt lat="45.16377" lon="5.16275">
        <ele>499.57699584961</ele>
        <time>2009-11-04T14:57:39Z</time>
      </trkpt>
      <trkpt lat="45.16375" lon="5.16268">
        <ele>499.42199707031</ele>
        <time>2009-11-04T14:57:40Z</time>
      </trkpt>
      <trkpt lat="45.16363" lon="5.1624">
        <ele>497.38299560547</ele>
        <time>2009-11-04T14:57:44Z</time>
      </trkpt>
      <trkpt lat="45.16353" lon="5.16218">
        <ele>495.96099853516</ele>
        <time>2009-11-04T14:57:47Z</time>
      </trkpt>
      <trkpt lat="45.16346" lon="5.16205">
        <ele>494.85598754883</ele>
        <time>2009-11-04T14:57:49Z</time>
      </trkpt>
      <trkpt lat="45.16328" lon="5.16175">
        <ele>492.10198974609</ele>
        <time>2009-11-04T14:57:54Z</time>
      </trkpt>
      <trkpt lat="45.16309" lon="5.16146">
        <ele>489.05700683594</ele>
        <time>2009-11-04T14:58:00Z</time>
      </trkpt>
      <trkpt lat="45.16294" lon="5.16151">
        <ele>487.58200073242</ele>
        <time>2009-11-04T14:58:04Z</time>
      </trkpt>
      <trkpt lat="45.1626" lon="5.16195">
        <ele>485.3450012207</ele>
        <time>2009-11-04T14:58:13Z</time>
      </trkpt>
      <trkpt lat="45.16239" lon="5.16225">
        <ele>482.51300048828</ele>
        <time>2009-11-04T14:58:17Z</time>
      </trkpt>
      <trkpt lat="45.16215" lon="5.16264">
        <ele>478.69500732422</ele>
        <time>2009-11-04T14:58:21Z</time>
      </trkpt>
      <trkpt lat="45.1621" lon="5.16273">
        <ele>478.27600097656</ele>
        <time>2009-11-04T14:58:22Z</time>
      </trkpt>
      <trkpt lat="45.16185" lon="5.16305">
        <ele>473.92599487305</ele>
        <time>2009-11-04T14:58:26Z</time>
      </trkpt>
      <trkpt lat="45.1616" lon="5.16336">
        <ele>469.23599243164</ele>
        <time>2009-11-04T14:58:29Z</time>
      </trkpt>
      <trkpt lat="45.16141" lon="5.16392">
        <ele>465.97299194336</ele>
        <time>2009-11-04T14:58:33Z</time>
      </trkpt>
      <trkpt lat="45.16126" lon="5.16495">
        <ele>461.03698730469</ele>
        <time>2009-11-04T14:58:40Z</time>
      </trkpt>
      <trkpt lat="45.16106" lon="5.1655">
        <ele>457.44000244141</ele>
        <time>2009-11-04T14:58:45Z</time>
      </trkpt>
      <trkpt lat="45.16093" lon="5.1661">
        <ele>451.9289855957</ele>
        <time>2009-11-04T14:58:49Z</time>
      </trkpt>
      <trkpt lat="45.16088" lon="5.16644">
        <ele>449.68301391602</ele>
        <time>2009-11-04T14:58:51Z</time>
      </trkpt>
      <trkpt lat="45.16069" lon="5.16694">
        <ele>443.7799987793</ele>
        <time>2009-11-04T14:58:55Z</time>
      </trkpt>
      <trkpt lat="45.16055" lon="5.1671">
        <ele>440.93899536133</ele>
        <time>2009-11-04T14:58:58Z</time>
      </trkpt>
      <trkpt lat="45.16037" lon="5.16713">
        <ele>439.35299682617</ele>
        <time>2009-11-04T14:59:01Z</time>
      </trkpt>
      <trkpt lat="45.16017" lon="5.16702">
        <ele>437.96499633789</ele>
        <time>2009-11-04T14:59:04Z</time>
      </trkpt>
      <trkpt lat="45.16004" lon="5.16689">
        <ele>436.89099121094</ele>
        <time>2009-11-04T14:59:06Z</time>
      </trkpt>
      <trkpt lat="45.15983" lon="5.16665">
        <ele>435.43798828125</ele>
        <time>2009-11-04T14:59:09Z</time>
      </trkpt>
      <trkpt lat="45.15948" lon="5.16648">
        <ele>432.39401245117</ele>
        <time>2009-11-04T14:59:13Z</time>
      </trkpt>
      <trkpt lat="45.15907" lon="5.16648">
        <ele>429.11099243164</ele>
        <time>2009-11-04T14:59:17Z</time>
      </trkpt>
      <trkpt lat="45.15889" lon="5.16639">
        <ele>427.36801147461</ele>
        <time>2009-11-04T14:59:19Z</time>
      </trkpt>
      <trkpt lat="45.15879" lon="5.16614">
        <ele>426.01998901367</ele>
        <time>2009-11-04T14:59:21Z</time>
      </trkpt>
      <trkpt lat="45.15872" lon="5.16588">
        <ele>424.97299194336</ele>
        <time>2009-11-04T14:59:23Z</time>
      </trkpt>
      <trkpt lat="45.15866" lon="5.16559">
        <ele>423.78799438477</ele>
        <time>2009-11-04T14:59:25Z</time>
      </trkpt>
      <trkpt lat="45.15864" lon="5.16545">
        <ele>423.21499633789</ele>
        <time>2009-11-04T14:59:26Z</time>
      </trkpt>
      <trkpt lat="45.15865" lon="5.16474">
        <ele>421.71701049805</ele>
        <time>2009-11-04T14:59:31Z</time>
      </trkpt>
      <trkpt lat="45.15865" lon="5.16461">
        <ele>421.65399169922</ele>
        <time>2009-11-04T14:59:32Z</time>
      </trkpt>
      <trkpt lat="45.15855" lon="5.16412">
        <ele>421.77499389648</ele>
        <time>2009-11-04T14:59:36Z</time>
      </trkpt>
      <trkpt lat="45.15851" lon="5.16403">
        <ele>421.89300537109</ele>
        <time>2009-11-04T14:59:37Z</time>
      </trkpt>
      <trkpt lat="45.15831" lon="5.16359">
        <ele>423.83499145508</ele>
        <time>2009-11-04T14:59:43Z</time>
      </trkpt>
      <trkpt lat="45.15817" lon="5.16335">
        <ele>425.62701416016</ele>
        <time>2009-11-04T14:59:48Z</time>
      </trkpt>
      <trkpt lat="45.1581" lon="5.1632">
        <ele>427.07299804688</ele>
        <time>2009-11-04T14:59:52Z</time>
      </trkpt>
      <trkpt lat="45.15808" lon="5.16316">
        <ele>427.42199707031</ele>
        <time>2009-11-04T14:59:56Z</time>
      </trkpt>
      <trkpt lat="45.15804" lon="5.16315">
        <ele>427.66400146484</ele>
        <time>2009-11-04T15:01:05Z</time>
      </trkpt>
      <trkpt lat="45.15806" lon="5.16306">
        <ele>427.58898925781</ele>
        <time>2009-11-04T15:01:09Z</time>
      </trkpt>
      <trkpt lat="45.15807" lon="5.16293">
        <ele>427.52398681641</ele>
        <time>2009-11-04T15:01:12Z</time>
      </trkpt>
      <trkpt lat="45.15808" lon="5.16254">
        <ele>426.82501220703</ele>
        <time>2009-11-04T15:01:19Z</time>
      </trkpt>
      <trkpt lat="45.15809" lon="5.16242">
        <ele>426.39801025391</ele>
        <time>2009-11-04T15:01:21Z</time>
      </trkpt>
      <trkpt lat="45.1581" lon="5.16229">
        <ele>426.31600952148</ele>
        <time>2009-11-04T15:01:23Z</time>
      </trkpt>
      <trkpt lat="45.1581" lon="5.16202">
        <ele>425.51501464844</ele>
        <time>2009-11-04T15:01:27Z</time>
      </trkpt>
      <trkpt lat="45.15812" lon="5.1614">
        <ele>424.92401123047</ele>
        <time>2009-11-04T15:01:35Z</time>
      </trkpt>
      <trkpt lat="45.1581" lon="5.16106">
        <ele>424.00500488281</ele>
        <time>2009-11-04T15:01:39Z</time>
      </trkpt>
      <trkpt lat="45.15807" lon="5.16071">
        <ele>423.43301391602</ele>
        <time>2009-11-04T15:01:43Z</time>
      </trkpt>
      <trkpt lat="45.15794" lon="5.16004">
        <ele>422.50698852539</ele>
        <time>2009-11-04T15:01:50Z</time>
      </trkpt>
      <trkpt lat="45.15784" lon="5.15954">
        <ele>420.82901000977</ele>
        <time>2009-11-04T15:01:55Z</time>
      </trkpt>
      <trkpt lat="45.15773" lon="5.15923">
        <ele>420.125</ele>
        <time>2009-11-04T15:01:58Z</time>
      </trkpt>
      <trkpt lat="45.15742" lon="5.15869">
        <ele>418.69500732422</ele>
        <time>2009-11-04T15:02:04Z</time>
      </trkpt>
      <trkpt lat="45.15731" lon="5.15851">
        <ele>418.45901489258</ele>
        <time>2009-11-04T15:02:06Z</time>
      </trkpt>
      <trkpt lat="45.15721" lon="5.15833">
        <ele>417.95300292969</ele>
        <time>2009-11-04T15:02:08Z</time>
      </trkpt>
      <trkpt lat="45.15699" lon="5.15774">
        <ele>416.4280090332</ele>
        <time>2009-11-04T15:02:14Z</time>
      </trkpt>
      <trkpt lat="45.15688" lon="5.15732">
        <ele>415.32901000977</ele>
        <time>2009-11-04T15:02:18Z</time>
      </trkpt>
      <trkpt lat="45.15673" lon="5.15659">
        <ele>413.93301391602</ele>
        <time>2009-11-04T15:02:25Z</time>
      </trkpt>
      <trkpt lat="45.15661" lon="5.1558">
        <ele>412.39001464844</ele>
        <time>2009-11-04T15:02:32Z</time>
      </trkpt>
      <trkpt lat="45.15659" lon="5.15508">
        <ele>411.44900512695</ele>
        <time>2009-11-04T15:02:38Z</time>
      </trkpt>
      <trkpt lat="45.15656" lon="5.15422">
        <ele>408.71200561523</ele>
        <time>2009-11-04T15:02:45Z</time>
      </trkpt>
      <trkpt lat="45.15636" lon="5.1532">
        <ele>405.62701416016</ele>
        <time>2009-11-04T15:02:53Z</time>
      </trkpt>
      <trkpt lat="45.15633" lon="5.15308">
        <ele>405.45199584961</ele>
        <time>2009-11-04T15:02:54Z</time>
      </trkpt>
      <trkpt lat="45.15625" lon="5.15243">
        <ele>403.02301025391</ele>
        <time>2009-11-04T15:03:00Z</time>
      </trkpt>
      <trkpt lat="45.15624" lon="5.1522">
        <ele>401.76599121094</ele>
        <time>2009-11-04T15:03:02Z</time>
      </trkpt>
      <trkpt lat="45.15621" lon="5.15172">
        <ele>399.71899414062</ele>
        <time>2009-11-04T15:03:06Z</time>
      </trkpt>
      <trkpt lat="45.1562" lon="5.15123">
        <ele>397.86199951172</ele>
        <time>2009-11-04T15:03:10Z</time>
      </trkpt>
      <trkpt lat="45.15614" lon="5.15052">
        <ele>396.44799804688</ele>
        <time>2009-11-04T15:03:16Z</time>
      </trkpt>
      <trkpt lat="45.15611" lon="5.15028">
        <ele>394.92498779297</ele>
        <time>2009-11-04T15:03:18Z</time>
      </trkpt>
      <trkpt lat="45.1559" lon="5.14958">
        <ele>391.22299194336</ele>
        <time>2009-11-04T15:03:24Z</time>
      </trkpt>
      <trkpt lat="45.15564" lon="5.14894">
        <ele>387.7080078125</ele>
        <time>2009-11-04T15:03:29Z</time>
      </trkpt>
      <trkpt lat="45.1552" lon="5.14807">
        <ele>384.01800537109</ele>
        <time>2009-11-04T15:03:36Z</time>
      </trkpt>
      <trkpt lat="45.15501" lon="5.14773">
        <ele>383.37600708008</ele>
        <time>2009-11-04T15:03:39Z</time>
      </trkpt>
      <trkpt lat="45.15459" lon="5.14704">
        <ele>381.99398803711</ele>
        <time>2009-11-04T15:03:46Z</time>
      </trkpt>
      <trkpt lat="45.15408" lon="5.14632">
        <ele>378.89401245117</ele>
        <time>2009-11-04T15:03:54Z</time>
      </trkpt>
      <trkpt lat="45.15369" lon="5.14577">
        <ele>377.23400878906</ele>
        <time>2009-11-04T15:04:00Z</time>
      </trkpt>
      <trkpt lat="45.15345" lon="5.14526">
        <ele>376.54699707031</ele>
        <time>2009-11-04T15:04:05Z</time>
      </trkpt>
      <trkpt lat="45.15332" lon="5.14471">
        <ele>376.02200317383</ele>
        <time>2009-11-04T15:04:10Z</time>
      </trkpt>
      <trkpt lat="45.15328" lon="5.14402">
        <ele>375.2380065918</ele>
        <time>2009-11-04T15:04:16Z</time>
      </trkpt>
      <trkpt lat="45.15332" lon="5.14368">
        <ele>374.45401000977</ele>
        <time>2009-11-04T15:04:19Z</time>
      </trkpt>
      <trkpt lat="45.15347" lon="5.14275">
        <ele>372.72500610352</ele>
        <time>2009-11-04T15:04:27Z</time>
      </trkpt>
      <trkpt lat="45.15353" lon="5.14239">
        <ele>370.69400024414</ele>
        <time>2009-11-04T15:04:30Z</time>
      </trkpt>
      <trkpt lat="45.15369" lon="5.14177">
        <ele>369.36898803711</ele>
        <time>2009-11-04T15:04:35Z</time>
      </trkpt>
      <trkpt lat="45.1539" lon="5.14132">
        <ele>368.37200927734</ele>
        <time>2009-11-04T15:04:39Z</time>
      </trkpt>
      <trkpt lat="45.15395" lon="5.14121">
        <ele>368.37701416016</ele>
        <time>2009-11-04T15:04:40Z</time>
      </trkpt>
      <trkpt lat="45.15409" lon="5.14073">
        <ele>367.33898925781</ele>
        <time>2009-11-04T15:04:44Z</time>
      </trkpt>
      <trkpt lat="45.15408" lon="5.14033">
        <ele>366.67300415039</ele>
        <time>2009-11-04T15:04:47Z</time>
      </trkpt>
      <trkpt lat="45.15406" lon="5.1402">
        <ele>366.29901123047</ele>
        <time>2009-11-04T15:04:48Z</time>
      </trkpt>
      <trkpt lat="45.15383" lon="5.1389">
        <ele>364.02398681641</ele>
        <time>2009-11-04T15:04:58Z</time>
      </trkpt>
      <trkpt lat="45.15366" lon="5.13773">
        <ele>362.02099609375</ele>
        <time>2009-11-04T15:05:07Z</time>
      </trkpt>
      <trkpt lat="45.15349" lon="5.13653">
        <ele>359.54501342773</ele>
        <time>2009-11-04T15:05:16Z</time>
      </trkpt>
      <trkpt lat="45.15326" lon="5.13549">
        <ele>357.49899291992</ele>
        <time>2009-11-04T15:05:24Z</time>
      </trkpt>
      <trkpt lat="45.15295" lon="5.13464">
        <ele>355.42700195312</ele>
        <time>2009-11-04T15:05:31Z</time>
      </trkpt>
      <trkpt lat="45.15279" lon="5.13429">
        <ele>354.07800292969</ele>
        <time>2009-11-04T15:05:34Z</time>
      </trkpt>
      <trkpt lat="45.15216" lon="5.13303">
        <ele>350.79998779297</ele>
        <time>2009-11-04T15:05:45Z</time>
      </trkpt>
      <trkpt lat="45.15172" lon="5.13217">
        <ele>349.77801513672</ele>
        <time>2009-11-04T15:05:53Z</time>
      </trkpt>
      <trkpt lat="45.15136" lon="5.13148">
        <ele>349.20098876953</ele>
        <time>2009-11-04T15:06:00Z</time>
      </trkpt>
      <trkpt lat="45.15104" lon="5.13085">
        <ele>349.38000488281</ele>
        <time>2009-11-04T15:06:07Z</time>
      </trkpt>
      <trkpt lat="45.15065" lon="5.13007">
        <ele>348.28201293945</ele>
        <time>2009-11-04T15:06:16Z</time>
      </trkpt>
      <trkpt lat="45.15009" lon="5.12897">
        <ele>345.95401000977</ele>
        <time>2009-11-04T15:06:28Z</time>
      </trkpt>
      <trkpt lat="45.14959" lon="5.12796">
        <ele>342.5419921875</ele>
        <time>2009-11-04T15:06:38Z</time>
      </trkpt>
      <trkpt lat="45.14903" lon="5.12687">
        <ele>339.39199829102</ele>
        <time>2009-11-04T15:06:48Z</time>
      </trkpt>
      <trkpt lat="45.14857" lon="5.12595">
        <ele>336.31600952148</ele>
        <time>2009-11-04T15:06:56Z</time>
      </trkpt>
      <trkpt lat="45.14828" lon="5.12539">
        <ele>334.90701293945</ele>
        <time>2009-11-04T15:07:01Z</time>
      </trkpt>
      <trkpt lat="45.14802" lon="5.12498">
        <ele>333.76599121094</ele>
        <time>2009-11-04T15:07:05Z</time>
      </trkpt>
      <trkpt lat="45.14757" lon="5.12445">
        <ele>332.34399414062</ele>
        <time>2009-11-04T15:07:11Z</time>
      </trkpt>
      <trkpt lat="45.14697" lon="5.12377">
        <ele>329.97100830078</ele>
        <time>2009-11-04T15:07:19Z</time>
      </trkpt>
      <trkpt lat="45.14641" lon="5.12315">
        <ele>329.38598632812</ele>
        <time>2009-11-04T15:07:27Z</time>
      </trkpt>
      <trkpt lat="45.14622" lon="5.12296">
        <ele>329.09201049805</ele>
        <time>2009-11-04T15:07:30Z</time>
      </trkpt>
      <trkpt lat="45.14596" lon="5.12283">
        <ele>329.31799316406</ele>
        <time>2009-11-04T15:07:34Z</time>
      </trkpt>
      <trkpt lat="45.14567" lon="5.12264">
        <ele>329.46600341797</ele>
        <time>2009-11-04T15:07:39Z</time>
      </trkpt>
      <trkpt lat="45.14539" lon="5.12237">
        <ele>330.28900146484</ele>
        <time>2009-11-04T15:07:44Z</time>
      </trkpt>
      <trkpt lat="45.14534" lon="5.12231">
        <ele>330.31399536133</ele>
        <time>2009-11-04T15:07:45Z</time>
      </trkpt>
      <trkpt lat="45.14495" lon="5.12181">
        <ele>330.27099609375</ele>
        <time>2009-11-04T15:07:53Z</time>
      </trkpt>
      <trkpt lat="45.14478" lon="5.12155">
        <ele>330.53698730469</ele>
        <time>2009-11-04T15:07:57Z</time>
      </trkpt>
      <trkpt lat="45.1447" lon="5.12141">
        <ele>330.47698974609</ele>
        <time>2009-11-04T15:07:59Z</time>
      </trkpt>
      <trkpt lat="45.14433" lon="5.12089">
        <ele>330.54598999023</ele>
        <time>2009-11-04T15:08:07Z</time>
      </trkpt>
      <trkpt lat="45.14419" lon="5.1207">
        <ele>330.76000976562</ele>
        <time>2009-11-04T15:08:10Z</time>
      </trkpt>
      <trkpt lat="45.14388" lon="5.12025">
        <ele>330.66299438477</ele>
        <time>2009-11-04T15:08:17Z</time>
      </trkpt>
      <trkpt lat="45.14364" lon="5.11999">
        <ele>331.25500488281</ele>
        <time>2009-11-04T15:08:22Z</time>
      </trkpt>
      <trkpt lat="45.1432" lon="5.11963">
        <ele>330.75</ele>
        <time>2009-11-04T15:08:30Z</time>
      </trkpt>
      <trkpt lat="45.14269" lon="5.11926">
        <ele>329.19198608398</ele>
        <time>2009-11-04T15:08:38Z</time>
      </trkpt>
      <trkpt lat="45.14214" lon="5.11885">
        <ele>327.94500732422</ele>
        <time>2009-11-04T15:08:46Z</time>
      </trkpt>
      <trkpt lat="45.14158" lon="5.11838">
        <ele>326.93798828125</ele>
        <time>2009-11-04T15:08:54Z</time>
      </trkpt>
      <trkpt lat="45.14084" lon="5.11776">
        <ele>325.91000366211</ele>
        <time>2009-11-04T15:09:04Z</time>
      </trkpt>
      <trkpt lat="45.14009" lon="5.11716">
        <ele>325.06799316406</ele>
        <time>2009-11-04T15:09:14Z</time>
      </trkpt>
      <trkpt lat="45.13933" lon="5.11657">
        <ele>323.54000854492</ele>
        <time>2009-11-04T15:09:24Z</time>
      </trkpt>
      <trkpt lat="45.13869" lon="5.11605">
        <ele>320.46301269531</ele>
        <time>2009-11-04T15:09:32Z</time>
      </trkpt>
      <trkpt lat="45.1381" lon="5.11558">
        <ele>318.07299804688</ele>
        <time>2009-11-04T15:09:39Z</time>
      </trkpt>
      <trkpt lat="45.13785" lon="5.11537">
        <ele>316.84799194336</ele>
        <time>2009-11-04T15:09:42Z</time>
      </trkpt>
      <trkpt lat="45.1366" lon="5.11436">
        <ele>313.22198486328</ele>
        <time>2009-11-04T15:09:57Z</time>
      </trkpt>
      <trkpt lat="45.13585" lon="5.11377">
        <ele>311.83599853516</ele>
        <time>2009-11-04T15:10:06Z</time>
      </trkpt>
      <trkpt lat="45.13488" lon="5.11302">
        <ele>309.65200805664</ele>
        <time>2009-11-04T15:10:18Z</time>
      </trkpt>
      <trkpt lat="45.13406" lon="5.11236">
        <ele>308.26000976562</ele>
        <time>2009-11-04T15:10:28Z</time>
      </trkpt>
      <trkpt lat="45.13343" lon="5.11182">
        <ele>307.47299194336</ele>
        <time>2009-11-04T15:10:36Z</time>
      </trkpt>
      <trkpt lat="45.13264" lon="5.1111">
        <ele>305.64999389648</ele>
        <time>2009-11-04T15:10:46Z</time>
      </trkpt>
      <trkpt lat="45.13181" lon="5.1103">
        <ele>301.80700683594</ele>
        <time>2009-11-04T15:10:56Z</time>
      </trkpt>
      <trkpt lat="45.1308" lon="5.10931">
        <ele>297.51098632812</ele>
        <time>2009-11-04T15:11:08Z</time>
      </trkpt>
      <trkpt lat="45.12979" lon="5.10832">
        <ele>293.55200195312</ele>
        <time>2009-11-04T15:11:20Z</time>
      </trkpt>
      <trkpt lat="45.12886" lon="5.10745">
        <ele>290.95599365234</ele>
        <time>2009-11-04T15:11:31Z</time>
      </trkpt>
      <trkpt lat="45.12833" lon="5.10713">
        <ele>290.43200683594</ele>
        <time>2009-11-04T15:11:37Z</time>
      </trkpt>
      <trkpt lat="45.12787" lon="5.10703">
        <ele>289.81900024414</ele>
        <time>2009-11-04T15:11:42Z</time>
      </trkpt>
      <trkpt lat="45.12703" lon="5.10698">
        <ele>287.80599975586</ele>
        <time>2009-11-04T15:11:51Z</time>
      </trkpt>
      <trkpt lat="45.126" lon="5.10696">
        <ele>284.45700073242</ele>
        <time>2009-11-04T15:12:02Z</time>
      </trkpt>
      <trkpt lat="45.12526" lon="5.10706">
        <ele>282.66799926758</ele>
        <time>2009-11-04T15:12:10Z</time>
      </trkpt>
      <trkpt lat="45.12426" lon="5.10722">
        <ele>280.73901367188</ele>
        <time>2009-11-04T15:12:21Z</time>
      </trkpt>
      <trkpt lat="45.12326" lon="5.10742">
        <ele>279.68200683594</ele>
        <time>2009-11-04T15:12:32Z</time>
      </trkpt>
      <trkpt lat="45.12276" lon="5.10767">
        <ele>279.42498779297</ele>
        <time>2009-11-04T15:12:38Z</time>
      </trkpt>
      <trkpt lat="45.12233" lon="5.10781">
        <ele>279.11401367188</ele>
        <time>2009-11-04T15:12:43Z</time>
      </trkpt>
      <trkpt lat="45.122" lon="5.10775">
        <ele>278.89300537109</ele>
        <time>2009-11-04T15:12:47Z</time>
      </trkpt>
      <trkpt lat="45.12147" lon="5.10738">
        <ele>279.30899047852</ele>
        <time>2009-11-04T15:12:54Z</time>
      </trkpt>
      <trkpt lat="45.12081" lon="5.10685">
        <ele>279.15701293945</ele>
        <time>2009-11-04T15:13:03Z</time>
      </trkpt>
      <trkpt lat="45.12003" lon="5.10626">
        <ele>280.01098632812</ele>
        <time>2009-11-04T15:13:14Z</time>
      </trkpt>
      <trkpt lat="45.11972" lon="5.1059">
        <ele>279.65899658203</ele>
        <time>2009-11-04T15:13:19Z</time>
      </trkpt>
      <trkpt lat="45.11949" lon="5.1054">
        <ele>278.92199707031</ele>
        <time>2009-11-04T15:13:24Z</time>
      </trkpt>
      <trkpt lat="45.11912" lon="5.10456">
        <ele>277.75100708008</ele>
        <time>2009-11-04T15:13:32Z</time>
      </trkpt>
      <trkpt lat="45.11859" lon="5.10374">
        <ele>277.20599365234</ele>
        <time>2009-11-04T15:13:41Z</time>
      </trkpt>
      <trkpt lat="45.11803" lon="5.10286">
        <ele>276.82000732422</ele>
        <time>2009-11-04T15:13:51Z</time>
      </trkpt>
      <trkpt lat="45.11763" lon="5.10208">
        <ele>275.93399047852</ele>
        <time>2009-11-04T15:13:59Z</time>
      </trkpt>
      <trkpt lat="45.11719" lon="5.10101">
        <ele>274.46499633789</ele>
        <time>2009-11-04T15:14:09Z</time>
      </trkpt>
      <trkpt lat="45.11673" lon="5.09989">
        <ele>272.60699462891</ele>
        <time>2009-11-04T15:14:19Z</time>
      </trkpt>
      <trkpt lat="45.11642" lon="5.0994">
        <ele>272.0299987793</ele>
        <time>2009-11-04T15:14:24Z</time>
      </trkpt>
      <trkpt lat="45.1157" lon="5.09839">
        <ele>271.1789855957</ele>
        <time>2009-11-04T15:14:35Z</time>
      </trkpt>
      <trkpt lat="45.11513" lon="5.09772">
        <ele>270.3450012207</ele>
        <time>2009-11-04T15:14:43Z</time>
      </trkpt>
      <trkpt lat="45.11462" lon="5.0974">
        <ele>269.23901367188</ele>
        <time>2009-11-04T15:14:49Z</time>
      </trkpt>
      <trkpt lat="45.11362" lon="5.09684">
        <ele>266.7200012207</ele>
        <time>2009-11-04T15:15:00Z</time>
      </trkpt>
      <trkpt lat="45.11242" lon="5.09613">
        <ele>263.08999633789</ele>
        <time>2009-11-04T15:15:13Z</time>
      </trkpt>
      <trkpt lat="45.11183" lon="5.09589">
        <ele>261.72500610352</ele>
        <time>2009-11-04T15:15:19Z</time>
      </trkpt>
      <trkpt lat="45.11095" lon="5.0956">
        <ele>259.12200927734</ele>
        <time>2009-11-04T15:15:28Z</time>
      </trkpt>
      <trkpt lat="45.11016" lon="5.09542">
        <ele>257.02200317383</ele>
        <time>2009-11-04T15:15:36Z</time>
      </trkpt>
      <trkpt lat="45.10936" lon="5.09533">
        <ele>254.64799499512</ele>
        <time>2009-11-04T15:15:44Z</time>
      </trkpt>
      <trkpt lat="45.10893" lon="5.09539">
        <ele>253.27699279785</ele>
        <time>2009-11-04T15:15:49Z</time>
      </trkpt>
      <trkpt lat="45.10878" lon="5.09532">
        <ele>252.5359954834</ele>
        <time>2009-11-04T15:15:52Z</time>
      </trkpt>
      <trkpt lat="45.10876" lon="5.09525">
        <ele>252.31100463867</ele>
        <time>2009-11-04T15:15:53Z</time>
      </trkpt>
      <trkpt lat="45.10873" lon="5.09503">
        <ele>252.35800170898</ele>
        <time>2009-11-04T15:15:56Z</time>
      </trkpt>
      <trkpt lat="45.10863" lon="5.09483">
        <ele>252.59100341797</ele>
        <time>2009-11-04T15:16:00Z</time>
      </trkpt>
      <trkpt lat="45.10858" lon="5.09482">
        <ele>252.47500610352</ele>
        <time>2009-11-04T15:16:01Z</time>
      </trkpt>
      <trkpt lat="45.10848" lon="5.0948">
        <ele>252.34599304199</ele>
        <time>2009-11-04T15:16:03Z</time>
      </trkpt>
      <trkpt lat="45.10813" lon="5.09482">
        <ele>253.32800292969</ele>
        <time>2009-11-04T15:16:10Z</time>
      </trkpt>
      <trkpt lat="45.10788" lon="5.09485">
        <ele>254.98399353027</ele>
        <time>2009-11-04T15:16:16Z</time>
      </trkpt>
      <trkpt lat="45.10774" lon="5.0949">
        <ele>256.49398803711</ele>
        <time>2009-11-04T15:16:20Z</time>
      </trkpt>
      <trkpt lat="45.10757" lon="5.09491">
        <ele>258.19299316406</ele>
        <time>2009-11-04T15:16:24Z</time>
      </trkpt>
      <trkpt lat="45.10749" lon="5.09492">
        <ele>259.33801269531</ele>
        <time>2009-11-04T15:16:26Z</time>
      </trkpt>
      <trkpt lat="45.10736" lon="5.0949">
        <ele>260.47198486328</ele>
        <time>2009-11-04T15:16:29Z</time>
      </trkpt>
      <trkpt lat="45.10714" lon="5.09484">
        <ele>260.5830078125</ele>
        <time>2009-11-04T15:16:34Z</time>
      </trkpt>
      <trkpt lat="45.10692" lon="5.09475">
        <ele>259.77200317383</ele>
        <time>2009-11-04T15:16:38Z</time>
      </trkpt>
      <trkpt lat="45.10663" lon="5.09455">
        <ele>259.43301391602</ele>
        <time>2009-11-04T15:16:43Z</time>
      </trkpt>
      <trkpt lat="45.10642" lon="5.0942">
        <ele>259.3219909668</ele>
        <time>2009-11-04T15:16:48Z</time>
      </trkpt>
      <trkpt lat="45.10618" lon="5.09347">
        <ele>260.45199584961</ele>
        <time>2009-11-04T15:16:57Z</time>
      </trkpt>
      <trkpt lat="45.10603" lon="5.09293">
        <ele>261.71200561523</ele>
        <time>2009-11-04T15:17:04Z</time>
      </trkpt>
      <trkpt lat="45.10586" lon="5.09233">
        <ele>260.4289855957</ele>
        <time>2009-11-04T15:17:11Z</time>
      </trkpt>
      <trkpt lat="45.10574" lon="5.09186">
        <ele>260.86801147461</ele>
        <time>2009-11-04T15:17:16Z</time>
      </trkpt>
      <trkpt lat="45.10553" lon="5.09111">
        <ele>260.08499145508</ele>
        <time>2009-11-04T15:17:24Z</time>
      </trkpt>
      <trkpt lat="45.10527" lon="5.0903">
        <ele>260.39498901367</ele>
        <time>2009-11-04T15:17:33Z</time>
      </trkpt>
      <trkpt lat="45.10506" lon="5.08967">
        <ele>260.19900512695</ele>
        <time>2009-11-04T15:17:40Z</time>
      </trkpt>
      <trkpt lat="45.10498" lon="5.08944">
        <ele>260.06900024414</ele>
        <time>2009-11-04T15:17:43Z</time>
      </trkpt>
      <trkpt lat="45.10493" lon="5.0893">
        <ele>259.72799682617</ele>
        <time>2009-11-04T15:17:45Z</time>
      </trkpt>
      <trkpt lat="45.10489" lon="5.08915">
        <ele>258.87899780273</ele>
        <time>2009-11-04T15:17:47Z</time>
      </trkpt>
      <trkpt lat="45.10471" lon="5.08857">
        <ele>255</ele>
        <time>2009-11-04T15:17:55Z</time>
      </trkpt>
      <trkpt lat="45.1046" lon="5.08825">
        <ele>252.3809967041</ele>
        <time>2009-11-04T15:17:59Z</time>
      </trkpt>
      <trkpt lat="45.10453" lon="5.08809">
        <ele>251.24000549316</ele>
        <time>2009-11-04T15:18:01Z</time>
      </trkpt>
      <trkpt lat="45.10424" lon="5.08772">
        <ele>249.46699523926</ele>
        <time>2009-11-04T15:18:06Z</time>
      </trkpt>
      <trkpt lat="45.10389" lon="5.0874">
        <ele>246.97900390625</ele>
        <time>2009-11-04T15:18:11Z</time>
      </trkpt>
      <trkpt lat="45.10358" lon="5.08709">
        <ele>244.88499450684</ele>
        <time>2009-11-04T15:18:15Z</time>
      </trkpt>
      <trkpt lat="45.1035" lon="5.087">
        <ele>244.31799316406</ele>
        <time>2009-11-04T15:18:16Z</time>
      </trkpt>
      <trkpt lat="45.10338" lon="5.08678">
        <ele>243.44400024414</ele>
        <time>2009-11-04T15:18:18Z</time>
      </trkpt>
      <trkpt lat="45.10321" lon="5.08627">
        <ele>241.67300415039</ele>
        <time>2009-11-04T15:18:22Z</time>
      </trkpt>
      <trkpt lat="45.10295" lon="5.08553">
        <ele>239.78300476074</ele>
        <time>2009-11-04T15:18:28Z</time>
      </trkpt>
      <trkpt lat="45.1027" lon="5.08495">
        <ele>238.48199462891</ele>
        <time>2009-11-04T15:18:33Z</time>
      </trkpt>
      <trkpt lat="45.10249" lon="5.0843">
        <ele>238.20199584961</ele>
        <time>2009-11-04T15:18:39Z</time>
      </trkpt>
      <trkpt lat="45.1023" lon="5.08369">
        <ele>236.59100341797</ele>
        <time>2009-11-04T15:18:45Z</time>
      </trkpt>
      <trkpt lat="45.10209" lon="5.083">
        <ele>235.36799621582</ele>
        <time>2009-11-04T15:18:52Z</time>
      </trkpt>
      <trkpt lat="45.10189" lon="5.08245">
        <ele>233.04600524902</ele>
        <time>2009-11-04T15:18:58Z</time>
      </trkpt>
      <trkpt lat="45.10165" lon="5.08195">
        <ele>231.98699951172</ele>
        <time>2009-11-04T15:19:04Z</time>
      </trkpt>
      <trkpt lat="45.10132" lon="5.08139">
        <ele>231.8630065918</ele>
        <time>2009-11-04T15:19:11Z</time>
      </trkpt>
      <trkpt lat="45.10113" lon="5.08097">
        <ele>231.83999633789</ele>
        <time>2009-11-04T15:19:16Z</time>
      </trkpt>
      <trkpt lat="45.10097" lon="5.08066">
        <ele>232.09800720215</ele>
        <time>2009-11-04T15:19:20Z</time>
      </trkpt>
      <trkpt lat="45.10075" lon="5.08045">
        <ele>232.33999633789</ele>
        <time>2009-11-04T15:19:24Z</time>
      </trkpt>
      <trkpt lat="45.1003" lon="5.0802">
        <ele>231.40199279785</ele>
        <time>2009-11-04T15:19:31Z</time>
      </trkpt>
      <trkpt lat="45.09994" lon="5.07999">
        <ele>230.00799560547</ele>
        <time>2009-11-04T15:19:36Z</time>
      </trkpt>
      <trkpt lat="45.0992" lon="5.07958">
        <ele>228.52000427246</ele>
        <time>2009-11-04T15:19:46Z</time>
      </trkpt>
      <trkpt lat="45.09859" lon="5.07926">
        <ele>227.36000061035</ele>
        <time>2009-11-04T15:19:54Z</time>
      </trkpt>
      <trkpt lat="45.09802" lon="5.07908">
        <ele>225.16999816894</ele>
        <time>2009-11-04T15:20:01Z</time>
      </trkpt>
      <trkpt lat="45.0975" lon="5.07897">
        <ele>223.29800415039</ele>
        <time>2009-11-04T15:20:07Z</time>
      </trkpt>
      <trkpt lat="45.09741" lon="5.07895">
        <ele>223.12800598144</ele>
        <time>2009-11-04T15:20:08Z</time>
      </trkpt>
      <trkpt lat="45.09702" lon="5.07872">
        <ele>222.16799926758</ele>
        <time>2009-11-04T15:20:13Z</time>
      </trkpt>
      <trkpt lat="45.09651" lon="5.07808">
        <ele>221.05000305176</ele>
        <time>2009-11-04T15:20:21Z</time>
      </trkpt>
      <trkpt lat="45.09613" lon="5.07741">
        <ele>219.94099426269</ele>
        <time>2009-11-04T15:20:28Z</time>
      </trkpt>
      <trkpt lat="45.09575" lon="5.07663">
        <ele>218.30799865723</ele>
        <time>2009-11-04T15:20:36Z</time>
      </trkpt>
      <trkpt lat="45.09546" lon="5.07623">
        <ele>218.19299316406</ele>
        <time>2009-11-04T15:20:41Z</time>
      </trkpt>
      <trkpt lat="45.09504" lon="5.07573">
        <ele>217.47200012207</ele>
        <time>2009-11-04T15:20:48Z</time>
      </trkpt>
      <trkpt lat="45.09475" lon="5.07535">
        <ele>217.04899597168</ele>
        <time>2009-11-04T15:20:53Z</time>
      </trkpt>
      <trkpt lat="45.09438" lon="5.07478">
        <ele>216.02299499512</ele>
        <time>2009-11-04T15:21:00Z</time>
      </trkpt>
      <trkpt lat="45.09423" lon="5.07451">
        <ele>215.6549987793</ele>
        <time>2009-11-04T15:21:03Z</time>
      </trkpt>
      <trkpt lat="45.09399" lon="5.07382">
        <ele>214.7859954834</ele>
        <time>2009-11-04T15:21:10Z</time>
      </trkpt>
      <trkpt lat="45.09375" lon="5.07289">
        <ele>214.03799438477</ele>
        <time>2009-11-04T15:21:19Z</time>
      </trkpt>
      <trkpt lat="45.09372" lon="5.07239">
        <ele>214.79699707031</ele>
        <time>2009-11-04T15:21:24Z</time>
      </trkpt>
      <trkpt lat="45.09375" lon="5.07205">
        <ele>216.16400146484</ele>
        <time>2009-11-04T15:21:29Z</time>
      </trkpt>
      <trkpt lat="45.09379" lon="5.07193">
        <ele>216.52299499512</ele>
        <time>2009-11-04T15:21:33Z</time>
      </trkpt>
      <trkpt lat="45.09383" lon="5.07178">
        <ele>216.32699584961</ele>
        <time>2009-11-04T15:21:38Z</time>
      </trkpt>
      <trkpt lat="45.09388" lon="5.07157">
        <ele>215.53399658203</ele>
        <time>2009-11-04T15:21:43Z</time>
      </trkpt>
      <trkpt lat="45.09388" lon="5.0714">
        <ele>214.99099731445</ele>
        <time>2009-11-04T15:21:46Z</time>
      </trkpt>
      <trkpt lat="45.09388" lon="5.07097">
        <ele>214.20599365234</ele>
        <time>2009-11-04T15:21:52Z</time>
      </trkpt>
      <trkpt lat="45.09384" lon="5.07033">
        <ele>212.88499450684</ele>
        <time>2009-11-04T15:21:59Z</time>
      </trkpt>
      <trkpt lat="45.09378" lon="5.0694">
        <ele>211.21099853516</ele>
        <time>2009-11-04T15:22:08Z</time>
      </trkpt>
      <trkpt lat="45.09372" lon="5.06821">
        <ele>209.99899291992</ele>
        <time>2009-11-04T15:22:19Z</time>
      </trkpt>
      <trkpt lat="45.09369" lon="5.06753">
        <ele>209.60899353027</ele>
        <time>2009-11-04T15:22:25Z</time>
      </trkpt>
      <trkpt lat="45.09373" lon="5.06684">
        <ele>208.81300354004</ele>
        <time>2009-11-04T15:22:31Z</time>
      </trkpt>
      <trkpt lat="45.09383" lon="5.06559">
        <ele>207.62199401856</ele>
        <time>2009-11-04T15:22:42Z</time>
      </trkpt>
      <trkpt lat="45.09381" lon="5.06498">
        <ele>207.3809967041</ele>
        <time>2009-11-04T15:22:48Z</time>
      </trkpt>
      <trkpt lat="45.09377" lon="5.06424">
        <ele>206.71099853516</ele>
        <time>2009-11-04T15:22:55Z</time>
      </trkpt>
      <trkpt lat="45.09373" lon="5.06301">
        <ele>206.13000488281</ele>
        <time>2009-11-04T15:23:06Z</time>
      </trkpt>
      <trkpt lat="45.09371" lon="5.06209">
        <ele>204.65899658203</ele>
        <time>2009-11-04T15:23:14Z</time>
      </trkpt>
      <trkpt lat="45.09369" lon="5.06107">
        <ele>203.46000671387</ele>
        <time>2009-11-04T15:23:23Z</time>
      </trkpt>
      <trkpt lat="45.09373" lon="5.06017">
        <ele>203.03700256348</ele>
        <time>2009-11-04T15:23:31Z</time>
      </trkpt>
      <trkpt lat="45.09385" lon="5.05899">
        <ele>202.49699401856</ele>
        <time>2009-11-04T15:23:42Z</time>
      </trkpt>
      <trkpt lat="45.09402" lon="5.05821">
        <ele>203.20599365234</ele>
        <time>2009-11-04T15:23:50Z</time>
      </trkpt>
      <trkpt lat="45.09424" lon="5.05728">
        <ele>203.6130065918</ele>
        <time>2009-11-04T15:24:00Z</time>
      </trkpt>
      <trkpt lat="45.09435" lon="5.05645">
        <ele>204.82699584961</ele>
        <time>2009-11-04T15:24:09Z</time>
      </trkpt>
      <trkpt lat="45.09438" lon="5.05599">
        <ele>204.97900390625</ele>
        <time>2009-11-04T15:24:14Z</time>
      </trkpt>
      <trkpt lat="45.09436" lon="5.0554">
        <ele>204.71000671387</ele>
        <time>2009-11-04T15:24:20Z</time>
      </trkpt>
      <trkpt lat="45.09427" lon="5.05436">
        <ele>204.21499633789</ele>
        <time>2009-11-04T15:24:30Z</time>
      </trkpt>
      <trkpt lat="45.09416" lon="5.05386">
        <ele>203.81799316406</ele>
        <time>2009-11-04T15:24:35Z</time>
      </trkpt>
      <trkpt lat="45.09391" lon="5.0532">
        <ele>203.40800476074</ele>
        <time>2009-11-04T15:24:42Z</time>
      </trkpt>
      <trkpt lat="45.09352" lon="5.05251">
        <ele>203.41799926758</ele>
        <time>2009-11-04T15:24:50Z</time>
      </trkpt>
      <trkpt lat="45.09307" lon="5.05176">
        <ele>203.42999267578</ele>
        <time>2009-11-04T15:24:59Z</time>
      </trkpt>
      <trkpt lat="45.09269" lon="5.05102">
        <ele>203.52499389648</ele>
        <time>2009-11-04T15:25:08Z</time>
      </trkpt>
      <trkpt lat="45.09246" lon="5.05042">
        <ele>201.85699462891</ele>
        <time>2009-11-04T15:25:14Z</time>
      </trkpt>
      <trkpt lat="45.09243" lon="5.05031">
        <ele>201.52900695801</ele>
        <time>2009-11-04T15:25:15Z</time>
      </trkpt>
      <trkpt lat="45.09243" lon="5.04983">
        <ele>200.31199645996</ele>
        <time>2009-11-04T15:25:19Z</time>
      </trkpt>
      <trkpt lat="45.09257" lon="5.04952">
        <ele>199.32600402832</ele>
        <time>2009-11-04T15:25:22Z</time>
      </trkpt>
      <trkpt lat="45.09292" lon="5.04901">
        <ele>198.25799560547</ele>
        <time>2009-11-04T15:25:28Z</time>
      </trkpt>
      <trkpt lat="45.09297" lon="5.04892">
        <ele>197.94299316406</ele>
        <time>2009-11-04T15:25:29Z</time>
      </trkpt>
      <trkpt lat="45.09303" lon="5.04872">
        <ele>197.49800109863</ele>
        <time>2009-11-04T15:25:31Z</time>
      </trkpt>
      <trkpt lat="45.09307" lon="5.04805">
        <ele>196.70100402832</ele>
        <time>2009-11-04T15:25:37Z</time>
      </trkpt>
      <trkpt lat="45.09309" lon="5.04777">
        <ele>196.7140045166</ele>
        <time>2009-11-04T15:25:40Z</time>
      </trkpt>
      <trkpt lat="45.09311" lon="5.0476">
        <ele>196.96499633789</ele>
        <time>2009-11-04T15:25:42Z</time>
      </trkpt>
      <trkpt lat="45.09322" lon="5.04742">
        <ele>196.99499511719</ele>
        <time>2009-11-04T15:25:45Z</time>
      </trkpt>
      <trkpt lat="45.09339" lon="5.04722">
        <ele>197.71699523926</ele>
        <time>2009-11-04T15:25:49Z</time>
      </trkpt>
      <trkpt lat="45.09367" lon="5.04706">
        <ele>198.36599731445</ele>
        <time>2009-11-04T15:25:54Z</time>
      </trkpt>
      <trkpt lat="45.0937" lon="5.04703">
        <ele>198.44299316406</ele>
        <time>2009-11-04T15:25:55Z</time>
      </trkpt>
      <trkpt lat="45.09395" lon="5.0469">
        <ele>199.27600097656</ele>
        <time>2009-11-04T15:26:00Z</time>
      </trkpt>
      <trkpt lat="45.09431" lon="5.04673">
        <ele>200.07499694824</ele>
        <time>2009-11-04T15:26:07Z</time>
      </trkpt>
      <trkpt lat="45.09469" lon="5.04658">
        <ele>201.1609954834</ele>
        <time>2009-11-04T15:26:15Z</time>
      </trkpt>
      <trkpt lat="45.09512" lon="5.04639">
        <ele>201.83700561523</ele>
        <time>2009-11-04T15:26:24Z</time>
      </trkpt>
      <trkpt lat="45.09539" lon="5.04624">
        <ele>202.58399963379</ele>
        <time>2009-11-04T15:26:30Z</time>
      </trkpt>
      <trkpt lat="45.09567" lon="5.04605">
        <ele>203.5359954834</ele>
        <time>2009-11-04T15:26:36Z</time>
      </trkpt>
      <trkpt lat="45.09589" lon="5.04576">
        <ele>203.93699645996</ele>
        <time>2009-11-04T15:26:41Z</time>
      </trkpt>
      <trkpt lat="45.09605" lon="5.04545">
        <ele>205.12800598144</ele>
        <time>2009-11-04T15:26:46Z</time>
      </trkpt>
      <trkpt lat="45.09624" lon="5.04524">
        <ele>206.11500549316</ele>
        <time>2009-11-04T15:26:51Z</time>
      </trkpt>
      <trkpt lat="45.09629" lon="5.04505">
        <ele>206.57400512695</ele>
        <time>2009-11-04T15:26:54Z</time>
      </trkpt>
      <trkpt lat="45.09626" lon="5.04477">
        <ele>207.06300354004</ele>
        <time>2009-11-04T15:26:58Z</time>
      </trkpt>
      <trkpt lat="45.09627" lon="5.04471">
        <ele>207.16799926758</ele>
        <time>2009-11-04T15:26:59Z</time>
      </trkpt>
      <trkpt lat="45.09641" lon="5.04424">
        <ele>208.3630065918</ele>
        <time>2009-11-04T15:27:06Z</time>
      </trkpt>
      <trkpt lat="45.0966" lon="5.0437">
        <ele>209.28799438477</ele>
        <time>2009-11-04T15:27:14Z</time>
      </trkpt>
      <trkpt lat="45.09673" lon="5.04344">
        <ele>208.96000671387</ele>
        <time>2009-11-04T15:27:18Z</time>
      </trkpt>
      <trkpt lat="45.09705" lon="5.04306">
        <ele>208.3390045166</ele>
        <time>2009-11-04T15:27:25Z</time>
      </trkpt>
      <trkpt lat="45.09742" lon="5.04272">
        <ele>207.16299438477</ele>
        <time>2009-11-04T15:27:32Z</time>
      </trkpt>
      <trkpt lat="45.09764" lon="5.04251">
        <ele>207.13900756836</ele>
        <time>2009-11-04T15:27:36Z</time>
      </trkpt>
      <trkpt lat="45.09811" lon="5.04205">
        <ele>206.40100097656</ele>
        <time>2009-11-04T15:27:45Z</time>
      </trkpt>
      <trkpt lat="45.09854" lon="5.04157">
        <ele>206.36799621582</ele>
        <time>2009-11-04T15:27:54Z</time>
      </trkpt>
      <trkpt lat="45.09859" lon="5.04151">
        <ele>206.34399414062</ele>
        <time>2009-11-04T15:27:55Z</time>
      </trkpt>
      <trkpt lat="45.09872" lon="5.04122">
        <ele>206.16000366211</ele>
        <time>2009-11-04T15:27:59Z</time>
      </trkpt>
      <trkpt lat="45.0989" lon="5.04035">
        <ele>206.10800170898</ele>
        <time>2009-11-04T15:28:09Z</time>
      </trkpt>
      <trkpt lat="45.09891" lon="5.04026">
        <ele>206.28900146484</ele>
        <time>2009-11-04T15:28:10Z</time>
      </trkpt>
      <trkpt lat="45.09888" lon="5.03981">
        <ele>206.08599853516</ele>
        <time>2009-11-04T15:28:15Z</time>
      </trkpt>
      <trkpt lat="45.09886" lon="5.03973">
        <ele>206.18200683594</ele>
        <time>2009-11-04T15:28:16Z</time>
      </trkpt>
      <trkpt lat="45.09849" lon="5.03877">
        <ele>206.94799804688</ele>
        <time>2009-11-04T15:28:28Z</time>
      </trkpt>
      <trkpt lat="45.09825" lon="5.03813">
        <ele>206.47799682617</ele>
        <time>2009-11-04T15:28:36Z</time>
      </trkpt>
      <trkpt lat="45.0981" lon="5.03754">
        <ele>207.45700073242</ele>
        <time>2009-11-04T15:28:43Z</time>
      </trkpt>
      <trkpt lat="45.09799" lon="5.03691">
        <ele>208.99299621582</ele>
        <time>2009-11-04T15:28:51Z</time>
      </trkpt>
      <trkpt lat="45.09792" lon="5.03623">
        <ele>210.05900573731</ele>
        <time>2009-11-04T15:29:00Z</time>
      </trkpt>
      <trkpt lat="45.09797" lon="5.03591">
        <ele>209.84199523926</ele>
        <time>2009-11-04T15:29:04Z</time>
      </trkpt>
      <trkpt lat="45.09818" lon="5.03545">
        <ele>209.14900207519</ele>
        <time>2009-11-04T15:29:10Z</time>
      </trkpt>
      <trkpt lat="45.09855" lon="5.03491">
        <ele>208.37699890137</ele>
        <time>2009-11-04T15:29:18Z</time>
      </trkpt>
      <trkpt lat="45.0989" lon="5.03438">
        <ele>208.22399902344</ele>
        <time>2009-11-04T15:29:26Z</time>
      </trkpt>
      <trkpt lat="45.09905" lon="5.03399">
        <ele>208.23100280762</ele>
        <time>2009-11-04T15:29:31Z</time>
      </trkpt>
      <trkpt lat="45.09922" lon="5.03341">
        <ele>210.03700256348</ele>
        <time>2009-11-04T15:29:39Z</time>
      </trkpt>
      <trkpt lat="45.09937" lon="5.03288">
        <ele>211.89900207519</ele>
        <time>2009-11-04T15:29:47Z</time>
      </trkpt>
      <trkpt lat="45.09948" lon="5.03245">
        <ele>213.77600097656</ele>
        <time>2009-11-04T15:29:54Z</time>
      </trkpt>
      <trkpt lat="45.09951" lon="5.03233">
        <ele>214.55299377441</ele>
        <time>2009-11-04T15:29:56Z</time>
      </trkpt>
      <trkpt lat="45.09968" lon="5.03177">
        <ele>215.85400390625</ele>
        <time>2009-11-04T15:30:06Z</time>
      </trkpt>
      <trkpt lat="45.09974" lon="5.03154">
        <ele>216.55000305176</ele>
        <time>2009-11-04T15:30:10Z</time>
      </trkpt>
      <trkpt lat="45.09988" lon="5.03114">
        <ele>217.44900512695</ele>
        <time>2009-11-04T15:30:17Z</time>
      </trkpt>
      <trkpt lat="45.10001" lon="5.03064">
        <ele>218.18499755859</ele>
        <time>2009-11-04T15:30:25Z</time>
      </trkpt>
      <trkpt lat="45.10019" lon="5.02995">
        <ele>220.37600708008</ele>
        <time>2009-11-04T15:30:36Z</time>
      </trkpt>
      <trkpt lat="45.10036" lon="5.02933">
        <ele>222.84100341797</ele>
        <time>2009-11-04T15:30:46Z</time>
      </trkpt>
      <trkpt lat="45.10054" lon="5.02872">
        <ele>226.14300537109</ele>
        <time>2009-11-04T15:30:56Z</time>
      </trkpt>
      <trkpt lat="45.10061" lon="5.02843">
        <ele>227.82400512695</ele>
        <time>2009-11-04T15:31:01Z</time>
      </trkpt>
      <trkpt lat="45.10063" lon="5.02831">
        <ele>228.50500488281</ele>
        <time>2009-11-04T15:31:03Z</time>
      </trkpt>
      <trkpt lat="45.10071" lon="5.02802">
        <ele>229.625</ele>
        <time>2009-11-04T15:31:08Z</time>
      </trkpt>
      <trkpt lat="45.10073" lon="5.02763">
        <ele>231.39999389648</ele>
        <time>2009-11-04T15:31:14Z</time>
      </trkpt>
      <trkpt lat="45.10061" lon="5.02734">
        <ele>233.11399841309</ele>
        <time>2009-11-04T15:31:19Z</time>
      </trkpt>
      <trkpt lat="45.10058" lon="5.02729">
        <ele>233.60200500488</ele>
        <time>2009-11-04T15:31:20Z</time>
      </trkpt>
      <trkpt lat="45.10028" lon="5.02691">
        <ele>235.54200744629</ele>
        <time>2009-11-04T15:31:28Z</time>
      </trkpt>
      <trkpt lat="45.10014" lon="5.02675">
        <ele>237.17999267578</ele>
        <time>2009-11-04T15:31:32Z</time>
      </trkpt>
      <trkpt lat="45.10005" lon="5.02661">
        <ele>238.02299499512</ele>
        <time>2009-11-04T15:31:35Z</time>
      </trkpt>
      <trkpt lat="45.09997" lon="5.02644">
        <ele>239.16000366211</ele>
        <time>2009-11-04T15:31:38Z</time>
      </trkpt>
      <trkpt lat="45.09992" lon="5.02631">
        <ele>239.87100219727</ele>
        <time>2009-11-04T15:31:40Z</time>
      </trkpt>
      <trkpt lat="45.09982" lon="5.02598">
        <ele>241.72999572754</ele>
        <time>2009-11-04T15:31:45Z</time>
      </trkpt>
      <trkpt lat="45.09974" lon="5.02572">
        <ele>243.04699707031</ele>
        <time>2009-11-04T15:31:50Z</time>
      </trkpt>
      <trkpt lat="45.09967" lon="5.0256">
        <ele>243.96600341797</ele>
        <time>2009-11-04T15:31:53Z</time>
      </trkpt>
      <trkpt lat="45.0994" lon="5.02524">
        <ele>245.94500732422</ele>
        <time>2009-11-04T15:32:01Z</time>
      </trkpt>
      <trkpt lat="45.09925" lon="5.02499">
        <ele>247.66499328613</ele>
        <time>2009-11-04T15:32:05Z</time>
      </trkpt>
      <trkpt lat="45.09919" lon="5.02486">
        <ele>248.36399841309</ele>
        <time>2009-11-04T15:32:07Z</time>
      </trkpt>
      <trkpt lat="45.09905" lon="5.02457">
        <ele>249.82800292969</ele>
        <time>2009-11-04T15:32:12Z</time>
      </trkpt>
      <trkpt lat="45.09895" lon="5.02442">
        <ele>250.71699523926</ele>
        <time>2009-11-04T15:32:15Z</time>
      </trkpt>
      <trkpt lat="45.09889" lon="5.02431">
        <ele>251.42999267578</ele>
        <time>2009-11-04T15:32:17Z</time>
      </trkpt>
      <trkpt lat="45.09875" lon="5.02389">
        <ele>252.19799804688</ele>
        <time>2009-11-04T15:32:24Z</time>
      </trkpt>
      <trkpt lat="45.09869" lon="5.02347">
        <ele>251.86599731445</ele>
        <time>2009-11-04T15:32:32Z</time>
      </trkpt>
      <trkpt lat="45.09862" lon="5.02323">
        <ele>250.78500366211</ele>
        <time>2009-11-04T15:32:36Z</time>
      </trkpt>
      <trkpt lat="45.09855" lon="5.02294">
        <ele>249.46699523926</ele>
        <time>2009-11-04T15:32:40Z</time>
      </trkpt>
      <trkpt lat="45.09848" lon="5.02275">
        <ele>248.47999572754</ele>
        <time>2009-11-04T15:32:44Z</time>
      </trkpt>
      <trkpt lat="45.09845" lon="5.0226">
        <ele>248.48500061035</ele>
        <time>2009-11-04T15:32:50Z</time>
      </trkpt>
      <trkpt lat="45.09845" lon="5.02252">
        <ele>248.2380065918</ele>
        <time>2009-11-04T15:32:54Z</time>
      </trkpt>
      <trkpt lat="45.09845" lon="5.02249">
        <ele>247.55000305176</ele>
        <time>2009-11-04T15:32:58Z</time>
      </trkpt>
      <trkpt lat="45.09852" lon="5.02241">
        <ele>247.56500244141</ele>
        <time>2009-11-04T15:33:29Z</time>
      </trkpt>
      <trkpt lat="45.09857" lon="5.02224">
        <ele>246.73199462891</ele>
        <time>2009-11-04T15:33:32Z</time>
      </trkpt>
      <trkpt lat="45.0986" lon="5.02216">
        <ele>246.3809967041</ele>
        <time>2009-11-04T15:33:33Z</time>
      </trkpt>
      <trkpt lat="45.0988" lon="5.02155">
        <ele>244.11099243164</ele>
        <time>2009-11-04T15:33:39Z</time>
      </trkpt>
      <trkpt lat="45.09906" lon="5.02076">
        <ele>241.15600585938</ele>
        <time>2009-11-04T15:33:45Z</time>
      </trkpt>
      <trkpt lat="45.09915" lon="5.02048">
        <ele>240.44799804688</ele>
        <time>2009-11-04T15:33:47Z</time>
      </trkpt>
      <trkpt lat="45.09951" lon="5.0195">
        <ele>237.55999755859</ele>
        <time>2009-11-04T15:33:54Z</time>
      </trkpt>
      <trkpt lat="45.09966" lon="5.01907">
        <ele>236.17300415039</ele>
        <time>2009-11-04T15:33:57Z</time>
      </trkpt>
      <trkpt lat="45.10015" lon="5.01762">
        <ele>232.49000549316</ele>
        <time>2009-11-04T15:34:07Z</time>
      </trkpt>
      <trkpt lat="45.10051" lon="5.01647">
        <ele>231.42399597168</ele>
        <time>2009-11-04T15:34:15Z</time>
      </trkpt>
      <trkpt lat="45.10062" lon="5.01574">
        <ele>231.16900634766</ele>
        <time>2009-11-04T15:34:20Z</time>
      </trkpt>
      <trkpt lat="45.10072" lon="5.01464">
        <ele>231.20599365234</ele>
        <time>2009-11-04T15:34:28Z</time>
      </trkpt>
      <trkpt lat="45.10077" lon="5.01388">
        <ele>231.95500183106</ele>
        <time>2009-11-04T15:34:34Z</time>
      </trkpt>
      <trkpt lat="45.1008" lon="5.01349">
        <ele>231.68200683594</ele>
        <time>2009-11-04T15:34:38Z</time>
      </trkpt>
      <trkpt lat="45.10087" lon="5.01278">
        <ele>231.95599365234</ele>
        <time>2009-11-04T15:34:46Z</time>
      </trkpt>
      <trkpt lat="45.10096" lon="5.01203">
        <ele>231.43800354004</ele>
        <time>2009-11-04T15:34:54Z</time>
      </trkpt>
      <trkpt lat="45.10103" lon="5.01175">
        <ele>231.48300170898</ele>
        <time>2009-11-04T15:34:57Z</time>
      </trkpt>
      <trkpt lat="45.10122" lon="5.01123">
        <ele>231.2200012207</ele>
        <time>2009-11-04T15:35:03Z</time>
      </trkpt>
      <trkpt lat="45.10149" lon="5.01076">
        <ele>230.89900207519</ele>
        <time>2009-11-04T15:35:09Z</time>
      </trkpt>
      <trkpt lat="45.10185" lon="5.01019">
        <ele>229.84700012207</ele>
        <time>2009-11-04T15:35:16Z</time>
      </trkpt>
      <trkpt lat="45.10213" lon="5.00979">
        <ele>228.93899536133</ele>
        <time>2009-11-04T15:35:21Z</time>
      </trkpt>
      <trkpt lat="45.10239" lon="5.0095">
        <ele>228.27000427246</ele>
        <time>2009-11-04T15:35:25Z</time>
      </trkpt>
      <trkpt lat="45.10291" lon="5.00907">
        <ele>227.37800598144</ele>
        <time>2009-11-04T15:35:32Z</time>
      </trkpt>
      <trkpt lat="45.10349" lon="5.00861">
        <ele>226.47200012207</ele>
        <time>2009-11-04T15:35:40Z</time>
      </trkpt>
      <trkpt lat="45.10421" lon="5.00803">
        <ele>225.89599609375</ele>
        <time>2009-11-04T15:35:50Z</time>
      </trkpt>
      <trkpt lat="45.1047" lon="5.00764">
        <ele>225.75700378418</ele>
        <time>2009-11-04T15:35:57Z</time>
      </trkpt>
      <trkpt lat="45.10513" lon="5.00729">
        <ele>226.37800598144</ele>
        <time>2009-11-04T15:36:04Z</time>
      </trkpt>
      <trkpt lat="45.10551" lon="5.00698">
        <ele>227.94299316406</ele>
        <time>2009-11-04T15:36:11Z</time>
      </trkpt>
      <trkpt lat="45.10579" lon="5.00675">
        <ele>229.74000549316</ele>
        <time>2009-11-04T15:36:17Z</time>
      </trkpt>
      <trkpt lat="45.10597" lon="5.00661">
        <ele>230.30999755859</ele>
        <time>2009-11-04T15:36:21Z</time>
      </trkpt>
      <trkpt lat="45.1063" lon="5.00635">
        <ele>232.81799316406</ele>
        <time>2009-11-04T15:36:29Z</time>
      </trkpt>
      <trkpt lat="45.10652" lon="5.00621">
        <ele>233.94799804688</ele>
        <time>2009-11-04T15:36:34Z</time>
      </trkpt>
      <trkpt lat="45.10688" lon="5.00603">
        <ele>236.07299804688</ele>
        <time>2009-11-04T15:36:42Z</time>
      </trkpt>
      <trkpt lat="45.10734" lon="5.00591">
        <ele>238.74899291992</ele>
        <time>2009-11-04T15:36:52Z</time>
      </trkpt>
      <trkpt lat="45.10771" lon="5.00589">
        <ele>241.00999450684</ele>
        <time>2009-11-04T15:37:00Z</time>
      </trkpt>
      <trkpt lat="45.108" lon="5.00586">
        <ele>242.93899536133</ele>
        <time>2009-11-04T15:37:06Z</time>
      </trkpt>
      <trkpt lat="45.1081" lon="5.00586">
        <ele>243.82899475098</ele>
        <time>2009-11-04T15:37:08Z</time>
      </trkpt>
      <trkpt lat="45.1086" lon="5.00578">
        <ele>246.76600646973</ele>
        <time>2009-11-04T15:37:18Z</time>
      </trkpt>
      <trkpt lat="45.10892" lon="5.0057">
        <ele>248.71699523926</ele>
        <time>2009-11-04T15:37:25Z</time>
      </trkpt>
      <trkpt lat="45.10921" lon="5.00558">
        <ele>249.67599487305</ele>
        <time>2009-11-04T15:37:32Z</time>
      </trkpt>
      <trkpt lat="45.10954" lon="5.00537">
        <ele>249.66900634766</ele>
        <time>2009-11-04T15:37:41Z</time>
      </trkpt>
      <trkpt lat="45.10983" lon="5.00517">
        <ele>248.42999267578</ele>
        <time>2009-11-04T15:37:48Z</time>
      </trkpt>
      <trkpt lat="45.11" lon="5.00504">
        <ele>247.86199951172</ele>
        <time>2009-11-04T15:37:52Z</time>
      </trkpt>
      <trkpt lat="45.11021" lon="5.00489">
        <ele>246.81599426269</ele>
        <time>2009-11-04T15:37:56Z</time>
      </trkpt>
      <trkpt lat="45.11038" lon="5.00476">
        <ele>245.27000427246</ele>
        <time>2009-11-04T15:37:59Z</time>
      </trkpt>
      <trkpt lat="45.11072" lon="5.00453">
        <ele>243.54299926758</ele>
        <time>2009-11-04T15:38:04Z</time>
      </trkpt>
      <trkpt lat="45.11103" lon="5.00434">
        <ele>242.02099609375</ele>
        <time>2009-11-04T15:38:08Z</time>
      </trkpt>
      <trkpt lat="45.11155" lon="5.00404">
        <ele>239.48500061035</ele>
        <time>2009-11-04T15:38:14Z</time>
      </trkpt>
      <trkpt lat="45.11221" lon="5.00371">
        <ele>236.19999694824</ele>
        <time>2009-11-04T15:38:21Z</time>
      </trkpt>
      <trkpt lat="45.1124" lon="5.0036">
        <ele>235.2799987793</ele>
        <time>2009-11-04T15:38:23Z</time>
      </trkpt>
      <trkpt lat="45.11288" lon="5.00331">
        <ele>233.89599609375</ele>
        <time>2009-11-04T15:38:28Z</time>
      </trkpt>
      <trkpt lat="45.11306" lon="5.00318">
        <ele>232.75700378418</ele>
        <time>2009-11-04T15:38:30Z</time>
      </trkpt>
      <trkpt lat="45.11315" lon="5.00312">
        <ele>232.40100097656</ele>
        <time>2009-11-04T15:38:31Z</time>
      </trkpt>
      <trkpt lat="45.11364" lon="5.00273">
        <ele>231.42599487305</ele>
        <time>2009-11-04T15:38:37Z</time>
      </trkpt>
      <trkpt lat="45.11412" lon="5.00229">
        <ele>230.82800292969</ele>
        <time>2009-11-04T15:38:44Z</time>
      </trkpt>
      <trkpt lat="45.11463" lon="5.0018">
        <ele>230.06100463867</ele>
        <time>2009-11-04T15:38:52Z</time>
      </trkpt>
      <trkpt lat="45.11539" lon="5.00108">
        <ele>229.85899353027</ele>
        <time>2009-11-04T15:39:04Z</time>
      </trkpt>
      <trkpt lat="45.11598" lon="5.00041">
        <ele>228.77099609375</ele>
        <time>2009-11-04T15:39:14Z</time>
      </trkpt>
      <trkpt lat="45.11645" lon="4.99975">
        <ele>225.88999938965</ele>
        <time>2009-11-04T15:39:22Z</time>
      </trkpt>
      <trkpt lat="45.11683" lon="4.9994">
        <ele>223.48599243164</ele>
        <time>2009-11-04T15:39:27Z</time>
      </trkpt>
      <trkpt lat="45.117" lon="4.99928">
        <ele>222.76300048828</ele>
        <time>2009-11-04T15:39:29Z</time>
      </trkpt>
      <trkpt lat="45.11749" lon="4.99904">
        <ele>220.02799987793</ele>
        <time>2009-11-04T15:39:34Z</time>
      </trkpt>
      <trkpt lat="45.11792" lon="4.99885">
        <ele>216.58099365234</ele>
        <time>2009-11-04T15:39:38Z</time>
      </trkpt>
      <trkpt lat="45.11826" lon="4.9987">
        <ele>214.04100036621</ele>
        <time>2009-11-04T15:39:41Z</time>
      </trkpt>
      <trkpt lat="45.11884" lon="4.99838">
        <ele>211.00100708008</ele>
        <time>2009-11-04T15:39:46Z</time>
      </trkpt>
      <trkpt lat="45.11936" lon="4.99786">
        <ele>207.76899719238</ele>
        <time>2009-11-04T15:39:51Z</time>
      </trkpt>
      <trkpt lat="45.11961" lon="4.99749">
        <ele>207.20399475098</ele>
        <time>2009-11-04T15:39:54Z</time>
      </trkpt>
      <trkpt lat="45.12001" lon="4.99675">
        <ele>206.63400268555</ele>
        <time>2009-11-04T15:40:00Z</time>
      </trkpt>
      <trkpt lat="45.12036" lon="4.99613">
        <ele>206.8630065918</ele>
        <time>2009-11-04T15:40:06Z</time>
      </trkpt>
      <trkpt lat="45.12072" lon="4.99548">
        <ele>206.89999389648</ele>
        <time>2009-11-04T15:40:13Z</time>
      </trkpt>
      <trkpt lat="45.12121" lon="4.99457">
        <ele>204.99000549316</ele>
        <time>2009-11-04T15:40:23Z</time>
      </trkpt>
      <trkpt lat="45.12141" lon="4.99406">
        <ele>204.62800598144</ele>
        <time>2009-11-04T15:40:28Z</time>
      </trkpt>
      <trkpt lat="45.12164" lon="4.99321">
        <ele>204.32200622559</ele>
        <time>2009-11-04T15:40:36Z</time>
      </trkpt>
      <trkpt lat="45.12182" lon="4.9925">
        <ele>204.87899780273</ele>
        <time>2009-11-04T15:40:43Z</time>
      </trkpt>
      <trkpt lat="45.12203" lon="4.99168">
        <ele>205.5950012207</ele>
        <time>2009-11-04T15:40:52Z</time>
      </trkpt>
      <trkpt lat="45.1222" lon="4.99106">
        <ele>206.18299865723</ele>
        <time>2009-11-04T15:41:00Z</time>
      </trkpt>
      <trkpt lat="45.12225" lon="4.99094">
        <ele>206.30900573731</ele>
        <time>2009-11-04T15:41:02Z</time>
      </trkpt>
      <trkpt lat="45.12236" lon="4.99078">
        <ele>207.87300109863</ele>
        <time>2009-11-04T15:41:07Z</time>
      </trkpt>
      <trkpt lat="45.12242" lon="4.9907">
        <ele>208.69400024414</ele>
        <time>2009-11-04T15:41:10Z</time>
      </trkpt>
      <trkpt lat="45.12241" lon="4.99045">
        <ele>208.2799987793</ele>
        <time>2009-11-04T15:41:15Z</time>
      </trkpt>
      <trkpt lat="45.12228" lon="4.99038">
        <ele>207.97900390625</ele>
        <time>2009-11-04T15:41:18Z</time>
      </trkpt>
      <trkpt lat="45.12208" lon="4.99034">
        <ele>206.95300292969</ele>
        <time>2009-11-04T15:41:21Z</time>
      </trkpt>
      <trkpt lat="45.12201" lon="4.99028">
        <ele>206.66900634766</ele>
        <time>2009-11-04T15:41:22Z</time>
      </trkpt>
      <trkpt lat="45.12194" lon="4.99022">
        <ele>206.34899902344</ele>
        <time>2009-11-04T15:41:23Z</time>
      </trkpt>
      <trkpt lat="45.12152" lon="4.98972">
        <ele>203.70100402832</ele>
        <time>2009-11-04T15:41:29Z</time>
      </trkpt>
      <trkpt lat="45.12144" lon="4.98962">
        <ele>203.45100402832</ele>
        <time>2009-11-04T15:41:30Z</time>
      </trkpt>
      <trkpt lat="45.12137" lon="4.98952">
        <ele>202.69299316406</ele>
        <time>2009-11-04T15:41:31Z</time>
      </trkpt>
      <trkpt lat="45.12088" lon="4.98863">
        <ele>201.69500732422</ele>
        <time>2009-11-04T15:41:39Z</time>
      </trkpt>
      <trkpt lat="45.12057" lon="4.9878">
        <ele>200.58799743652</ele>
        <time>2009-11-04T15:41:46Z</time>
      </trkpt>
      <trkpt lat="45.12037" lon="4.98686">
        <ele>200.61500549316</ele>
        <time>2009-11-04T15:41:54Z</time>
      </trkpt>
      <trkpt lat="45.12026" lon="4.98596">
        <ele>200.49899291992</ele>
        <time>2009-11-04T15:42:02Z</time>
      </trkpt>
      <trkpt lat="45.12027" lon="4.98508">
        <ele>200.51400756836</ele>
        <time>2009-11-04T15:42:10Z</time>
      </trkpt>
      <trkpt lat="45.12028" lon="4.98497">
        <ele>200.28300476074</ele>
        <time>2009-11-04T15:42:11Z</time>
      </trkpt>
      <trkpt lat="45.12033" lon="4.98467">
        <ele>200.2859954834</ele>
        <time>2009-11-04T15:42:14Z</time>
      </trkpt>
      <trkpt lat="45.12049" lon="4.98432">
        <ele>200.60699462891</ele>
        <time>2009-11-04T15:42:18Z</time>
      </trkpt>
      <trkpt lat="45.12057" lon="4.98394">
        <ele>200.91000366211</ele>
        <time>2009-11-04T15:42:22Z</time>
      </trkpt>
      <trkpt lat="45.12059" lon="4.9836">
        <ele>200.23399353027</ele>
        <time>2009-11-04T15:42:25Z</time>
      </trkpt>
      <trkpt lat="45.12074" lon="4.98265">
        <ele>199.03199768066</ele>
        <time>2009-11-04T15:42:33Z</time>
      </trkpt>
      <trkpt lat="45.12076" lon="4.98191">
        <ele>198.51899719238</ele>
        <time>2009-11-04T15:42:39Z</time>
      </trkpt>
      <trkpt lat="45.12067" lon="4.98114">
        <ele>198.89300537109</ele>
        <time>2009-11-04T15:42:45Z</time>
      </trkpt>
      <trkpt lat="45.12045" lon="4.98021">
        <ele>197.60200500488</ele>
        <time>2009-11-04T15:42:52Z</time>
      </trkpt>
      <trkpt lat="45.12019" lon="4.97924">
        <ele>197.41299438477</ele>
        <time>2009-11-04T15:42:59Z</time>
      </trkpt>
      <trkpt lat="45.11996" lon="4.97796">
        <ele>196.33500671387</ele>
        <time>2009-11-04T15:43:08Z</time>
      </trkpt>
      <trkpt lat="45.11975" lon="4.97674">
        <ele>195.30999755859</ele>
        <time>2009-11-04T15:43:17Z</time>
      </trkpt>
      <trkpt lat="45.11961" lon="4.97592">
        <ele>195.00199890137</ele>
        <time>2009-11-04T15:43:24Z</time>
      </trkpt>
      <trkpt lat="45.11949" lon="4.97527">
        <ele>193.94299316406</ele>
        <time>2009-11-04T15:43:30Z</time>
      </trkpt>
      <trkpt lat="45.11926" lon="4.97402">
        <ele>192.84899902344</ele>
        <time>2009-11-04T15:43:41Z</time>
      </trkpt>
      <trkpt lat="45.11911" lon="4.97306">
        <ele>192.59100341797</ele>
        <time>2009-11-04T15:43:50Z</time>
      </trkpt>
      <trkpt lat="45.11898" lon="4.97235">
        <ele>192.75500488281</ele>
        <time>2009-11-04T15:43:57Z</time>
      </trkpt>
      <trkpt lat="45.11885" lon="4.97152">
        <ele>192.99600219727</ele>
        <time>2009-11-04T15:44:06Z</time>
      </trkpt>
      <trkpt lat="45.11889" lon="4.97109">
        <ele>194.06300354004</ele>
        <time>2009-11-04T15:44:11Z</time>
      </trkpt>
      <trkpt lat="45.119" lon="4.97093">
        <ele>194.41999816894</ele>
        <time>2009-11-04T15:44:14Z</time>
      </trkpt>
      <trkpt lat="45.11909" lon="4.97076">
        <ele>194.85400390625</ele>
        <time>2009-11-04T15:44:17Z</time>
      </trkpt>
      <trkpt lat="45.11902" lon="4.97057">
        <ele>194.57600402832</ele>
        <time>2009-11-04T15:44:20Z</time>
      </trkpt>
      <trkpt lat="45.11897" lon="4.97054">
        <ele>194.54400634766</ele>
        <time>2009-11-04T15:44:21Z</time>
      </trkpt>
      <trkpt lat="45.11859" lon="4.97014">
        <ele>194.36700439453</ele>
        <time>2009-11-04T15:44:29Z</time>
      </trkpt>
      <trkpt lat="45.11818" lon="4.96955">
        <ele>194.17300415039</ele>
        <time>2009-11-04T15:44:38Z</time>
      </trkpt>
      <trkpt lat="45.11776" lon="4.9689">
        <ele>194.53399658203</ele>
        <time>2009-11-04T15:44:47Z</time>
      </trkpt>
      <trkpt lat="45.11767" lon="4.96853">
        <ele>194.16600036621</ele>
        <time>2009-11-04T15:44:51Z</time>
      </trkpt>
      <trkpt lat="45.11753" lon="4.96821">
        <ele>193.90299987793</ele>
        <time>2009-11-04T15:44:55Z</time>
      </trkpt>
      <trkpt lat="45.11732" lon="4.96811">
        <ele>194.21600341797</ele>
        <time>2009-11-04T15:44:58Z</time>
      </trkpt>
      <trkpt lat="45.11715" lon="4.96791">
        <ele>193.49600219727</ele>
        <time>2009-11-04T15:45:01Z</time>
      </trkpt>
      <trkpt lat="45.11676" lon="4.96726">
        <ele>192.86099243164</ele>
        <time>2009-11-04T15:45:09Z</time>
      </trkpt>
      <trkpt lat="45.11648" lon="4.9666">
        <ele>191.99099731445</ele>
        <time>2009-11-04T15:45:16Z</time>
      </trkpt>
      <trkpt lat="45.11611" lon="4.96565">
        <ele>192.13299560547</ele>
        <time>2009-11-04T15:45:26Z</time>
      </trkpt>
      <trkpt lat="45.11589" lon="4.96508">
        <ele>191.91799926758</ele>
        <time>2009-11-04T15:45:33Z</time>
      </trkpt>
      <trkpt lat="45.11583" lon="4.96479">
        <ele>192.2440032959</ele>
        <time>2009-11-04T15:45:37Z</time>
      </trkpt>
      <trkpt lat="45.11584" lon="4.96467">
        <ele>192.38600158691</ele>
        <time>2009-11-04T15:45:39Z</time>
      </trkpt>
      <trkpt lat="45.11585" lon="4.96451">
        <ele>192.93800354004</ele>
        <time>2009-11-04T15:45:43Z</time>
      </trkpt>
      <trkpt lat="45.11581" lon="4.96446">
        <ele>192.75799560547</ele>
        <time>2009-11-04T15:45:47Z</time>
      </trkpt>
      <trkpt lat="45.1158" lon="4.96446">
        <ele>192.77000427246</ele>
        <time>2009-11-04T15:45:50Z</time>
      </trkpt>
    </trkseg>
  </trk>
</gpx>